GFSSGP_700_rhum_000.txt.gz
RH
46 45 45 45 39 44 27 20 32 45 41 42 46 45 42 40 40 41 38 38 37 36 33 34 34 32 30 28 27 26 25 26 28 31 35 34 14 7 7 5 5 6 7 7 7 7 7 8 9
42 46 47 46 42 40 42 22 30 38 47 48 46 45 46 42 39 37 38 37 40 36 37 37 36 32 31 30 30 26 22 21 21 22 27 32 33 20 7 7 8 8 9 9 9 10 10 10 9
41 44 50 49 44 39 37 32 29 35 45 48 46 46 45 43 41 46 41 41 41 41 40 40 37 36 34 32 32 29 24 21 19 18 17 22 30 31 27 13 7 7 8 8 8 8 8 8 8
45 45 48 49 38 32 29 34 30 30 36 41 48 46 45 44 42 41 43 44 41 42 41 41 40 40 37 34 33 31 26 25 22 16 13 11 18 28 29 26 20 14 10 8 8 8 8 8 8
42 49 48 50 33 30 31 33 41 30 32 35 33 44 45 43 41 41 42 43 43 43 42 42 41 41 38 35 33 31 28 28 26 20 17 14 10 17 26 27 25 22 20 18 17 16 15 14 14
42 46 57 46 27 27 32 35 36 43 33 39 42 40 37 44 43 41 41 42 42 42 42 42 42 42 39 36 33 32 30 31 30 25 19 18 13 10 15 24 23 22 21 19 20 21 21 22 24
43 45 47 41 31 28 28 35 37 44 36 41 43 43 35 33 43 45 41 41 41 42 42 42 42 42 41 37 34 34 32 32 32 29 22 22 21 17 15 16 16 16 18 19 21 22 22 22 24
48 52 50 40 38 29 26 31 36 49 43 41 44 44 36 32 36 46 47 45 43 42 42 42 42 42 42 39 37 37 35 33 32 31 29 23 26 25 25 26 27 29 30 31 34 34 33 31 30
50 62 47 43 42 31 33 30 35 48 47 43 46 48 43 39 36 41 47 48 46 46 43 42 42 42 42 40 40 40 38 37 34 32 32 30 24 27 26 28 30 30 32 33 35 36 30 28 27
56 58 44 43 43 38 37 42 47 48 51 48 51 48 44 45 40 44 46 50 48 44 41 41 42 42 42 42 41 43 41 38 36 34 33 34 32 26 27 29 29 30 30 32 32 30 29 24 23
52 48 46 47 41 41 40 38 42 46 52 50 52 54 56 52 45 45 49 48 49 48 45 42 41 41 41 43 42 44 43 40 37 35 35 37 36 34 26 30 30 31 31 31 31 29 28 27 29
44 38 44 49 50 50 45 42 37 40 42 50 54 56 57 56 51 43 41 47 48 47 46 44 42 42 43 44 43 45 44 41 38 36 36 38 39 37 36 33 32 32 32 32 31 30 31 31 28
56 44 45 48 50 49 50 47 42 37 38 42 52 56 55 56 53 51 52 45 41 46 46 44 43 43 44 44 44 44 45 43 40 38 38 40 41 40 42 39 35 34 33 32 32 32 30 29 32
56 46 49 50 51 52 50 44 52 30 36 40 49 63 62 58 51 50 52 51 53 46 46 46 46 44 43 43 44 44 45 44 42 39 40 42 43 41 44 43 37 34 33 34 32 28 33 32 20
52 54 53 52 38 41 39 34 32 31 34 37 42 60 64 63 58 51 50 50 51 48 51 51 52 50 49 44 43 44 45 46 42 41 42 44 45 43 43 43 38 35 34 32 29 37 32 21 6
87 87 60 47 47 55 60 48 47 46 35 32 36 43 52 60 58 50 50 50 45 43 44 58 55 53 49 43 43 53 55 53 44 42 45 46 44 43 44 41 38 35 31 36 40 34 23 6 3
65 82 86 85 90 73 71 65 47 48 44 35 31 32 38 44 47 37 49 49 43 40 45 52 48 44 43 43 41 46 53 50 38 44 46 39 39 43 47 41 34 32 43 41 37 25 5 4 9
56 88 90 88 90 77 75 89 67 60 58 44 37 40 36 38 37 37 52 52 45 45 52 53 51 43 38 36 39 40 44 39 40 48 41 35 42 42 38 34 36 45 44 37 26 7 6 8 10
70 85 99 91 88 92 81 77 69 76 54 53 34 37 44 44 38 45 61 64 52 44 55 48 45 43 39 37 34 37 35 38 52 43 36 39 43 38 33 45 48 45 37 22 8 6 8 9 11
100 99 94 84 85 78 78 72 69 68 56 45 43 32 41 47 42 51 62 59 54 52 50 45 45 47 42 41 37 40 41 52 45 36 40 43 38 38 49 48 42 32 18 10 7 7 9 12 17
96 100 98 74 58 56 82 60 52 37 46 44 36 31 32 42 40 48 54 56 58 48 46 45 45 44 44 40 42 46 52 47 34 38 41 36 46 49 46 38 28 21 14 9 7 9 14 18 20
81 71 67 74 78 92 62 73 52 47 37 34 33 37 31 41 48 44 48 53 50 47 50 49 49 42 40 39 46 52 46 34 37 37 39 47 49 44 38 31 27 22 15 10 10 13 17 21 22
90 79 78 91 89 94 90 92 68 45 37 27 31 31 26 32 46 58 57 58 46 51 51 52 44 44 38 48 49 40 32 35 34 40 47 50 47 44 47 51 48 36 24 16 13 15 19 23 25
92 90 87 92 100 96 86 83 56 49 36 31 28 30 40 26 45 60 63 64 50 51 52 52 44 48 48 44 35 33 35 34 41 48 49 50 52 53 54 54 52 48 36 24 15 13 19 24 26
96 96 96 99 98 87 65 75 56 47 44 49 35 26 53 40 38 51 63 64 57 56 56 53 44 48 44 35 33 35 34 42 49 52 54 54 51 51 54 55 53 52 50 33 16 11 19 24 24
78 86 86 88 92 84 58 69 57 50 46 52 29 25 45 49 48 45 59 61 60 63 58 52 45 47 39 34 35 34 40 48 53 57 57 53 52 56 59 60 58 55 53 38 11 11 20 23 22
97 97 68 77 67 89 67 55 46 40 31 25 27 25 27 37 47 52 47 54 60 62 62 53 45 44 37 36 35 37 47 50 54 57 56 56 59 61 63 63 62 58 54 34 7 15 22 21 22
97 94 98 97 96 93 66 61 60 39 46 57 43 21 22 31 41 49 53 51 59 64 62 53 45 41 38 37 37 45 48 50 53 56 59 62 64 66 65 65 66 60 57 14 10 20 21 22 22
94 98 97 90 92 92 86 50 36 30 46 52 52 41 22 26 35 39 53 52 60 62 56 51 45 40 39 38 42 46 48 51 54 59 63 67 69 68 67 68 68 62 41 10 18 20 22 23 21
70 68 74 85 81 84 73 59 37 61 58 54 63 33 31 23 18 45 45 48 60 55 56 50 44 40 40 42 47 49 51 55 59 65 70 73 73 70 69 70 65 56 12 18 20 22 25 22 23

GFSSGP_700_rhum_003.txt.gz
RH
43 45 46 46 42 38 40 24 25 41 40 34 32 45 44 41 44 43 40 37 35 37 36 35 34 32 29 28 27 23 21 21 21 25 30 34 20 7 7 4 5 6 7 7 7 7 7 8 9
39 43 48 49 45 41 34 33 25 34 46 46 43 46 49 46 48 42 39 38 38 37 37 37 36 34 31 29 29 26 23 20 18 18 21 29 33 23 7 7 8 8 9 9 10 10 10 11 11
36 39 48 53 49 40 35 28 21 32 43 47 47 46 47 48 49 47 41 40 42 41 40 39 38 36 35 32 30 28 27 27 22 15 13 17 29 31 24 10 7 8 8 8 8 8 8 8 8
35 39 48 52 41 34 31 33 28 31 36 42 47 47 46 44 42 48 47 47 46 49 44 40 40 39 37 33 30 29 29 30 27 20 15 11 14 30 30 26 20 13 10 9 8 8 8 8 8
36 37 44 51 36 31 33 34 37 30 31 32 36 44 46 45 42 42 44 45 49 46 43 42 41 40 38 34 31 30 30 31 29 24 18 15 9 14 28 30 26 23 22 21 21 20 20 19 19
40 38 49 42 33 28 30 33 35 34 31 31 37 39 40 43 44 42 42 44 45 43 43 42 42 41 39 35 32 32 31 30 29 27 23 20 17 12 16 31 25 23 23 20 19 20 21 20 21
48 41 42 37 32 31 28 33 33 35 36 32 39 39 38 35 39 44 42 41 42 43 44 43 42 42 41 37 35 34 33 32 30 29 28 24 22 21 19 19 19 20 23 26 27 29 30 29 30
45 50 52 41 37 33 28 29 30 38 41 42 43 42 39 36 31 35 45 42 40 41 43 43 42 42 42 39 37 38 36 36 35 32 30 30 26 24 25 26 28 30 32 34 37 42 40 36 30
39 56 46 36 38 35 33 34 32 33 42 49 43 43 45 40 33 28 38 47 47 46 44 43 43 42 42 41 39 40 41 39 37 34 32 33 34 29 26 29 29 30 31 34 36 37 34 31 29
42 45 28 27 32 38 37 38 37 42 41 50 44 45 49 44 40 29 30 47 49 43 42 42 42 42 43 41 40 41 44 42 39 36 34 34 36 36 33 30 31 31 29 31 32 32 30 28 25
49 35 30 30 37 35 36 35 40 36 45 49 49 52 51 48 44 38 36 48 51 48 41 41 41 42 42 41 42 42 44 44 41 39 37 36 37 39 38 36 32 31 30 31 31 30 31 31 32
48 32 34 37 46 49 39 35 34 35 32 46 53 52 54 50 46 43 36 47 48 47 45 42 40 41 41 41 42 43 44 45 44 42 40 40 40 40 39 39 35 33 31 31 31 32 33 35 30
60 49 48 44 42 40 37 31 30 27 32 36 43 50 52 54 47 39 43 41 43 46 47 45 43 42 42 43 44 44 44 45 45 45 42 43 43 42 41 40 38 38 33 32 32 34 33 32 34
56 45 44 51 49 47 42 28 43 18 25 32 36 40 49 52 52 48 41 44 49 46 46 49 47 44 42 42 44 45 44 44 45 47 46 44 44 45 44 41 42 39 35 34 33 30 36 37 27
64 59 56 41 36 53 47 38 34 27 26 25 29 36 41 48 51 50 48 42 49 53 54 52 52 53 49 45 44 46 49 50 48 54 50 44 45 47 47 44 44 40 36 33 30 40 37 27 11
68 73 60 50 45 44 52 49 48 36 33 26 23 29 37 42 52 51 51 48 47 49 47 45 50 57 58 54 51 55 51 50 55 54 54 44 46 47 44 43 41 39 34 32 43 39 30 10 2
54 62 66 58 66 63 62 59 45 38 37 33 26 25 28 36 43 51 51 50 52 53 45 40 41 51 58 54 54 54 51 50 51 54 53 42 48 44 39 45 42 35 35 44 39 29 14 4 6
44 54 63 73 70 66 65 64 54 46 44 31 30 29 29 30 35 41 48 50 52 55 50 44 40 43 49 49 46 42 44 48 46 51 46 49 48 38 42 45 35 43 44 37 24 11 5 5 7
56 65 85 90 79 83 64 57 53 51 50 41 31 26 30 31 35 34 36 40 48 60 61 49 46 54 53 52 42 43 40 44 44 45 51 56 42 40 43 35 47 46 32 20 12 7 5 5 8
62 69 73 75 72 75 76 46 49 42 39 38 32 30 26 27 31 37 37 35 44 66 64 50 57 63 58 48 47 46 46 43 52 53 58 50 42 42 36 48 44 31 21 15 11 7 4 6 11
94 100 99 98 88 62 64 46 34 30 29 29 30 31 28 27 26 31 37 40 37 64 61 48 59 58 51 54 51 49 49 49 50 58 51 43 44 40 49 44 35 32 37 34 24 13 8 9 16
81 82 74 77 93 95 76 72 52 38 36 33 29 26 27 28 28 28 33 39 42 61 59 57 51 49 50 56 51 50 50 50 59 47 46 45 43 50 45 42 52 53 51 47 37 20 9 9 16
88 86 78 76 89 98 96 95 59 50 43 34 30 26 25 25 27 28 32 38 48 55 57 51 52 51 54 49 49 46 62 59 44 40 43 45 51 48 49 52 51 51 50 46 42 29 10 6 14
90 100 99 91 94 93 80 86 56 49 37 31 29 25 22 28 29 27 31 47 42 48 54 50 52 53 50 48 42 43 57 43 37 40 46 52 50 50 51 51 55 57 56 49 43 37 12 4 12
92 97 95 96 97 81 60 83 52 46 44 38 30 28 33 35 42 35 38 44 50 48 52 50 52 53 47 48 48 55 40 41 42 47 53 51 50 50 50 55 60 61 60 57 50 46 14 6 13
83 87 94 88 83 72 65 81 57 47 39 26 22 25 31 44 65 59 40 57 62 59 52 50 53 53 48 50 48 42 38 41 44 52 53 52 50 51 56 62 63 62 61 61 55 49 13 10 18
99 98 69 96 96 96 68 54 42 38 28 30 44 50 38 26 44 56 51 52 64 63 54 58 58 53 48 50 36 35 40 42 49 53 53 51 53 58 63 66 64 62 63 63 58 32 14 16 22
86 99 98 98 95 90 64 62 45 30 27 24 40 58 54 29 34 38 56 52 60 63 59 63 60 52 47 42 36 38 41 49 54 54 52 53 58 63 68 69 67 65 67 63 48 20 17 21 24
94 99 97 96 97 87 69 46 37 40 42 56 49 55 57 42 26 31 46 54 54 59 61 64 62 52 45 39 39 40 46 52 53 51 52 58 64 69 72 73 72 70 69 61 28 20 21 23 24
79 84 89 95 90 92 82 64 48 40 46 60 56 61 62 54 24 30 41 50 50 58 62 66 62 51 43 42 40 46 52 52 51 53 58 64 70 75 77 79 78 73 69 37 24 21 22 22 19

GFSSGP_700_rhum_006.txt.gz
RH
39 40 44 47 50 44 36 34 23 40 40 31 29 34 47 46 54 44 42 37 35 36 36 35 34 32 30 28 28 23 20 19 18 20 27 33 23 7 6 4 5 6 7 7 7 7 8 8 9
35 40 44 49 46 38 31 36 23 36 43 39 31 30 45 47 43 44 42 37 36 38 37 36 36 34 32 30 29 27 27 26 20 14 15 25 32 21 7 8 8 8 8 9 9 10 10 10 10
34 38 49 55 46 38 35 35 33 24 41 46 45 38 46 52 47 46 40 39 39 41 38 38 37 36 35 33 30 29 30 29 26 18 13 12 24 30 20 8 8 9 9 9 9 9 9 9 9
33 37 42 51 42 42 41 39 30 26 36 45 47 46 46 49 47 48 45 41 44 43 44 45 42 37 37 33 31 30 30 30 28 24 17 12 11 27 29 23 17 11 10 9 9 9 9 9 9
34 35 54 54 44 42 35 35 33 30 33 34 46 44 46 45 47 47 50 47 45 44 46 48 42 40 38 35 32 31 32 30 27 27 24 18 11 12 27 29 26 23 22 22 21 21 20 20 20
40 49 54 45 42 46 28 30 32 31 35 33 34 40 45 45 44 45 46 46 46 48 50 44 43 41 41 37 33 33 32 32 29 27 27 24 19 16 11 19 22 22 22 20 18 18 19 21 20
52 60 47 46 43 45 35 28 31 36 36 37 36 40 43 42 43 44 45 44 45 45 44 44 44 42 42 39 35 35 34 35 36 33 29 29 25 22 22 24 22 23 24 26 28 29 29 30 29
47 73 56 59 47 46 44 25 27 31 39 37 33 36 40 38 36 39 44 42 41 44 44 44 44 44 42 41 37 38 36 37 38 35 32 30 31 28 25 28 29 29 29 30 32 33 38 34 30
36 70 56 54 57 50 34 29 28 27 30 34 37 41 40 39 36 33 33 44 45 42 42 42 44 44 43 42 40 39 40 40 40 37 34 33 33 33 32 28 29 30 28 29 30 31 32 31 29
40 72 56 56 61 61 46 34 43 35 33 34 40 42 43 43 39 36 30 36 46 48 46 45 44 44 43 43 42 40 42 43 42 40 38 35 35 35 36 34 32 30 31 30 31 31 31 31 30
42 73 62 44 36 34 47 27 30 32 39 34 54 53 43 45 42 38 34 33 48 51 46 42 42 43 43 43 43 42 41 44 45 43 41 40 38 37 37 37 37 36 34 32 32 32 32 33 34
46 27 45 47 43 40 36 48 28 30 28 57 46 49 46 47 48 43 38 35 49 50 49 46 41 42 42 42 42 41 42 43 45 46 44 42 41 40 39 39 39 40 38 34 32 32 33 34 32
59 49 40 38 31 32 38 31 47 51 23 30 37 52 51 52 50 46 40 37 43 49 49 47 44 42 42 43 43 42 42 43 44 46 46 45 43 41 41 41 41 41 40 38 34 33 33 29 31
57 48 45 43 40 41 41 29 78 16 20 25 31 35 50 52 52 51 43 40 40 45 49 51 49 46 43 42 44 46 48 46 45 46 46 47 47 44 43 43 43 41 42 40 35 32 29 34 36
56 49 46 37 37 42 39 43 35 24 27 25 21 27 33 41 50 51 48 44 45 48 53 53 54 53 52 46 44 44 45 46 48 49 49 52 54 51 45 46 44 41 42 38 33 29 38 36 29
58 57 74 62 47 49 54 57 65 36 27 25 24 22 24 30 36 44 49 46 46 46 51 56 56 56 58 58 55 53 49 51 51 51 51 55 54 51 43 46 43 43 41 34 32 40 33 25 11
80 68 84 74 44 61 56 72 79 45 40 35 31 31 27 23 32 38 46 46 45 48 50 50 50 49 50 57 60 59 57 56 55 50 49 49 52 49 46 43 40 43 36 36 38 27 16 7 5
58 82 74 63 71 42 44 62 64 69 39 43 38 33 30 26 23 32 39 46 47 48 52 52 47 45 43 46 54 64 60 54 51 48 50 48 50 43 49 40 46 37 40 37 24 15 9 6 4
51 60 73 74 60 48 37 33 52 42 35 44 35 35 31 27 26 25 32 39 46 48 49 54 49 47 46 47 51 57 55 49 41 40 46 46 44 45 46 46 40 44 38 26 23 23 16 9 6
57 76 74 76 80 72 71 29 38 30 21 22 28 27 30 30 28 26 29 31 37 44 49 52 54 46 43 53 64 63 64 52 46 40 45 50 58 56 45 43 44 40 33 44 47 43 37 22 10
73 90 84 82 82 86 80 45 34 40 31 23 23 25 25 27 30 28 28 31 31 35 38 46 60 47 48 59 68 70 60 55 49 44 44 79 96 54 47 43 44 40 48 46 44 41 39 30 13
88 89 92 96 94 76 83 56 44 45 40 30 24 26 26 24 24 28 28 28 33 34 33 39 62 55 50 59 66 63 60 55 60 53 62 85 60 56 43 48 45 49 48 50 50 45 40 36 18
94 86 95 96 92 91 75 96 50 48 51 37 30 29 29 27 25 25 29 28 30 40 37 37 60 56 51 62 56 61 63 55 57 56 62 58 59 47 51 47 51 50 53 54 54 53 52 49 40
89 99 100 100 98 90 60 63 51 39 41 41 30 28 30 27 23 23 26 28 30 36 39 43 60 59 55 52 56 60 57 57 50 52 55 49 48 51 49 51 52 55 58 57 56 57 57 56 45
99 100 75 84 92 63 43 51 53 44 50 38 30 25 31 38 33 29 37 32 29 30 36 47 58 57 52 52 54 53 53 57 92 59 49 47 51 52 52 52 56 61 62 59 57 58 60 58 43
92 94 67 58 43 40 47 57 41 43 50 36 32 25 24 28 36 38 62 57 32 35 39 50 55 53 52 53 51 51 51 77 64 49 47 51 53 54 54 56 62 65 64 61 59 61 63 56 40
100 99 83 88 87 93 56 59 51 45 47 43 36 40 61 54 29 49 67 60 36 49 50 49 52 50 52 53 48 52 60 97 50 44 45 51 54 56 57 62 66 68 68 65 64 65 65 53 31
93 99 93 98 82 69 45 54 42 38 39 39 42 55 57 59 49 36 56 58 46 55 63 58 57 51 52 53 51 54 98 63 45 45 50 55 58 58 61 66 70 73 72 71 69 69 65 44 23
92 100 99 95 91 67 54 34 36 45 47 52 58 57 53 55 53 32 47 56 53 65 66 66 57 53 58 52 51 80 83 43 44 50 55 56 57 61 64 70 75 78 77 74 72 74 62 28 23
88 94 97 97 91 97 72 57 43 48 43 47 53 54 55 63 58 36 39 54 55 56 66 64 62 63 60 52 66 58 96 43 49 55 58 59 60 64 70 75 80 82 80 78 75 76 35 22 24

GFSSGP_700_rhum_009.txt.gz
RH
34 36 38 40 51 43 33 30 28 32 31 34 39 39 41 44 42 47 47 42 36 35 34 34 34 32 30 29 27 27 26 26 18 15 18 26 31 14 7 3 4 6 7 7 7 8 8 9 9
30 34 39 56 49 35 30 29 31 25 38 38 32 30 36 43 46 49 44 40 35 36 36 35 35 34 33 32 29 28 29 29 26 17 13 14 27 28 10 7 6 7 8 8 8 9 9 10 10
29 32 57 55 45 36 29 33 31 33 38 40 38 34 44 48 46 46 43 40 38 39 38 38 37 37 37 34 31 29 30 30 28 24 16 11 15 29 23 10 8 8 9 9 9 9 10 10 10
31 35 56 54 41 35 32 33 33 38 34 41 42 38 42 45 48 48 47 40 41 42 41 41 44 45 38 35 32 30 32 30 28 26 22 16 10 21 28 23 17 11 9 8 9 9 9 9 9
33 56 54 45 39 34 33 38 40 38 35 39 42 37 42 45 48 47 49 46 42 42 44 44 44 44 39 36 33 32 32 31 28 26 26 23 17 11 19 29 27 24 23 22 22 22 21 21 21
64 58 49 38 35 36 34 38 40 38 36 35 39 42 41 46 48 49 46 47 48 45 46 45 46 44 41 39 36 33 33 33 34 32 28 27 24 20 15 16 17 17 16 17 16 17 19 19 20
73 59 44 39 35 32 33 42 44 40 37 36 36 40 41 46 45 44 46 47 48 47 47 48 48 44 44 41 38 34 34 35 36 34 32 29 28 27 22 24 24 24 26 26 28 28 30 32 31
76 63 52 46 36 34 34 39 47 42 39 40 42 38 38 50 44 43 45 46 46 44 45 47 44 44 44 44 40 36 36 37 38 38 35 32 30 29 29 25 25 27 27 27 27 28 29 30 29
44 75 55 49 40 39 40 41 50 45 42 40 41 34 41 38 40 38 40 44 44 42 43 44 44 44 44 44 43 40 38 40 40 41 39 36 33 31 29 30 30 26 28 28 28 30 30 29 29
73 68 54 43 40 42 46 51 48 51 44 38 44 40 34 38 39 34 35 36 41 46 45 43 43 43 44 44 43 42 40 40 42 43 42 40 38 35 32 32 32 33 32 30 30 30 31 31 30
84 72 54 50 54 64 64 55 54 54 54 48 45 46 52 42 41 35 32 34 31 37 47 47 46 45 44 44 43 43 42 41 41 44 44 43 42 39 36 35 35 35 36 35 33 31 31 32 32
75 73 66 64 67 72 77 67 62 62 56 53 50 52 57 57 45 44 38 36 48 33 45 48 45 44 44 43 43 43 43 42 42 43 46 46 44 43 41 38 37 38 38 37 36 33 32 32 32
92 84 69 76 61 76 84 76 78 79 70 67 66 67 58 51 48 62 54 41 39 34 44 49 48 44 42 42 46 43 42 42 42 43 45 46 46 46 45 42 40 40 40 39 39 36 32 32 28
89 87 85 85 67 89 85 46 81 62 22 47 62 65 57 57 52 59 57 45 42 39 42 49 49 47 45 44 45 47 45 43 43 44 44 46 46 48 51 51 43 42 42 39 38 34 32 27 30
73 67 74 48 54 84 76 66 50 26 43 46 62 49 27 33 56 61 68 59 44 46 45 47 50 50 49 49 46 46 48 49 51 52 50 49 49 49 54 53 46 41 42 36 35 33 28 35 32
57 84 77 66 66 72 75 66 58 57 64 65 50 54 56 40 34 49 64 68 48 48 50 52 51 51 51 54 54 53 52 50 48 48 50 51 51 53 56 53 47 42 39 36 34 30 36 27 17
84 66 64 64 67 71 69 63 55 59 49 61 57 63 63 62 50 49 47 64 67 57 48 49 55 56 54 54 57 61 61 62 57 54 54 54 51 52 50 50 43 42 37 36 32 36 24 16 10
58 69 61 52 49 66 69 63 56 58 53 63 56 40 48 60 62 35 44 58 66 71 52 52 46 51 53 52 53 54 57 62 62 61 61 55 50 49 48 45 42 41 38 34 38 27 29 31 24
68 63 54 50 54 62 61 57 52 50 47 40 40 30 26 28 32 52 27 33 63 64 44 49 49 45 50 49 46 44 45 53 63 61 58 47 43 43 44 44 48 41 37 41 32 36 34 33 34
79 71 62 58 60 63 64 37 46 23 14 18 24 20 17 18 21 31 35 24 28 36 40 42 51 49 50 47 44 46 48 61 61 61 57 49 46 47 45 57 51 42 44 37 42 39 38 34 32
73 73 68 65 66 70 67 49 26 40 35 27 19 18 17 17 19 24 27 31 23 30 34 49 52 55 50 44 42 47 58 64 60 60 59 52 49 49 62 80 55 46 41 45 46 48 48 46 45
75 69 71 78 79 64 71 51 40 32 34 31 36 18 18 21 25 24 24 32 33 26 33 38 42 52 52 42 38 45 54 62 65 66 66 62 57 84 99 75 49 48 48 47 52 53 53 53 53
83 90 87 85 83 84 63 65 46 32 30 25 30 43 29 32 37 30 26 24 27 37 38 31 41 41 46 50 45 51 64 68 66 63 61 59 59 99 99 70 52 48 50 52 56 56 54 54 55
96 95 96 92 95 84 57 49 38 30 23 28 30 37 39 40 41 35 22 24 25 31 48 31 43 39 43 56 56 58 66 65 60 61 59 60 65 99 86 56 54 53 51 57 60 57 54 55 57
99 98 70 80 92 64 34 37 36 28 31 30 35 32 42 40 42 51 50 24 24 27 39 34 35 44 42 51 60 63 64 57 60 66 68 53 81 73 66 54 54 55 55 61 62 58 57 57 59
100 94 61 53 40 34 36 37 34 35 33 37 40 41 34 44 40 63 64 40 34 33 35 32 33 44 47 56 64 59 54 58 63 66 74 98 59 60 54 56 58 56 60 65 63 61 61 62 63
94 92 72 81 70 67 48 42 40 37 38 39 41 45 44 41 65 78 77 39 42 56 43 35 35 41 48 61 63 56 54 60 60 62 78 66 51 52 56 59 60 60 63 67 67 66 65 67 68
94 90 91 96 79 56 35 34 34 35 36 34 36 40 41 48 67 78 64 42 53 64 49 36 40 47 55 62 60 54 58 59 62 63 66 51 50 55 58 62 62 63 67 70 71 72 72 72 70
97 100 98 87 88 74 66 44 37 38 41 46 59 55 68 73 65 46 47 55 52 56 50 40 54 53 57 60 55 55 58 61 71 92 55 49 52 58 61 62 63 65 70 74 77 78 76 75 72
87 96 96 97 72 93 77 66 50 46 47 47 52 49 62 59 70 54 56 60 35 51 52 56 62 59 57 61 56 57 64 60 99 91 49 50 57 61 63 63 63 68 74 79 81 81 81 70 48

GFSSGP_700_rhum_012.txt.gz
RH
31 33 34 35 48 51 43 35 29 29 29 29 34 35 38 40 46 49 47 48 43 35 34 35 32 32 31 31 29 28 28 28 26 20 13 15 25 30 10 5 3 5 6 7 7 8 8 9 10
29 32 35 35 58 49 38 32 31 28 28 36 31 34 38 42 46 47 47 45 42 36 35 34 35 35 36 34 32 29 29 29 28 25 18 11 14 27 26 8 6 6 7 8 8 8 8 9 9
27 31 37 60 56 48 37 31 30 28 27 27 33 32 39 50 51 44 46 42 38 36 37 36 36 37 39 37 33 31 31 31 29 27 25 17 9 17 28 18 8 8 9 9 10 10 10 10 10
28 31 33 50 48 42 35 32 34 32 31 35 39 37 39 49 54 44 46 42 39 38 39 39 38 41 39 38 34 33 32 32 30 27 25 24 16 10 22 27 22 14 9 8 9 9 9 9 10
31 35 61 51 39 39 36 32 36 36 34 36 38 28 40 44 43 44 49 48 41 41 42 41 40 43 41 38 35 34 34 34 34 32 28 25 24 17 12 25 28 26 25 24 22 21 20 18 18
35 33 57 54 49 41 36 32 36 37 36 34 35 30 45 46 41 45 48 47 45 44 46 47 44 45 41 41 37 36 35 35 35 32 30 27 24 25 21 18 15 16 18 20 22 23 24 25 25
36 64 58 51 43 35 32 33 35 40 38 36 35 35 39 48 44 42 48 48 48 48 47 47 46 48 45 43 41 37 35 36 37 36 36 34 28 25 25 25 24 25 26 26 25 25 25 26 26
34 65 67 55 46 38 35 32 35 41 42 37 36 36 36 64 48 44 45 48 48 49 48 45 46 48 47 43 43 42 36 37 38 39 40 39 36 32 29 27 28 27 25 26 26 26 26 26 27
43 82 75 60 50 47 38 35 36 38 40 39 39 38 42 43 46 44 42 45 47 47 48 46 45 46 46 44 44 44 41 38 39 41 42 41 39 38 34 31 30 30 31 30 27 26 26 27 27
62 60 56 53 50 46 40 39 41 46 48 43 39 39 42 39 42 40 38 39 42 46 44 43 43 44 44 44 44 44 43 41 40 41 43 44 42 42 40 36 33 32 32 32 32 29 29 28 27
50 47 54 28 51 46 46 47 49 49 52 50 41 39 44 40 34 39 38 37 36 37 42 47 46 42 41 42 44 44 44 43 42 42 42 45 45 44 44 42 39 35 32 33 32 32 31 30 30
75 78 62 31 52 62 58 50 53 55 53 53 50 48 45 53 53 38 37 33 34 30 33 36 46 48 45 44 43 44 44 44 43 42 42 44 46 46 45 45 45 42 38 34 34 32 32 31 30
84 73 71 65 45 58 66 66 50 49 60 43 46 50 48 52 64 54 54 46 42 61 32 31 45 47 47 46 47 47 47 44 44 43 43 44 45 46 46 47 49 50 45 38 36 35 33 32 30
85 86 88 73 68 62 47 45 48 44 20 40 49 35 52 48 57 59 56 67 60 58 44 36 37 46 49 48 46 45 51 48 45 44 44 44 45 45 47 49 52 52 47 42 37 36 33 31 29
90 88 70 56 37 44 45 55 50 29 28 30 26 24 24 29 34 48 46 63 69 55 48 42 39 41 50 49 48 47 48 49 50 52 51 51 47 48 52 52 53 53 49 43 38 34 31 30 30
78 82 73 51 51 47 68 59 39 59 54 43 34 37 37 30 22 21 33 54 70 69 58 50 44 42 47 51 52 51 50 49 50 48 48 49 48 52 52 52 52 52 48 42 37 34 31 31 30
87 79 69 66 62 64 67 64 54 65 56 61 68 61 54 40 41 37 30 44 52 70 70 72 58 43 42 50 54 54 57 58 58 59 56 50 52 55 55 52 51 50 46 41 38 33 32 32 29
70 74 65 59 56 53 55 64 57 47 59 62 55 37 43 52 49 38 30 30 40 57 70 71 74 62 44 50 55 55 55 55 58 59 61 59 59 60 55 49 44 46 46 42 37 33 34 33 31
76 76 62 55 49 52 54 53 50 31 33 17 29 38 30 21 23 30 43 30 24 37 64 71 69 69 54 48 47 51 53 53 55 54 54 59 63 62 52 44 41 46 48 45 37 37 36 35 36
80 80 68 61 56 59 53 42 30 20 16 17 17 20 15 16 15 16 29 54 31 30 55 69 74 62 57 52 51 53 52 50 47 44 52 54 62 60 54 48 44 48 53 44 40 39 39 42 44
68 79 72 66 65 61 53 44 31 34 29 23 21 18 16 11 12 17 18 25 38 32 36 60 70 69 54 56 55 54 53 50 46 44 56 60 64 62 56 53 49 56 61 44 43 43 46 49 50
78 68 69 69 74 70 67 74 30 20 21 31 26 14 14 20 16 10 16 18 36 38 35 49 53 60 58 53 48 53 53 49 47 49 58 67 70 67 60 60 55 99 63 48 46 47 53 53 51
77 81 74 73 83 86 62 73 24 26 20 26 23 26 30 32 32 28 27 27 35 40 59 42 56 73 54 39 52 58 54 49 50 62 71 74 71 64 60 63 96 100 59 50 49 52 57 56 53
88 90 79 80 88 94 52 52 16 26 25 28 26 22 27 35 39 40 42 41 33 31 44 51 60 69 52 50 43 52 56 46 54 62 73 71 68 64 68 74 99 100 57 52 51 56 60 58 55
96 91 86 96 99 88 36 50 37 29 31 31 32 31 32 42 40 40 44 55 49 37 28 47 66 67 56 46 47 43 49 45 62 66 73 72 68 70 77 80 99 89 56 54 53 59 63 61 59
89 89 74 76 82 68 56 57 41 32 33 33 33 34 35 38 38 41 39 39 46 48 49 35 62 66 60 47 49 52 48 57 63 68 73 73 76 82 67 100 98 74 57 57 56 62 64 63 63
93 96 55 85 72 82 57 42 36 32 32 32 34 35 39 40 44 44 42 43 33 47 59 58 60 59 54 44 50 59 53 58 66 67 71 74 75 81 99 86 89 58 59 60 60 64 66 66 66
93 80 92 90 97 80 47 41 38 38 37 37 35 38 39 40 42 43 50 57 49 43 47 67 74 59 53 40 49 59 52 61 63 67 72 70 96 88 81 71 59 59 62 62 62 65 68 70 70
83 96 91 94 94 94 80 49 40 42 43 42 44 46 46 50 45 46 45 36 37 52 55 53 61 65 62 41 47 55 56 66 64 69 68 95 86 94 61 58 60 62 65 64 65 71 72 72 74
90 89 84 95 75 82 74 73 50 44 52 50 50 48 51 46 55 58 60 46 53 50 54 49 65 69 50 40 47 60 71 70 63 62 86 91 95 60 59 62 63 66 65 65 69 74 77 76 77

GFSSGP_700_rhum_015.txt.gz
RH
41 37 38 36 32 42 39 28 36 29 26 28 29 32 35 39 41 46 47 47 41 37 34 34 32 32 34 36 32 29 29 28 28 26 21 11 16 27 24 7 3 5 6 7 7 8 8 9 10
36 38 37 40 48 54 35 31 34 31 29 26 28 30 33 43 46 46 48 46 44 39 35 35 34 34 37 35 34 32 32 32 30 27 25 19 9 17 27 16 7 6 7 8 8 8 8 9 9
33 35 37 40 46 40 26 34 35 31 29 25 26 23 34 48 42 45 45 46 44 39 36 35 36 36 36 37 34 33 33 33 30 28 25 24 16 9 21 25 13 8 8 9 10 10 10 10 10
32 35 35 44 39 31 23 30 37 33 30 30 26 39 37 43 50 48 44 44 42 38 37 37 38 38 41 37 35 34 34 34 34 31 28 24 23 15 11 25 26 21 14 10 10 10 12 13 14
30 32 37 35 27 23 32 37 39 35 34 34 27 37 40 45 43 45 46 46 42 39 39 39 39 39 42 39 37 36 35 35 35 31 28 25 23 22 17 14 20 25 25 23 20 18 17 16 17
33 32 41 31 24 25 20 33 33 36 36 34 35 31 35 46 48 42 43 49 48 43 41 43 44 44 45 41 40 38 35 36 37 33 35 35 28 23 23 22 21 20 21 22 22 23 23 23 23
31 34 29 30 27 34 31 32 34 34 38 35 36 35 35 40 42 43 41 48 48 48 46 47 47 46 45 46 43 42 39 35 37 36 38 40 38 36 28 24 25 25 24 23 23 23 23 24 25
28 44 36 32 31 28 31 38 37 36 35 37 34 38 39 47 54 48 43 44 49 49 48 48 48 46 48 49 47 44 43 38 37 39 39 42 40 39 37 33 29 27 26 27 27 25 24 25 26
27 70 56 36 32 22 24 36 38 40 39 36 36 39 38 43 47 55 44 45 46 48 49 48 48 47 46 49 47 44 44 43 39 40 41 43 44 42 42 40 36 33 30 29 29 28 28 27 27
33 53 53 28 28 32 44 44 41 44 41 41 38 40 41 40 43 42 48 44 43 44 47 47 50 49 46 46 45 45 45 44 43 40 42 43 45 45 44 44 43 42 37 35 32 31 30 29 29
40 40 39 29 34 55 58 50 47 43 47 43 38 41 41 41 39 38 42 41 38 40 40 46 46 45 44 45 45 45 45 45 44 43 42 43 44 46 46 45 45 45 45 44 40 34 32 31 29
36 44 46 33 31 60 57 50 44 51 45 48 43 39 45 50 46 42 39 40 39 36 38 36 37 41 42 43 42 43 43 45 45 44 44 43 43 44 45 47 46 47 48 47 44 39 35 32 30
70 55 64 43 51 58 59 57 43 45 52 44 42 42 42 51 52 58 56 51 45 37 31 30 32 34 34 35 37 38 45 48 47 45 44 44 44 44 44 46 47 50 50 49 47 43 37 32 30
76 78 81 69 66 53 58 56 56 32 35 46 42 32 44 47 55 64 63 54 49 62 49 41 37 38 36 36 38 40 45 47 48 49 46 45 44 44 45 46 46 50 51 51 48 43 38 34 30
88 87 82 56 31 38 35 29 34 23 22 24 22 19 22 46 51 52 63 59 54 62 66 52 43 43 42 39 42 46 48 49 48 48 49 48 47 48 48 47 50 51 52 50 48 44 38 34 30
84 82 75 36 44 39 46 45 29 31 42 32 26 28 22 18 34 44 48 53 57 53 70 69 52 44 45 46 48 46 50 49 50 49 48 49 49 50 52 50 52 51 52 50 49 44 39 34 30
84 78 62 63 57 64 63 60 45 44 50 53 48 36 28 22 24 22 27 32 38 48 54 73 69 50 43 50 50 53 56 53 53 54 52 51 50 48 48 52 57 55 50 46 48 44 40 34 32
83 74 70 68 61 71 70 67 50 52 49 35 39 42 43 29 24 22 22 21 19 36 55 73 74 71 54 44 56 58 64 62 60 57 54 56 59 57 56 61 60 54 46 45 49 46 40 35 35
73 83 74 64 60 57 54 53 53 31 32 38 28 22 17 17 17 30 34 35 52 36 58 72 74 74 73 53 48 52 55 55 56 57 54 54 58 59 63 64 62 55 48 46 50 49 40 38 38
75 80 69 56 59 54 49 41 31 22 17 16 13 14 15 14 14 16 29 45 45 53 46 59 73 74 73 71 54 55 58 59 58 59 55 52 50 49 54 65 63 56 49 48 57 50 42 41 43
84 78 68 62 45 46 49 26 14 13 16 24 20 16 16 14 15 14 15 18 33 36 40 46 61 73 72 74 72 62 61 61 61 58 54 49 46 49 62 70 67 58 57 52 66 49 44 44 47
78 73 70 72 67 64 59 71 14 20 20 22 16 17 18 16 16 14 11 8 15 20 28 42 59 66 68 73 77 68 58 57 52 56 58 53 51 59 69 74 69 71 69 66 87 50 47 46 50
77 74 67 69 70 70 55 61 31 20 16 17 24 30 26 23 20 23 22 15 12 15 22 35 50 64 64 71 73 67 64 60 62 61 61 57 59 66 75 78 73 88 79 84 91 52 49 49 54
85 75 68 66 74 88 39 47 31 26 22 22 28 30 26 26 28 35 29 20 22 27 30 43 49 57 74 69 77 73 51 54 63 63 63 56 58 72 80 77 75 89 92 98 96 57 52 53 58
82 76 83 89 91 88 47 60 34 24 27 29 29 30 30 27 26 25 35 30 24 19 34 43 56 60 54 73 78 73 53 56 68 71 65 56 64 70 78 78 89 100 96 88 95 58 55 54 60
76 70 73 86 96 80 59 60 39 30 28 32 33 34 35 33 34 34 39 41 41 40 43 46 42 54 64 61 71 77 56 68 70 74 64 57 69 78 83 89 98 81 94 96 89 60 58 57 62
80 89 86 84 77 87 55 41 31 30 36 36 34 36 36 37 33 37 39 37 40 40 37 40 42 40 56 74 77 81 67 70 59 68 57 68 71 80 86 100 99 77 100 98 93 62 63 61 63
83 80 88 91 100 94 65 53 41 40 40 41 42 42 42 41 40 40 38 41 38 35 35 41 49 38 43 61 77 80 78 76 64 70 71 69 74 81 86 100 93 99 99 100 70 65 65 65 68
84 95 90 85 92 98 99 62 42 40 41 48 52 49 49 48 46 44 43 42 41 43 47 31 54 51 47 54 70 80 81 74 62 69 68 68 80 80 99 90 100 100 96 95 65 69 69 68 72
81 69 82 76 74 80 88 72 49 44 44 50 55 64 63 58 56 54 52 47 38 35 30 25 44 54 55 59 77 84 88 66 63 67 63 73 77 92 94 98 100 98 100 76 68 74 69 73 76

GFSSGP_700_rhum_018.txt.gz
RH
49 46 41 37 34 29 25 22 32 32 30 27 30 31 31 37 37 40 43 46 39 33 34 34 34 34 35 36 32 31 31 32 30 28 25 17 11 22 26 11 4 5 7 7 7 8 9 9 10
47 48 43 40 35 34 22 23 37 35 30 30 27 28 35 36 38 43 48 47 41 35 35 35 33 34 36 34 33 32 32 33 32 30 27 24 13 12 25 19 8 6 7 8 8 9 9 9 9
46 46 43 44 37 27 20 33 38 36 30 30 28 24 29 34 36 42 45 47 47 38 36 36 34 36 36 37 34 34 33 34 33 31 28 25 22 11 16 26 21 9 8 9 9 10 10 10 10
40 41 40 43 27 21 17 35 37 35 30 29 32 28 32 34 38 46 43 44 45 41 37 36 36 38 41 38 36 35 35 34 35 32 28 25 22 21 12 17 28 27 24 21 17 16 16 18 19
29 33 37 35 26 18 18 27 39 36 34 35 34 31 40 42 40 43 45 46 44 42 38 37 38 41 41 42 38 37 35 36 37 34 33 32 25 21 21 17 15 16 18 18 18 17 17 17 18
29 31 34 30 24 20 18 33 38 38 38 36 35 31 38 39 48 48 43 44 48 44 39 39 40 41 42 44 41 39 38 36 37 36 36 39 37 33 24 23 23 23 23 23 22 22 22 22 22
33 31 29 25 24 23 15 22 40 39 38 37 36 34 31 32 43 46 42 39 48 47 42 41 42 47 47 46 46 43 42 39 37 38 38 40 40 38 36 31 27 25 25 25 24 23 23 23 23
36 36 33 27 24 20 16 33 44 40 36 38 35 33 34 33 38 44 47 42 41 53 52 49 48 49 49 48 49 49 44 43 40 38 40 41 42 42 41 39 36 34 31 30 28 27 26 26 25
41 52 37 25 20 15 14 27 40 40 42 39 37 35 34 34 38 45 52 42 34 46 59 60 56 51 49 48 49 50 46 45 44 41 40 43 44 45 45 44 43 43 41 39 37 32 30 28 27
44 44 27 20 18 20 17 28 35 40 42 42 40 38 37 40 41 39 43 54 46 48 50 59 58 53 49 49 48 49 46 45 45 44 42 42 44 44 46 46 46 45 44 44 44 42 37 33 30
36 37 20 15 14 14 24 38 44 52 47 43 41 39 38 40 39 40 42 41 42 43 48 48 54 55 53 51 47 47 46 46 46 45 45 43 43 44 44 46 47 46 46 46 46 45 44 38 33
28 32 25 14 17 20 38 52 50 54 51 45 42 42 40 43 42 39 40 40 40 41 40 39 48 52 52 49 46 46 45 45 45 46 45 45 44 43 43 44 46 47 48 49 49 48 46 41 36
42 38 34 26 26 34 38 65 59 49 50 51 47 44 40 40 42 42 38 45 50 42 39 41 40 41 38 42 49 48 46 46 47 46 47 46 45 44 44 44 46 47 47 50 50 50 47 44 39
68 42 43 42 39 30 30 39 60 42 44 51 50 47 45 40 45 45 43 39 45 48 40 36 38 36 33 29 32 34 36 42 46 48 49 49 47 45 44 44 46 47 50 51 50 50 48 45 40
75 83 69 48 32 38 38 28 36 36 28 36 49 48 45 43 43 52 50 47 49 53 56 50 43 43 32 32 37 42 42 41 47 48 48 50 51 48 46 46 47 49 53 51 51 51 50 46 41
93 88 89 52 39 38 45 34 21 22 26 26 22 31 37 40 39 45 52 52 52 56 60 56 51 51 45 36 41 42 45 49 50 48 50 51 50 50 50 53 53 53 52 54 54 50 47 46 42
89 90 83 50 44 46 57 50 28 35 33 32 28 26 23 20 18 22 44 46 56 56 64 68 56 49 63 60 50 47 44 50 51 50 50 50 51 50 49 49 51 55 59 57 52 48 48 49 44
76 73 72 65 64 69 70 69 47 47 50 45 36 30 26 22 16 16 22 41 43 51 61 70 73 61 55 68 61 52 51 52 55 48 47 52 56 58 59 58 57 59 63 60 53 49 52 52 44
81 82 86 72 69 70 73 74 62 30 37 40 32 29 26 22 20 24 25 25 25 30 40 55 71 70 61 55 63 55 52 49 55 49 48 53 58 56 61 61 63 67 66 62 56 53 56 56 44
100 92 79 73 68 69 60 56 46 37 29 23 19 20 17 17 16 16 21 28 33 25 23 22 30 63 71 63 68 82 66 55 60 60 60 60 60 59 55 55 61 67 68 65 58 57 64 56 45
87 88 85 79 67 62 57 52 33 19 14 12 9 14 16 14 13 12 15 17 19 23 31 33 32 68 75 73 72 72 76 74 58 62 61 60 57 56 52 54 64 72 72 68 64 64 74 53 48
89 85 82 79 62 59 47 66 20 15 13 12 12 13 15 13 13 13 15 16 18 22 34 34 40 40 68 73 74 73 73 70 66 60 58 64 64 61 56 54 62 78 78 71 74 73 90 56 51
89 82 68 61 68 72 54 65 21 18 13 16 17 22 19 20 20 18 16 14 12 14 19 39 52 50 54 51 69 73 72 86 82 76 65 69 70 66 58 56 68 78 82 80 99 84 97 66 55
83 72 64 67 70 80 44 54 37 18 19 19 21 24 25 26 27 23 22 21 20 18 17 17 28 51 56 64 61 66 74 73 82 76 72 68 72 65 62 60 69 82 91 89 99 97 93 86 58
76 74 68 80 94 80 56 66 29 26 22 26 29 30 32 31 29 30 30 30 28 24 20 19 28 33 59 62 67 72 73 76 76 84 77 73 70 66 62 64 71 84 93 88 98 97 93 94 65
63 74 59 65 96 85 64 66 29 22 26 30 34 33 32 33 33 32 33 33 35 39 38 34 35 39 46 58 60 69 76 84 82 88 81 72 71 73 65 75 84 86 93 98 100 87 99 98 68
78 93 82 82 86 90 55 42 27 28 31 37 38 38 40 40 38 36 36 36 30 32 38 41 42 44 43 40 49 61 67 71 74 82 84 72 77 76 65 78 91 94 96 98 98 77 100 96 72
83 83 84 77 91 90 70 61 39 38 39 39 41 44 48 46 42 45 45 41 38 34 34 40 40 40 40 37 32 50 56 66 66 79 77 76 79 75 68 83 90 99 100 96 95 95 100 90 69
91 91 71 74 80 98 95 60 42 45 46 46 46 45 50 56 56 50 48 48 48 44 41 40 41 36 31 28 28 30 51 56 77 94 88 78 70 72 77 82 92 97 95 100 99 100 98 91 69
80 82 70 69 72 92 93 71 44 47 50 58 69 80 84 81 76 68 72 56 48 45 43 42 46 38 31 26 30 35 44 61 68 88 91 88 75 77 80 80 98 90 100 98 98 100 97 80 70

GFSSGP_700_rhum_021.txt.gz
RH
51 50 47 42 35 30 24 23 36 33 30 29 31 32 32 38 40 43 41 40 42 37 34 35 35 35 35 36 32 31 31 32 32 30 26 23 14 14 25 16 6 6 7 7 7 8 9 9 10
52 48 47 44 37 36 22 21 29 35 31 30 29 28 30 33 38 45 46 47 45 34 34 35 34 34 37 36 34 33 33 33 32 31 28 25 19 9 21 22 10 8 8 9 9 9 9 10 10
57 54 50 49 41 30 23 20 37 36 31 31 33 30 27 31 33 42 47 48 43 34 34 35 34 36 37 37 34 35 35 34 34 33 28 26 23 15 13 25 24 14 8 8 8 9 9 9 9
55 57 54 47 32 22 22 34 38 36 31 30 28 30 32 27 30 35 41 46 47 42 36 36 35 37 39 39 36 35 35 36 36 34 31 26 22 21 15 17 27 28 27 25 24 23 22 22 20
50 49 52 43 29 21 21 33 38 35 32 32 34 34 34 28 30 37 40 43 44 44 38 37 36 39 41 42 39 37 37 36 37 36 35 36 35 24 21 20 17 17 18 19 20 20 21 21 21
33 40 43 40 24 20 20 25 39 36 36 36 37 36 35 35 37 41 43 44 45 46 40 38 37 40 42 44 43 40 39 38 37 38 38 36 36 38 34 25 23 23 23 22 22 22 22 22 23
27 29 34 29 25 23 18 21 37 38 39 38 37 37 34 37 38 46 43 40 44 48 44 40 39 42 44 46 46 45 43 42 40 38 39 41 39 38 40 39 37 34 30 27 25 25 25 24 24
36 34 34 29 26 21 18 20 20 34 40 37 39 37 35 28 34 41 43 39 37 46 46 44 42 45 50 50 49 49 49 46 44 42 40 42 44 43 44 44 43 43 42 41 38 35 32 29 27
44 42 39 31 28 21 18 20 29 36 40 37 37 39 37 35 30 30 39 41 38 41 48 50 47 52 55 54 50 50 50 50 45 45 43 41 43 45 46 46 46 46 45 44 43 43 41 37 33
43 43 38 33 28 24 22 23 21 35 40 40 41 40 38 36 37 33 33 39 38 34 36 50 56 56 57 54 50 50 50 50 47 46 45 44 42 44 46 46 47 47 46 46 47 47 45 44 40
41 40 31 26 28 26 27 24 22 26 38 41 44 42 40 40 39 37 33 34 37 47 49 46 50 54 53 54 55 50 50 49 47 47 46 46 44 44 44 46 47 47 47 48 48 49 48 47 45
28 30 23 20 24 24 25 23 23 22 32 40 43 44 43 42 46 41 41 39 40 41 41 43 46 48 50 55 54 52 49 49 48 48 47 46 46 45 44 45 46 48 48 48 49 50 50 49 47
27 30 20 19 16 20 23 22 20 17 24 45 46 46 45 43 42 40 40 40 43 40 39 40 41 41 41 47 50 50 52 53 49 48 47 47 47 46 45 45 46 48 48 48 50 50 51 50 49
40 30 26 24 20 21 22 20 26 19 18 29 46 50 48 46 44 42 42 42 41 40 36 39 38 38 40 39 41 37 45 46 50 50 49 50 50 48 46 46 46 49 49 49 52 53 52 51 50
46 50 34 28 26 28 25 17 18 25 22 23 37 48 52 49 47 46 44 44 45 42 40 38 43 45 39 39 38 39 35 38 41 41 42 49 50 52 51 48 46 49 51 52 55 55 54 52 48
64 60 70 36 29 27 35 22 19 23 20 21 28 39 45 51 52 49 46 47 47 47 46 42 47 43 43 44 46 46 40 41 40 43 46 49 51 53 53 52 51 53 55 58 57 57 55 52 50
97 90 74 36 42 49 54 47 20 24 23 20 17 15 24 33 41 39 43 47 50 56 58 59 62 64 50 45 48 47 47 43 46 50 50 51 52 52 54 57 58 56 57 58 60 60 57 52 53
89 80 66 67 56 67 61 64 24 37 39 42 29 19 16 16 15 18 26 31 48 51 61 70 68 70 69 55 51 54 45 41 48 49 50 56 54 55 55 54 55 57 60 62 65 65 60 56 57
67 63 70 59 51 61 63 71 46 30 46 35 32 27 24 21 19 23 25 22 22 27 33 55 68 69 75 71 67 57 46 54 50 49 51 57 54 59 59 61 64 63 65 65 69 66 62 59 61
84 84 76 69 70 77 64 53 42 33 34 36 36 34 27 25 24 26 32 37 32 21 20 34 49 63 68 73 78 75 70 60 58 58 57 59 55 59 57 56 61 63 62 62 70 69 65 62 67
99 91 82 82 70 71 67 56 39 32 31 24 16 14 13 13 15 15 14 17 26 34 32 30 36 39 50 65 72 74 76 69 61 60 52 52 59 60 58 54 54 57 58 68 75 73 69 68 74
90 82 83 80 79 73 59 64 30 21 15 13 12 12 16 15 18 15 14 12 14 17 25 30 44 49 47 49 47 56 68 73 63 56 66 61 62 67 65 60 59 57 58 75 83 75 75 73 83
90 84 82 76 64 65 46 57 23 14 10 14 14 17 22 20 17 16 18 16 16 18 21 25 29 45 59 60 64 61 67 73 75 74 74 73 71 73 73 70 66 61 62 89 88 86 81 91 85
91 87 78 64 64 78 52 56 20 16 18 19 19 20 23 25 24 23 21 21 20 21 21 21 21 24 50 57 64 66 65 70 73 77 76 75 76 78 74 71 72 68 67 84 100 100 92 99 92
86 84 59 68 88 76 59 69 20 21 26 29 26 25 27 28 30 31 30 28 28 27 27 26 24 22 24 29 50 68 68 67 69 73 84 80 84 78 76 71 71 70 69 73 100 98 100 92 98
82 76 50 57 82 83 61 66 26 21 27 27 28 31 32 32 33 35 34 33 34 34 33 32 32 31 28 23 30 50 64 69 69 70 78 88 90 83 80 78 69 76 72 80 100 99 100 100 99
75 82 68 69 90 88 55 36 22 25 30 32 35 38 38 37 37 38 36 36 36 38 38 36 32 35 40 39 34 38 52 63 66 68 75 84 96 96 85 81 74 81 78 86 97 86 100 97 100
83 71 78 70 65 82 61 56 33 34 40 45 45 44 44 45 44 42 42 39 38 42 44 42 42 40 43 42 41 42 40 41 49 60 67 76 86 91 90 85 80 86 80 82 94 90 100 99 99
88 89 74 68 71 89 96 51 38 44 44 50 58 70 80 78 79 77 73 57 47 49 54 54 56 49 44 46 44 38 35 32 35 34 55 71 73 77 93 90 95 94 84 87 93 94 100 100 100
86 72 68 60 80 92 96 65 44 48 53 58 85 88 79 79 77 68 72 68 66 64 62 60 54 49 48 49 48 37 30 26 31 30 37 57 68 74 88 93 86 83 86 90 94 100 96 100 100

GFSSGP_700_rhum_024.txt.gz
RH
54 51 49 45 39 34 28 23 37 36 32 34 34 32 32 37 42 41 41 40 39 37 33 35 35 36 36 36 34 31 32 33 32 30 28 25 17 15 23 14 7 6 8 8 8 9 9 10 10
56 54 52 49 42 39 27 21 34 37 32 32 31 31 33 33 39 43 39 41 40 39 34 35 35 35 37 36 35 34 34 34 34 32 27 25 21 12 18 23 14 8 8 9 9 10 10 10 11
59 58 57 55 47 34 27 21 33 36 32 34 34 32 29 30 36 43 46 46 48 42 33 35 35 35 38 38 35 35 36 36 37 33 30 25 22 18 14 24 25 19 12 9 9 9 10 12 13
65 63 63 56 38 26 24 25 33 37 33 35 33 29 30 31 28 33 41 49 48 39 34 35 35 36 38 39 36 36 36 37 38 38 35 34 30 22 19 15 19 24 25 25 23 22 20 19 18
67 67 67 56 37 25 23 36 38 37 34 33 33 33 34 32 29 28 32 37 48 47 38 36 36 37 40 40 39 37 37 39 39 38 38 36 34 35 25 22 22 21 20 20 20 21 22 22 22
57 63 64 57 32 25 23 28 36 37 36 36 35 37 36 34 30 27 38 39 37 46 42 38 36 37 43 43 43 40 39 40 40 39 39 39 40 37 38 37 33 28 26 24 24 24 24 24 24
38 47 55 45 31 28 23 22 24 33 38 38 39 37 36 34 36 35 41 40 41 41 44 40 38 38 44 45 46 44 44 43 41 41 40 42 42 42 42 43 41 42 41 41 39 36 32 29 26
31 32 41 36 29 25 24 24 22 32 37 39 38 38 33 35 32 36 44 43 39 42 46 44 41 39 44 48 49 48 49 49 46 43 41 42 44 44 45 45 45 45 45 44 43 42 42 39 34
40 33 31 28 25 26 25 25 21 22 34 38 39 37 38 37 34 33 35 44 40 35 37 48 44 42 45 53 54 51 51 50 50 46 45 43 43 45 46 46 47 46 46 46 47 47 47 45 43
49 43 36 32 30 30 29 28 23 19 19 29 38 37 37 38 38 36 34 34 41 39 40 44 49 47 48 55 57 55 51 51 50 48 46 46 44 44 46 46 47 47 47 47 48 48 49 49 48
47 46 46 38 35 33 32 30 26 22 19 27 40 41 40 41 40 38 38 36 39 50 42 36 36 51 55 56 58 56 51 51 51 49 47 47 46 45 44 46 47 47 48 48 49 50 49 50 49
44 46 41 35 32 32 33 32 31 24 16 25 40 45 46 43 42 41 41 38 37 37 41 48 47 46 48 52 54 56 56 53 52 50 49 48 47 47 46 45 46 47 48 48 49 51 51 51 50
44 46 37 29 28 27 30 28 23 16 15 17 34 44 48 48 45 44 45 41 41 39 37 36 39 40 42 46 49 54 55 53 54 53 50 49 48 48 47 47 46 47 49 49 49 51 53 53 52
42 40 30 23 23 23 21 17 16 10 10 12 19 41 48 50 52 46 44 43 43 41 40 40 39 38 40 40 42 44 54 49 54 53 51 51 51 50 50 49 48 46 49 50 51 52 55 55 53
43 38 27 22 21 22 17 13 12 13 14 12 12 28 45 51 49 47 47 46 44 42 44 44 45 43 40 38 40 44 44 46 41 45 46 44 46 54 53 52 51 48 48 50 53 54 58 56 56
46 49 40 29 22 22 22 18 26 21 17 14 14 17 22 39 52 51 49 49 47 47 46 48 49 46 46 36 40 44 48 50 44 43 42 43 44 50 53 53 53 52 50 51 55 59 58 59 57
84 70 50 38 33 32 30 32 29 20 18 18 16 14 15 22 39 48 49 50 50 50 53 53 54 52 47 40 36 49 54 55 53 48 45 46 48 53 54 55 57 56 55 58 60 61 61 62 62
87 88 62 49 41 42 48 62 22 19 21 22 20 14 11 11 12 23 41 47 48 51 54 56 57 59 60 50 48 44 49 54 54 50 47 50 50 54 56 57 56 57 58 58 60 61 65 66 63
82 75 70 53 52 52 41 48 21 18 22 18 18 18 18 16 17 21 22 23 24 28 40 50 54 57 64 70 62 57 47 42 45 53 53 52 50 55 59 59 58 57 59 63 64 65 68 64 64
81 80 72 70 65 70 54 42 22 16 19 25 26 24 23 24 22 24 31 36 32 32 30 28 33 49 53 65 70 71 74 64 60 69 64 63 56 60 63 67 62 66 63 65 65 69 65 66 68
85 78 74 75 72 74 66 48 25 19 24 27 24 22 18 16 18 18 22 26 30 33 36 38 38 34 35 38 55 70 72 74 75 70 64 59 64 57 59 72 68 64 61 64 64 62 65 74 73
91 87 88 82 81 76 65 65 31 25 18 14 13 13 13 20 21 19 15 17 19 17 18 28 42 48 52 46 36 44 61 68 68 74 70 64 56 66 55 67 72 69 63 61 61 66 71 82 82
96 88 83 82 77 66 51 54 28 16 13 14 14 15 15 21 27 26 22 21 23 19 19 20 25 36 46 59 63 58 46 50 57 58 65 75 66 74 76 68 72 71 72 68 68 74 97 91 95
93 90 87 81 72 72 57 52 13 18 23 25 28 27 25 24 24 22 21 22 24 24 24 26 27 27 27 32 41 53 67 64 57 57 58 72 68 71 74 76 75 72 76 76 73 77 82 99 99
96 93 71 60 77 73 57 60 16 28 26 28 26 23 25 27 28 28 27 26 27 26 26 27 29 30 30 30 32 35 42 58 68 68 68 67 76 79 76 77 79 80 78 79 83 80 78 97 97
90 87 59 50 74 73 68 61 31 29 28 28 27 29 35 36 34 34 33 32 32 33 33 30 29 28 29 30 30 32 31 26 32 56 67 73 73 71 77 83 95 91 82 80 79 83 84 79 100
88 89 75 63 81 85 49 35 26 32 28 31 39 44 45 45 43 41 39 39 39 38 36 34 33 33 34 34 37 39 41 42 46 56 66 66 69 74 74 83 96 94 89 86 81 84 90 90 82
78 70 72 59 63 69 53 48 33 36 41 45 46 53 58 60 59 58 55 50 47 47 43 41 39 40 40 39 40 42 44 45 44 45 48 58 68 70 70 81 87 92 88 88 87 96 95 98 98
82 78 66 64 64 82 81 42 39 45 53 58 55 64 75 71 69 68 64 62 53 50 57 64 48 48 45 48 47 44 43 45 44 43 42 40 41 58 68 73 90 92 92 94 96 100 99 100 99
83 76 68 57 72 84 89 54 45 50 66 78 91 97 96 83 70 65 59 55 59 53 51 60 66 57 61 60 55 53 52 52 49 40 34 35 35 34 57 71 80 81 89 100 98 99 100 100 100

GFSSGP_700_rhum_030.txt.gz
RH
49 48 48 46 50 41 34 32 21 34 27 31 18 26 34 35 40 34 34 32 32 35 32 34 36 36 37 38 38 34 30 27 30 28 25 23 17 16 20 10 7 8 9 9 10 10 10 11 11
52 52 51 52 48 38 28 32 26 40 32 38 32 32 34 46 41 37 36 31 37 37 33 35 35 36 36 37 38 38 33 34 36 30 29 22 19 17 22 18 10 9 10 10 11 11 11 11 11
56 57 57 65 55 40 31 26 34 39 36 38 39 42 41 43 46 44 38 35 39 35 34 35 35 36 36 37 37 38 36 34 36 38 32 30 22 18 19 24 24 20 14 12 12 13 14 15 14
59 61 60 63 53 47 38 28 23 38 38 37 35 37 34 40 45 46 38 41 43 35 33 35 34 35 37 38 37 37 37 36 36 39 40 36 33 26 22 19 18 19 19 19 20 20 20 20 19
67 73 69 64 55 52 33 28 31 41 39 36 35 36 30 30 31 38 46 47 45 40 40 34 35 34 38 38 38 37 37 38 38 38 40 42 40 36 36 34 28 25 23 23 23 23 23 23 23
80 78 67 61 54 56 35 30 27 38 39 38 37 32 35 33 32 29 28 35 47 48 40 35 36 34 38 39 38 39 38 39 40 39 41 42 43 43 42 40 39 40 40 38 35 32 30 27 26
79 82 64 57 55 54 34 33 28 34 39 38 35 34 38 34 32 31 31 30 29 36 47 37 36 35 38 41 38 40 40 40 40 40 41 41 43 44 44 45 44 44 42 39 39 40 40 39 36
78 86 67 62 61 54 55 33 30 31 35 33 37 38 41 34 33 32 32 33 40 41 42 43 38 37 36 43 42 40 40 42 42 41 41 41 42 43 45 45 46 46 46 46 45 43 42 44 44
54 77 64 67 64 52 37 32 30 26 29 29 37 38 37 35 33 32 33 44 44 40 41 46 42 40 37 43 46 45 44 45 46 45 42 43 42 43 43 45 46 46 46 47 47 47 46 45 45
43 66 56 60 66 50 32 29 30 26 24 25 30 38 38 36 34 31 30 31 39 45 42 40 44 45 41 40 47 49 50 49 49 48 44 41 42 44 45 45 46 46 47 47 47 48 49 48 48
43 58 61 54 36 30 31 29 27 26 25 24 24 32 38 38 37 36 33 33 35 34 43 42 38 46 49 44 45 57 59 57 54 51 50 45 43 43 44 45 45 46 47 47 48 48 49 50 50
52 47 64 46 29 27 28 27 26 26 39 24 23 25 28 35 38 38 37 35 33 33 33 43 42 42 47 57 53 56 59 62 59 54 52 50 47 46 46 45 46 46 46 47 47 48 49 50 51
55 55 46 42 35 34 31 32 32 28 32 28 24 21 22 27 33 36 37 36 34 34 36 40 46 43 42 43 46 54 60 61 63 59 55 53 51 49 48 47 46 46 46 47 47 48 48 49 50
62 69 54 48 45 42 44 44 42 35 35 32 25 21 20 19 25 33 37 38 39 38 36 37 37 39 37 39 42 45 50 55 61 63 61 57 54 52 50 49 48 47 47 47 47 48 48 49 51
70 64 57 47 47 50 47 49 41 38 35 31 26 21 18 17 18 24 35 36 39 42 42 38 40 41 40 38 35 35 38 44 53 58 59 59 58 58 57 53 50 49 48 48 48 48 48 49 51
66 70 69 39 45 46 44 47 43 25 26 23 21 19 15 12 13 13 15 28 38 42 43 43 41 40 39 37 39 42 42 42 43 48 51 57 60 58 56 57 54 54 53 52 52 51 50 50 52
79 52 58 64 30 38 33 46 39 22 17 15 13 12 10 9 9 10 12 20 31 37 40 42 44 43 42 39 38 36 42 50 45 46 46 48 49 53 51 55 52 49 48 51 55 54 54 53 53
69 56 69 56 42 27 26 48 32 19 14 13 12 11 11 10 11 13 12 14 18 27 34 41 42 44 45 43 40 35 38 41 49 45 40 39 48 53 55 56 52 48 45 51 57 59 60 59 57
76 70 59 33 42 32 51 66 31 21 18 13 14 15 14 14 14 15 13 14 14 18 20 24 39 46 51 51 46 45 38 37 38 40 45 47 52 62 63 63 61 57 51 59 62 62 60 62 62
80 69 68 59 53 50 64 47 29 22 19 16 15 14 14 17 15 15 16 16 16 15 16 18 21 32 42 48 49 49 48 45 47 50 52 52 53 56 59 66 63 63 62 60 63 60 63 62 62
89 77 63 67 56 61 59 40 22 22 21 18 16 15 16 18 20 20 20 22 24 24 23 21 20 20 21 22 24 26 26 29 36 43 46 41 48 53 50 55 61 66 67 62 64 65 64 65 69
81 62 66 75 77 56 55 33 40 39 39 35 31 26 26 25 27 28 27 23 22 21 22 26 29 28 27 28 28 29 29 30 32 39 48 61 67 68 69 60 59 62 69 73 66 66 70 70 75
83 73 82 84 82 73 62 50 44 35 38 30 25 20 19 22 24 24 24 26 26 24 22 22 22 23 22 19 16 17 29 36 43 45 42 45 52 61 69 70 72 70 69 70 72 71 72 72 76
94 90 89 83 77 73 62 53 34 37 41 34 33 32 31 29 28 29 30 29 27 24 22 21 20 20 19 18 17 20 33 53 63 61 59 61 61 59 60 61 67 68 72 72 71 65 72 79 80
99 90 82 79 87 58 51 55 39 34 37 36 35 33 30 30 28 26 25 24 23 22 22 22 22 23 24 24 24 24 32 42 47 48 49 49 44 56 67 69 75 75 67 74 79 73 72 86 91
98 90 68 56 47 41 50 47 38 34 35 36 36 35 33 32 33 36 36 35 34 33 32 31 31 30 30 31 31 32 30 28 29 31 33 35 37 38 46 52 66 73 73 74 81 85 85 90 98
95 95 76 50 56 59 39 37 38 33 31 38 40 41 43 43 41 41 41 41 40 38 37 37 39 41 37 33 33 34 35 35 33 33 34 36 37 35 31 38 57 67 73 72 76 84 85 88 96
88 82 75 66 68 47 31 35 35 42 50 60 62 60 57 56 53 50 50 46 41 30 23 20 23 36 43 45 45 48 44 40 37 36 36 39 46 44 45 47 43 60 75 77 78 80 89 93 98
80 86 66 66 55 45 27 27 36 50 61 62 62 66 66 64 54 47 40 30 22 19 18 18 19 22 22 27 38 44 57 54 46 44 45 46 50 52 53 50 59 70 77 85 83 83 84 86 98
85 75 61 55 73 69 67 36 44 48 54 60 65 71 75 70 56 44 28 25 31 30 23 19 19 20 21 26 34 43 49 66 69 59 60 57 52 51 50 48 47 45 52 74 82 81 82 90 99

GFSSGP_700_rhum_033.txt.gz
RH
50 48 47 46 56 41 32 27 28 34 31 35 31 26 28 31 40 42 41 37 36 32 33 32 35 36 38 38 39 36 28 27 27 28 24 22 17 16 18 11 8 13 26 19 10 10 10 10 10
56 52 50 66 51 39 30 30 31 33 37 37 19 16 25 33 42 41 36 32 34 35 33 33 35 36 38 38 39 40 34 34 32 28 28 22 19 18 21 17 10 9 10 10 10 11 11 11 11
61 58 75 62 52 40 31 31 28 41 22 37 34 29 44 58 42 40 33 33 30 37 34 34 35 36 37 37 38 38 37 36 34 37 30 30 23 19 18 23 24 20 15 12 12 12 13 13 13
67 64 75 64 48 44 34 32 30 41 32 37 40 40 42 49 45 46 39 35 42 43 34 35 34 36 36 37 37 37 38 37 35 36 40 34 33 29 23 19 17 17 18 18 19 19 19 18 18
75 76 71 60 50 43 39 38 40 41 41 39 37 39 52 42 46 46 40 41 43 41 33 35 35 34 36 36 36 37 38 38 39 36 40 42 42 37 36 35 30 26 24 23 22 22 22 22 22
90 81 68 55 51 45 44 43 41 41 41 38 35 38 55 31 33 39 43 47 48 42 38 35 35 34 36 37 36 38 38 39 40 40 37 42 43 44 43 42 39 38 38 38 36 35 32 30 28
98 85 70 54 45 47 45 47 44 36 40 37 39 37 49 34 31 29 29 31 35 45 46 38 35 35 35 38 38 38 39 39 40 40 40 40 41 43 44 45 45 45 44 41 38 38 40 40 40
97 98 80 59 50 45 46 50 45 43 37 38 36 36 44 40 32 31 30 28 27 30 38 44 37 37 35 38 40 38 39 40 40 41 41 41 40 42 42 45 46 46 46 46 46 46 43 40 41
90 97 88 66 52 50 48 52 47 35 37 35 38 40 46 45 33 32 30 28 28 34 42 45 43 39 36 37 42 41 39 41 42 43 43 42 42 42 42 42 44 46 47 47 47 47 47 47 46
56 87 76 59 53 56 52 52 42 31 28 38 35 36 38 38 35 33 32 32 40 40 38 40 44 45 41 37 41 45 44 43 44 44 44 43 42 43 44 44 44 45 46 47 47 48 48 49 49
48 62 66 55 54 59 55 53 41 42 37 37 36 32 37 37 36 34 32 30 29 38 42 40 41 40 46 45 40 45 48 48 48 49 48 46 45 44 43 44 45 45 46 46 47 47 48 49 49
65 56 56 55 56 56 52 52 48 36 39 41 47 35 31 38 38 37 36 35 31 27 28 37 39 38 39 51 47 44 51 58 59 59 56 52 50 47 44 44 45 45 45 46 46 47 48 48 49
65 66 66 66 66 49 50 53 51 49 50 38 32 24 23 28 35 38 38 37 36 35 33 30 34 43 42 42 49 54 54 56 60 61 62 58 53 51 49 47 46 46 46 46 46 46 47 48 48
91 84 80 69 56 45 42 57 52 39 56 31 30 27 23 22 26 29 32 33 33 34 33 33 37 41 46 43 43 45 46 47 49 55 58 62 60 56 53 50 48 48 47 47 47 47 47 47 48
93 83 88 76 50 75 44 59 66 47 60 40 34 31 26 21 19 19 20 24 34 40 42 41 39 36 35 40 40 38 39 40 41 44 48 55 60 61 59 57 54 51 49 48 48 48 48 48 48
92 88 77 49 45 61 62 55 55 59 52 41 47 37 35 24 19 16 15 20 31 34 36 38 37 35 34 35 38 38 37 35 40 42 43 40 46 52 58 62 57 61 60 53 51 50 50 50 50
81 62 59 58 33 57 56 56 51 50 26 29 33 32 27 23 19 16 13 12 13 20 35 40 44 42 41 37 38 41 42 40 38 39 45 45 46 50 51 55 56 55 56 59 58 56 56 55 53
56 53 44 44 55 50 66 65 50 44 32 21 17 20 19 17 16 12 10 11 10 10 12 23 37 44 46 47 44 42 43 43 41 41 44 52 50 46 49 53 56 50 51 53 53 51 50 56 58
41 52 40 42 49 48 64 57 53 62 25 15 13 14 15 13 12 12 9 8 9 9 9 11 14 29 38 46 46 29 37 43 43 46 43 42 45 49 50 49 60 65 59 58 57 55 53 59 61
64 56 55 55 58 47 50 60 62 48 16 14 16 15 21 18 14 12 9 10 10 10 12 13 14 16 21 30 39 43 26 30 37 41 44 41 42 43 52 51 53 63 66 69 67 63 61 64 64
63 58 55 66 73 63 55 54 30 37 16 15 12 12 13 13 13 11 11 12 13 13 13 14 15 15 16 17 18 21 25 21 20 23 25 33 39 48 52 56 54 56 59 64 68 70 71 67 68
62 65 77 75 72 42 54 21 43 41 27 21 16 16 14 13 14 14 15 16 18 18 19 20 20 21 22 24 24 25 28 30 28 28 26 27 34 47 70 73 62 59 65 65 64 63 72 80 72
73 77 84 76 78 73 58 46 37 40 44 36 32 27 24 22 23 24 24 26 26 23 21 19 18 17 19 23 27 30 30 25 20 20 34 40 39 38 45 73 81 79 78 70 72 70 63 70 77
77 75 82 81 77 73 56 44 36 38 39 49 31 27 23 22 25 27 25 24 23 21 20 21 22 21 20 20 20 20 18 18 17 19 30 42 48 50 47 48 55 62 68 66 70 75 76 75 79
86 78 77 80 87 63 60 57 36 36 42 46 39 36 31 32 30 28 25 26 24 22 22 21 20 20 21 21 21 21 21 21 21 24 35 46 50 52 51 55 57 61 66 71 76 75 71 74 73
90 77 68 63 58 49 57 48 40 44 39 40 35 34 32 30 29 30 29 28 29 28 29 30 31 31 30 31 30 29 29 30 30 30 29 30 30 30 33 39 50 59 65 69 72 74 76 76 78
98 93 79 56 41 46 40 42 45 37 35 38 37 36 34 33 33 32 33 35 35 35 36 36 36 36 35 36 39 42 37 33 32 34 36 35 33 32 35 38 38 40 45 51 64 71 73 74 78
96 94 87 68 75 40 32 26 33 37 33 37 42 51 54 52 51 48 46 44 42 39 37 33 26 22 19 18 19 28 44 48 49 46 42 40 38 37 36 39 41 40 38 39 42 57 74 75 76
96 97 82 73 62 51 25 24 36 41 49 62 62 59 61 61 58 54 51 46 38 28 22 20 20 18 16 16 18 21 25 32 40 50 59 50 49 53 55 55 56 56 57 56 65 69 71 76 80
89 78 71 57 67 55 56 41 44 58 59 54 61 69 70 64 62 56 48 35 28 32 36 36 33 29 27 26 26 28 29 33 39 42 52 65 68 63 65 63 58 57 54 49 47 48 65 84 87

GFSSGP_700_rhum_036.txt.gz
RH
45 45 46 45 51 51 42 30 27 30 27 28 29 26 26 31 37 39 48 43 35 32 33 32 35 37 38 37 34 35 37 33 26 27 24 21 18 16 17 11 9 9 10 9 9 10 10 10 9
59 52 53 60 64 52 39 32 29 29 34 36 26 21 25 54 37 49 40 38 38 33 33 32 35 37 38 38 37 34 40 38 31 27 28 23 20 18 20 19 12 10 9 10 10 11 11 11 11
71 63 59 71 66 53 39 29 31 32 35 30 34 21 29 52 57 37 39 33 35 36 34 33 35 36 38 38 38 37 40 40 36 32 30 30 25 20 17 20 24 23 21 19 17 17 16 15 13
89 71 64 76 57 49 41 31 29 32 27 35 39 33 43 68 52 37 31 34 32 30 33 34 34 36 37 38 38 38 38 39 41 34 40 35 32 32 27 22 18 17 17 17 18 18 18 18 18
97 82 80 69 63 48 42 36 32 36 37 38 34 46 44 41 45 47 41 35 32 32 41 35 35 35 36 37 37 38 39 39 42 42 35 41 43 40 36 35 35 32 28 26 24 23 23 23 23
100 89 83 73 60 52 43 39 37 39 38 38 36 48 48 41 46 47 44 43 47 40 40 34 35 35 36 36 37 37 38 39 41 41 41 35 41 45 45 44 43 40 37 36 36 36 36 35 33
98 99 90 77 57 50 45 43 41 38 40 36 37 37 50 41 35 42 41 43 48 46 40 36 35 35 34 36 37 37 38 40 41 42 40 40 38 38 42 46 46 46 45 44 44 42 37 37 39
64 97 96 79 70 51 46 44 45 40 35 38 36 41 64 42 32 30 32 33 36 40 46 45 39 36 35 35 38 38 38 39 40 42 42 41 41 41 42 40 44 46 47 47 47 47 47 46 43
94 96 99 77 70 59 45 45 46 44 39 37 37 40 59 49 34 31 30 29 29 30 31 35 42 38 37 36 38 40 38 39 40 41 44 43 42 42 42 43 43 43 46 47 48 48 48 48 48
97 98 82 77 65 63 50 52 52 45 33 36 38 37 42 52 40 33 31 30 28 26 29 34 39 45 41 39 37 41 42 39 39 41 42 45 45 43 43 44 44 44 45 46 47 48 48 48 49
73 78 72 71 84 73 70 55 52 46 38 30 34 34 39 44 40 35 34 32 30 31 30 30 38 41 45 45 41 38 42 45 44 44 44 45 47 47 45 44 45 45 46 46 46 47 47 48 48
53 45 68 79 91 84 60 56 51 44 42 38 34 40 30 36 38 36 36 34 31 30 28 36 36 36 38 39 42 46 42 43 47 50 52 53 52 51 49 46 45 46 45 46 46 46 46 47 46
62 72 54 57 61 61 57 54 51 46 46 43 42 37 28 32 36 37 37 37 37 36 34 32 29 30 34 37 36 36 47 48 46 50 53 55 58 58 56 53 50 48 47 46 46 46 47 47 46
75 69 71 61 61 63 56 56 52 48 50 44 42 39 32 28 27 34 37 38 38 38 38 37 35 31 31 35 43 42 43 46 50 50 50 52 53 55 59 59 55 52 51 49 48 47 47 47 47
92 80 77 69 68 64 55 55 46 48 53 56 38 34 29 24 22 23 28 33 33 34 37 38 36 32 32 34 37 38 44 43 42 42 41 42 48 51 54 56 60 61 58 55 52 50 49 48 48
92 84 86 72 77 58 57 47 40 40 53 55 52 37 31 30 26 22 20 21 24 35 47 20 19 29 32 34 36 36 37 40 38 38 37 35 37 42 44 46 50 55 64 65 62 60 58 53 51
88 74 83 76 60 56 58 56 53 56 55 52 50 40 42 38 32 25 21 19 18 16 17 27 31 19 23 37 39 38 40 41 41 44 43 42 40 39 43 47 51 52 53 59 60 57 56 63 60
79 74 69 68 64 50 58 55 51 55 52 47 27 38 39 34 29 27 25 22 18 15 13 14 21 28 31 26 36 40 43 45 42 40 39 42 43 41 46 51 52 50 49 51 58 58 57 61 60
59 68 51 52 55 53 43 70 53 52 48 45 33 23 20 20 22 26 22 20 17 14 10 8 9 12 16 28 41 40 38 45 52 52 46 45 48 44 41 46 49 54 54 51 52 65 68 66 65
54 53 46 44 47 54 53 46 51 47 51 27 22 17 15 18 26 39 20 15 13 11 10 9 10 11 12 16 17 30 25 21 22 26 40 52 48 46 47 44 46 51 51 53 56 52 64 71 74
60 55 48 53 63 58 51 49 49 41 26 21 14 12 11 15 18 20 13 11 10 10 11 12 12 13 13 14 15 15 19 18 15 14 18 23 40 51 47 44 49 47 58 58 58 64 63 69 76
63 59 52 56 68 54 42 34 30 20 19 15 13 13 14 14 15 13 12 11 12 12 14 14 15 16 17 18 18 20 22 25 29 29 26 26 28 31 36 44 44 51 54 70 71 66 70 74 73
59 59 63 66 67 73 61 55 33 37 38 35 22 16 13 14 14 14 14 16 14 16 17 20 21 20 18 18 18 20 24 28 30 31 27 21 18 16 24 38 43 49 56 65 77 82 79 72 73
85 74 73 83 77 81 50 49 44 41 34 32 28 29 28 27 26 25 23 24 23 25 25 24 21 18 18 18 18 17 17 17 18 19 19 18 18 17 40 38 45 55 55 64 69 71 78 77 74
99 76 84 90 90 87 55 54 36 38 38 37 33 31 30 27 24 23 24 27 26 24 21 20 20 20 20 19 18 19 18 19 21 23 24 24 25 28 34 38 43 54 61 66 70 70 72 75 72
88 66 71 73 89 73 58 56 43 38 37 38 38 32 30 29 27 28 28 27 25 23 23 22 23 24 24 25 27 30 31 32 32 32 31 31 32 32 32 42 32 32 40 50 61 65 69 74 76
91 85 84 58 40 56 51 43 47 40 39 39 36 33 32 31 30 28 28 26 25 24 24 30 33 33 33 31 30 30 28 28 31 40 40 36 36 36 37 37 36 36 36 39 44 50 53 55 60
84 89 85 60 78 62 43 37 34 38 39 34 33 35 37 34 33 35 38 41 39 38 38 36 33 29 25 20 17 16 15 17 20 25 43 49 49 46 45 44 42 41 41 44 46 48 53 57 58
92 93 84 78 67 85 52 36 33 29 30 32 35 40 44 52 48 50 49 44 42 42 39 32 25 27 31 26 21 18 18 18 20 22 23 27 34 38 51 58 56 55 56 56 58 57 55 59 66
97 92 86 85 71 53 54 49 43 37 42 56 53 54 57 54 60 60 56 51 42 37 31 27 32 34 36 36 32 31 34 39 45 47 42 41 42 45 50 58 69 70 67 65 60 57 68 82 68

GFSSGP_700_rhum_039.txt.gz
RH
43 45 46 44 43 46 37 30 32 27 27 22 23 23 27 29 32 36 45 41 31 33 33 34 35 37 38 38 37 30 34 32 25 26 24 21 18 17 17 12 9 8 9 9 9 10 10 10 9
45 47 50 54 55 62 40 28 34 27 26 24 24 24 27 28 32 42 46 43 33 32 34 33 35 38 39 38 38 40 32 34 30 25 27 24 20 18 20 21 18 12 9 10 10 10 10 11 11
55 55 60 58 62 57 40 34 32 29 27 26 23 23 27 30 36 44 40 39 38 33 33 33 35 38 39 39 38 38 40 35 34 25 26 28 27 22 19 17 19 22 23 22 21 20 19 18 17
67 70 67 72 65 40 41 42 30 28 29 30 32 23 32 40 33 39 42 32 37 36 33 34 34 36 38 38 38 38 38 40 36 37 28 31 30 31 30 27 24 21 19 18 18 18 18 18 18
86 93 79 70 57 37 49 42 32 30 28 24 39 34 43 54 48 40 36 36 32 32 34 34 34 36 36 38 38 39 39 40 40 38 39 33 37 38 35 33 32 33 33 33 31 30 27 25 24
93 99 96 70 56 47 54 40 43 36 38 35 40 51 43 39 38 45 37 30 24 26 38 37 35 35 36 36 37 38 39 40 41 41 42 41 33 37 42 44 42 40 38 36 35 33 32 34 34
84 96 94 87 63 51 50 43 41 39 38 38 39 55 54 49 48 50 45 41 40 42 44 41 35 35 35 36 36 37 38 40 41 42 42 42 42 40 39 40 46 47 47 46 46 45 43 40 35
92 83 99 86 66 51 49 52 44 40 40 38 37 53 54 41 37 46 43 41 43 47 44 38 35 35 36 35 37 36 37 39 41 41 42 43 42 43 43 43 43 42 46 48 48 48 48 49 48
100 92 95 80 73 49 61 61 45 44 36 38 39 38 49 50 35 40 43 40 39 41 44 47 45 41 37 36 35 38 38 38 40 41 42 44 44 44 43 44 44 44 44 44 46 48 49 49 50
100 97 74 68 63 66 63 73 52 46 37 40 39 38 60 58 40 33 33 32 30 33 32 30 37 41 42 39 37 36 39 40 38 39 40 42 44 45 44 44 44 45 45 46 46 46 46 48 48
91 75 70 61 76 96 89 77 58 51 46 39 38 38 43 60 51 45 36 33 31 29 26 23 23 34 38 45 43 40 38 41 43 40 40 42 44 45 45 45 44 45 45 46 46 47 47 46 44
86 71 72 76 97 98 90 77 72 54 47 36 37 30 36 51 42 40 39 34 32 30 29 27 24 24 30 37 43 45 46 42 40 45 47 47 49 51 52 51 49 47 45 45 46 46 47 47 46
59 78 68 78 88 85 95 90 60 52 46 42 38 34 27 33 39 39 37 37 35 33 33 33 31 28 26 24 30 34 36 42 47 45 47 54 58 59 58 58 58 55 51 48 45 46 47 47 47
49 71 73 70 91 77 83 94 71 49 49 46 50 42 37 32 29 35 37 38 37 37 38 37 37 37 34 26 24 26 31 36 39 43 50 51 50 50 49 51 55 59 60 56 53 50 48 48 48
84 58 75 83 72 74 70 69 66 49 46 45 45 47 44 40 30 29 33 38 38 38 39 39 39 37 32 26 29 29 33 32 33 38 40 40 40 39 39 39 42 47 54 59 59 59 59 57 54
88 72 78 80 74 70 63 54 48 54 50 42 36 40 43 41 32 26 24 25 28 31 34 34 34 34 24 22 31 33 37 37 37 37 38 38 38 37 35 35 35 40 42 46 52 58 62 62 61
98 83 84 74 72 66 50 42 40 40 42 38 41 35 33 30 29 29 28 26 24 25 22 22 20 17 18 26 30 35 41 40 41 39 40 44 44 41 43 43 39 36 44 45 51 56 55 52 53
70 74 78 69 73 72 50 42 51 48 46 42 42 38 34 33 31 32 32 31 27 22 20 22 17 13 12 13 21 32 37 36 40 44 45 45 45 46 48 46 48 46 46 54 53 52 55 52 56
66 75 67 67 70 62 44 43 43 48 54 49 45 40 34 37 39 37 36 33 28 28 24 20 17 16 12 10 10 12 19 33 45 48 46 49 49 47 43 47 51 53 49 47 49 51 57 56 62
71 61 60 61 63 65 58 53 38 48 48 40 39 40 34 28 30 28 27 26 24 23 23 21 17 14 12 11 11 10 10 10 13 20 34 40 41 40 38 38 42 49 51 54 55 57 58 56 61
69 63 60 58 74 75 64 58 47 37 38 40 34 30 28 24 18 18 18 16 15 16 17 15 13 12 12 13 14 14 14 13 13 14 16 19 25 32 36 33 42 39 46 47 56 64 62 65 64
65 60 56 56 61 63 58 51 27 24 27 30 24 19 18 18 16 14 14 13 13 16 14 13 13 13 14 14 15 16 17 18 20 20 21 21 25 29 33 40 40 43 48 45 47 54 57 61 68
66 61 59 55 57 58 62 53 30 23 27 26 24 16 15 15 18 18 16 13 12 14 14 13 14 16 18 19 20 18 18 19 20 22 23 21 18 18 20 22 23 31 41 52 52 52 55 59 88
70 64 65 66 64 74 59 60 39 24 13 24 25 27 25 18 15 16 17 16 16 16 17 18 20 21 20 20 19 18 18 17 16 16 17 17 17 17 16 16 18 31 45 46 56 65 67 69 99
86 65 88 88 90 88 55 55 48 39 36 36 35 31 26 24 22 21 24 24 25 24 25 24 22 21 20 18 17 15 14 15 16 19 20 22 24 26 28 28 39 32 52 45 38 48 56 64 72
92 69 66 87 96 82 58 62 43 28 37 35 36 34 30 29 27 26 24 23 24 22 22 21 19 18 18 18 18 19 22 25 27 28 31 36 37 36 35 34 33 33 34 34 34 34 36 40 46
88 83 75 78 54 69 56 53 48 42 39 36 36 35 32 29 29 29 27 26 26 24 23 20 19 19 20 25 30 31 31 29 28 27 25 24 25 30 36 41 40 39 40 41 41 40 38 37 41
87 87 94 82 89 70 57 46 34 40 40 39 38 38 34 31 32 30 30 29 28 28 28 29 31 31 32 31 26 20 18 18 16 14 14 14 15 16 19 31 45 50 51 52 51 51 49 48 51
98 98 90 76 72 87 57 41 36 35 32 36 38 40 38 33 31 40 48 44 40 39 37 35 36 35 31 24 25 29 28 23 20 21 24 31 33 32 32 36 40 44 51 56 61 64 65 64 56
98 95 83 76 74 61 60 49 36 31 34 40 40 39 41 46 50 60 56 48 43 42 41 38 35 31 26 26 31 32 32 29 31 34 37 45 46 41 41 42 43 48 51 48 60 72 70 67 65

GFSSGP_700_rhum_042.txt.gz
RH
47 43 43 42 40 38 25 27 32 29 22 23 25 23 27 35 42 42 43 34 35 34 35 37 36 38 39 40 40 35 25 28 22 24 23 20 18 17 17 13 9 9 9 10 10 10 10 9 8
44 45 45 46 48 46 24 34 34 30 25 24 24 22 26 33 35 34 42 37 34 34 33 36 37 39 38 38 40 42 39 26 23 24 26 24 20 18 19 21 20 15 11 10 10 10 10 11 11
57 45 47 53 53 44 30 35 36 30 27 24 24 24 24 28 34 37 44 35 34 34 34 34 36 39 39 38 39 40 41 39 29 28 24 26 27 25 21 18 17 18 20 20 20 20 19 18 18
71 55 51 56 53 40 42 41 37 31 30 29 23 24 23 27 31 42 42 41 33 33 34 34 35 38 39 39 39 39 40 41 38 33 33 25 26 27 29 29 28 26 25 24 23 22 21 21 21
75 80 64 60 49 41 50 46 38 31 31 28 23 23 26 25 27 31 41 35 38 34 34 35 35 36 37 39 39 40 40 41 41 41 38 36 31 26 30 30 30 31 32 32 33 33 33 33 33
84 82 80 65 46 47 51 48 40 34 30 29 25 25 36 37 25 27 34 37 35 36 34 34 35 36 36 37 38 39 40 41 42 41 41 41 38 41 38 30 33 38 38 37 36 34 31 30 30
84 85 92 79 55 49 55 51 42 39 31 39 40 42 39 41 30 32 26 28 32 27 35 34 35 35 36 36 37 38 38 40 42 42 41 43 43 42 43 44 42 37 38 42 43 43 43 42 42
90 76 74 87 75 54 57 47 44 41 38 39 39 56 48 43 35 36 47 42 36 35 39 46 37 36 35 35 36 36 37 39 41 42 43 42 42 43 43 44 44 44 43 43 43 45 46 47 46
100 95 100 83 78 66 68 64 44 44 40 39 39 39 50 48 46 46 47 44 45 43 44 41 37 36 36 36 35 36 37 37 39 41 42 43 44 44 44 44 45 46 46 46 46 46 46 45 43
99 86 83 62 64 76 76 76 51 44 41 39 39 40 44 53 41 44 47 44 38 40 44 46 46 44 40 38 37 36 37 39 38 38 40 41 42 44 45 44 44 44 45 46 46 47 47 47 46
92 63 76 65 83 83 94 76 68 54 48 38 36 40 48 57 56 50 41 40 34 31 30 28 27 32 38 42 43 41 39 38 40 41 39 39 41 43 44 45 45 44 44 45 45 46 47 47 48
92 80 79 78 90 91 95 98 70 60 53 48 42 39 40 61 62 52 47 39 36 31 29 27 26 25 27 32 41 44 46 44 41 42 45 45 44 46 49 51 52 52 50 47 45 45 45 46 47
89 77 98 100 96 98 92 92 84 60 53 48 43 37 37 45 54 50 47 42 37 33 32 30 30 29 25 25 27 29 33 38 43 47 46 46 49 55 61 63 62 62 61 60 55 51 48 47 47
79 99 92 90 99 98 97 85 86 68 56 50 41 36 32 32 40 41 40 38 37 38 35 34 36 36 36 32 27 25 23 25 31 36 45 50 52 53 53 51 49 49 52 58 63 64 63 60 54
76 91 92 85 85 91 99 96 98 63 62 55 46 41 39 36 32 32 37 39 39 39 39 38 38 38 37 35 32 23 20 26 34 38 38 39 41 42 41 38 34 33 34 37 42 46 53 61 68
76 68 82 72 70 81 81 63 87 68 62 56 50 49 47 46 39 36 31 33 36 40 40 40 40 39 38 36 32 20 19 23 28 30 33 40 39 38 38 38 38 34 34 33 32 36 40 42 48
91 65 69 68 70 78 73 59 85 77 66 58 49 44 45 48 45 42 33 26 24 27 31 33 35 35 36 34 28 23 27 24 28 34 37 39 37 40 43 43 40 43 43 40 38 38 46 50 48
51 61 52 65 75 77 72 61 59 52 49 51 55 52 38 39 39 38 37 32 29 25 22 21 20 20 21 21 18 16 16 20 30 34 37 40 42 44 46 47 52 52 50 49 50 46 47 50 53
69 80 75 78 74 72 71 67 55 52 48 40 39 37 31 32 34 33 31 35 37 34 31 30 26 23 20 18 17 16 15 19 25 32 37 41 47 45 44 51 50 42 41 44 46 56 55 60 62
73 80 75 66 67 74 69 57 45 52 49 45 40 39 40 39 37 37 36 38 36 35 36 34 31 27 25 22 19 15 12 11 12 14 16 18 21 26 31 37 37 35 36 42 46 50 50 65 70
81 68 73 66 65 75 70 64 57 40 48 48 43 41 36 37 34 30 34 40 38 35 29 26 26 27 24 20 17 13 11 10 10 12 14 15 18 21 34 55 30 27 24 27 36 46 58 62 64
84 72 67 64 63 77 76 66 43 38 36 42 40 40 38 34 32 32 26 22 21 19 17 17 21 21 19 16 14 14 14 14 14 14 15 17 21 24 27 32 34 36 35 33 34 39 48 47 49
73 67 62 62 64 69 64 66 48 34 26 25 27 27 29 30 27 23 21 20 17 16 17 19 18 16 14 15 15 15 16 17 18 19 18 17 17 16 18 23 25 27 26 25 30 31 35 32 47
65 65 70 74 69 69 58 58 44 31 21 19 18 22 25 25 27 24 17 14 14 16 17 16 15 16 17 17 18 17 18 18 18 17 16 15 14 14 14 15 17 19 21 32 55 69 57 54 53
73 69 80 85 84 80 56 62 49 29 25 22 19 22 25 28 28 24 21 19 16 15 16 18 19 19 20 20 20 19 18 17 15 14 14 15 16 18 21 24 26 29 30 31 51 32 37 36 36
75 66 65 83 98 80 61 58 38 20 21 33 38 39 40 36 29 25 25 25 24 24 23 23 22 20 20 18 17 15 14 14 14 15 20 25 28 31 34 35 36 38 38 38 36 36 36 38 38
81 71 68 72 70 75 54 39 30 25 18 20 37 35 33 30 28 30 29 26 25 24 22 21 19 19 18 18 17 16 18 22 26 26 27 26 25 24 22 20 27 41 46 44 43 44 45 44 46
85 79 81 79 85 74 57 55 40 25 19 27 32 34 35 34 30 26 27 28 27 25 23 22 20 20 22 25 27 29 30 27 21 19 19 16 14 14 14 18 23 28 36 46 49 48 48 46 48
93 94 86 79 82 87 72 48 42 37 32 30 32 38 40 39 32 30 32 30 28 29 31 31 29 28 30 32 33 32 27 22 26 27 25 21 20 24 32 37 37 36 39 40 40 39 42 49 52
91 88 83 83 92 73 67 53 36 33 35 36 40 44 52 44 35 34 44 47 46 47 46 43 37 34 33 33 32 28 24 28 31 31 29 30 34 37 44 48 43 38 34 34 35 37 38 44 48

GFSSGP_700_rhum_045.txt.gz
RH
27 30 35 40 35 36 23 22 16 16 26 28 27 25 30 41 44 42 42 34 37 37 35 36 39 40 40 40 40 37 22 20 20 23 22 20 18 18 18 12 9 10 10 10 10 10 10 10 10
43 42 44 42 47 42 25 21 28 24 20 24 25 25 24 38 46 43 41 36 36 36 37 38 39 39 40 40 40 40 38 26 22 22 24 24 21 18 17 20 21 20 17 15 13 12 12 12 11
44 46 47 49 50 45 27 24 36 32 30 28 25 24 23 36 38 38 39 38 37 36 34 36 38 40 40 40 40 41 40 39 32 27 24 24 26 27 26 22 19 18 18 18 18 18 18 17 17
59 48 50 52 48 39 47 34 36 33 32 29 26 24 23 26 38 43 41 37 36 35 34 34 37 40 40 40 39 40 41 41 40 37 29 31 26 26 28 29 30 30 30 30 30 29 29 28 27
74 66 59 53 47 38 50 48 37 36 37 31 28 25 23 24 36 43 41 34 33 34 34 34 35 38 40 40 39 40 41 41 41 40 40 36 34 39 32 28 31 32 32 32 31 29 29 29 29
90 72 69 60 46 40 50 55 42 39 37 34 29 25 24 24 25 38 41 41 38 33 34 35 35 36 38 39 39 40 41 42 42 42 41 41 42 41 43 45 40 32 30 31 33 35 37 39 39
98 85 77 66 47 44 49 54 45 39 38 33 30 28 21 26 23 28 38 40 38 38 34 34 35 36 36 37 38 38 39 41 42 42 42 42 42 42 43 44 45 45 44 43 41 36 33 32 35
95 99 90 77 58 47 49 57 52 43 43 37 34 44 29 27 26 24 27 33 35 35 32 34 35 36 36 36 36 37 38 39 41 42 42 42 44 44 44 44 45 46 46 46 45 45 44 42 40
94 100 95 70 56 47 49 58 60 47 42 42 40 41 48 39 35 27 22 26 25 31 30 32 37 36 36 36 36 36 36 37 39 41 43 43 44 44 45 45 45 46 47 47 48 48 48 47 46
99 100 79 62 54 48 54 63 64 48 42 41 45 39 46 46 47 41 45 47 44 44 45 45 45 38 36 36 36 36 36 37 37 38 39 41 42 43 44 44 45 45 45 45 46 46 47 48 48
100 95 83 80 66 57 56 74 74 53 44 44 54 39 39 50 49 47 51 48 43 44 44 44 43 42 42 42 40 39 38 38 39 40 40 39 39 40 42 43 44 45 45 45 45 45 45 45 46
77 99 91 93 75 72 65 82 86 66 53 47 52 65 43 45 52 43 46 47 38 33 32 30 29 30 34 39 42 44 45 45 42 40 42 43 42 41 43 46 50 54 56 57 55 52 49 47 46
96 86 98 88 82 97 83 85 92 68 57 49 45 59 50 47 59 54 53 42 38 35 33 32 29 27 26 26 28 30 36 40 42 46 47 46 47 50 55 60 62 62 61 61 64 64 64 62 58
88 100 99 100 90 99 96 94 98 64 58 52 48 49 47 42 48 56 51 46 41 36 34 33 31 32 33 33 30 29 28 26 25 32 38 42 48 53 55 56 53 50 46 43 43 45 49 54 59
89 96 98 98 96 97 100 100 96 78 64 54 58 60 42 40 42 49 46 47 42 38 38 36 34 35 35 37 37 36 33 25 22 33 42 41 41 40 42 44 43 38 36 35 32 31 32 35 41
83 100 98 95 89 97 99 83 97 96 78 77 71 74 53 40 34 35 38 40 41 40 39 39 37 37 38 38 39 38 34 26 20 24 32 38 39 44 42 37 38 39 41 38 32 35 36 32 36
90 72 98 82 80 71 82 64 69 99 78 75 79 67 59 47 43 40 37 36 35 38 40 40 39 39 39 39 39 37 34 26 20 22 26 34 37 41 40 37 37 41 42 43 46 44 45 45 43
63 56 78 78 70 81 80 80 66 90 74 65 62 59 55 52 51 47 44 40 32 28 28 31 33 33 32 32 31 29 26 19 16 18 22 30 33 35 37 39 45 50 53 50 49 43 40 48 53
60 77 80 82 81 80 83 86 62 79 89 67 58 56 58 55 52 44 44 43 39 36 29 26 25 24 24 22 21 20 20 20 18 17 18 20 29 40 40 46 44 42 37 38 38 41 48 56 64
68 77 73 79 72 77 83 84 63 84 74 68 52 44 45 54 53 42 38 39 40 35 30 30 32 31 30 30 29 27 24 21 19 16 13 13 15 17 22 24 43 44 41 40 40 32 34 38 51
81 56 66 62 76 84 84 80 73 45 54 60 52 48 45 47 42 38 37 38 39 36 36 36 35 36 35 32 29 26 24 21 18 15 13 13 14 15 20 20 19 20 22 27 26 26 29 47 40
85 81 76 71 70 81 81 81 53 48 45 46 48 45 44 43 41 37 37 34 35 38 37 34 32 26 22 22 23 22 18 16 14 12 12 13 16 18 21 23 25 28 31 34 36 37 36 36 41
80 78 78 76 65 68 75 75 54 44 31 32 32 37 42 44 42 41 38 36 36 33 28 25 22 18 17 16 16 15 15 14 14 14 14 16 19 19 18 19 20 24 27 29 26 22 21 32 41
76 75 68 67 74 80 68 70 55 39 23 26 20 24 33 38 37 38 37 35 27 24 24 22 18 16 16 15 13 13 14 15 17 19 20 19 18 18 18 17 17 18 20 22 25 27 31 39 78
87 74 91 89 89 87 63 62 46 31 27 24 23 20 20 25 29 32 35 32 29 25 20 17 16 16 14 14 16 17 19 19 20 20 19 17 16 16 18 19 22 24 28 30 36 34 36 38 36
97 80 72 86 97 79 62 59 42 29 25 23 21 18 17 22 23 29 32 30 30 26 19 16 17 18 19 21 21 21 21 19 17 16 16 16 18 23 28 32 33 34 38 40 37 36 36 39 40
86 80 67 62 73 77 58 49 36 31 28 23 17 25 20 20 30 36 39 33 27 26 25 24 23 23 22 21 19 18 17 16 16 15 18 24 27 28 27 25 26 26 25 26 27 30 35 39 42
77 74 74 69 80 81 60 55 41 33 27 26 21 15 25 30 36 36 32 31 31 29 26 24 23 22 22 20 19 18 18 20 23 26 28 24 20 23 19 17 16 17 21 25 29 33 36 40 42
87 84 78 73 72 78 79 48 37 35 36 29 27 26 32 35 35 34 33 32 31 29 28 28 27 25 24 24 24 24 27 30 31 30 24 23 27 27 27 25 26 35 41 43 40 40 40 39 38
95 85 83 76 90 81 74 60 45 41 33 33 37 38 41 44 42 39 34 33 33 36 40 40 39 36 35 35 35 34 33 33 32 26 24 29 33 34 34 36 39 42 45 42 28 27 28 28 25

GFSSGP_700_rhum_048.txt.gz
RH
31 28 27 32 32 32 27 22 20 23 27 28 32 29 28 32 42 39 40 34 37 35 35 32 38 40 40 40 38 32 21 19 21 24 22 20 18 18 19 16 13 12 11 11 11 11 11 12 12
37 28 32 36 34 37 28 21 17 18 23 25 26 27 26 37 37 42 40 34 38 38 35 32 37 40 40 40 40 40 38 29 22 21 23 24 24 21 18 18 19 19 19 19 18 18 18 18 18
52 38 40 43 42 38 27 22 20 26 27 30 27 26 26 30 45 44 41 37 39 38 38 36 37 40 40 40 41 41 40 40 35 25 26 24 25 26 27 28 28 28 27 26 25 24 24 24 24
53 50 44 45 44 32 31 31 25 36 33 33 28 26 26 27 39 47 40 38 38 36 36 36 37 40 40 40 40 41 41 41 40 40 30 34 36 28 27 28 29 29 28 28 28 28 29 31 32
74 54 47 50 48 35 37 44 37 38 36 33 30 27 24 30 33 40 40 36 37 35 34 35 36 39 40 40 40 41 42 42 42 41 41 39 35 44 43 38 32 30 30 30 31 32 31 31 32
86 60 49 50 43 38 37 55 49 42 38 36 32 30 27 26 34 41 42 34 34 35 34 34 35 37 40 40 40 41 42 43 43 43 42 42 42 41 43 45 46 45 46 46 42 35 31 29 31
89 62 54 46 42 38 39 53 52 42 41 39 38 33 28 26 34 45 42 34 34 34 35 35 35 36 38 39 40 40 41 42 43 43 43 44 43 43 43 44 45 46 46 47 48 48 49 47 44
100 84 73 61 45 39 41 49 59 44 39 38 38 40 29 25 26 30 42 41 41 35 34 35 36 36 36 37 38 38 39 40 42 43 43 43 44 45 44 45 45 46 47 47 48 48 47 47 46
100 100 95 71 50 45 39 52 61 50 42 42 42 42 34 32 25 28 28 39 39 38 37 35 35 36 36 36 36 37 38 38 39 41 42 43 44 44 45 46 46 47 47 47 47 48 48 49 49
98 99 94 81 66 50 45 52 63 54 44 47 48 51 51 46 39 33 29 29 29 32 35 33 34 35 36 36 36 36 36 36 37 37 39 41 42 43 43 43 44 44 45 46 46 46 45 46 46
100 90 88 78 78 64 63 58 69 55 44 47 50 48 55 64 56 47 46 48 51 44 36 36 40 43 39 36 36 37 37 37 38 39 39 38 39 40 40 41 43 44 44 46 48 49 50 49 49
83 99 96 86 86 69 67 68 68 67 52 50 49 50 54 60 58 53 50 56 50 51 49 47 45 42 40 40 42 42 42 42 41 40 41 42 42 41 41 42 44 49 56 61 64 63 62 60 60
99 82 72 99 100 90 82 77 81 81 62 58 53 56 58 59 63 59 54 54 44 38 35 34 34 36 36 35 34 35 38 41 43 44 46 47 46 47 49 52 58 64 63 60 58 56 54 54 56
86 99 95 90 98 93 98 84 80 76 72 53 60 56 59 60 65 69 53 47 44 38 35 33 32 30 29 27 26 26 25 25 25 25 30 38 44 49 54 56 57 56 52 47 42 37 34 33 33
92 96 99 98 97 99 99 85 74 69 86 63 50 56 62 60 59 62 64 52 45 39 37 34 33 31 32 34 35 35 35 34 32 26 23 28 38 44 44 44 44 46 43 39 38 39 38 34 36
98 97 100 92 100 98 97 78 85 76 96 70 58 59 54 60 53 55 56 51 48 44 40 38 38 36 35 36 38 38 39 39 36 32 20 23 30 36 37 42 46 42 40 38 41 42 40 45 44
99 89 96 93 86 83 87 87 82 85 96 77 88 68 62 60 48 44 39 44 45 43 41 40 40 39 39 39 40 40 39 38 38 34 25 25 30 33 35 37 40 42 42 42 45 48 53 51 46
96 84 79 77 77 82 77 65 68 74 96 78 95 79 75 68 61 52 45 40 38 37 37 38 36 36 39 41 42 42 42 36 35 30 24 24 24 24 25 29 33 36 44 51 58 55 50 43 36
61 65 74 95 81 75 76 68 72 83 85 98 80 72 65 61 59 56 52 50 47 43 38 34 29 27 28 28 27 26 24 23 22 22 22 22 21 19 18 20 34 42 43 44 36 32 34 41 44
72 65 68 77 80 80 81 78 87 77 69 86 71 65 62 59 58 56 53 52 46 42 42 39 36 32 30 31 31 31 30 30 29 27 24 23 20 16 13 20 22 24 25 34 51 36 32 28 32
88 75 72 66 80 86 79 84 80 65 59 75 85 68 58 49 48 51 55 56 49 40 36 34 34 34 35 36 36 35 33 31 27 25 25 22 19 15 15 23 17 19 19 20 22 25 28 32 31
75 78 70 69 76 88 86 88 63 57 48 53 51 75 42 42 42 42 44 44 42 38 35 35 35 35 36 36 33 25 21 19 18 18 18 17 15 15 14 16 19 21 22 23 28 34 34 32 30
89 85 83 76 82 83 82 86 65 52 41 29 41 34 40 48 46 45 44 46 44 39 36 33 32 31 31 28 21 18 17 16 15 13 13 13 14 16 17 18 18 18 18 19 21 27 21 21 21
82 82 85 76 71 82 70 72 55 43 29 29 28 30 38 46 47 48 48 45 43 41 37 34 32 30 27 24 21 16 15 14 13 13 14 15 16 18 19 19 19 19 18 18 20 22 24 30 51
85 76 88 89 90 90 71 71 55 44 42 37 31 27 23 25 35 42 45 44 42 43 42 40 34 28 22 17 15 14 14 13 14 16 18 18 20 20 18 17 17 18 20 23 29 34 49 80 84
97 79 71 87 96 82 61 68 47 38 28 24 24 24 27 26 22 29 40 43 41 42 40 38 33 28 23 18 16 16 16 17 19 21 21 20 18 18 18 21 26 30 32 34 37 38 45 55 42
91 88 74 62 76 79 60 49 32 28 27 26 24 23 20 21 21 21 30 35 40 44 39 34 30 25 22 23 23 22 20 20 19 18 17 17 18 22 29 29 24 22 21 21 22 24 25 26 32
82 77 84 72 81 83 60 54 40 29 31 32 27 27 23 18 25 24 31 38 43 42 36 31 28 27 26 24 23 22 21 20 18 18 20 24 29 30 27 24 27 26 21 19 20 25 33 37 37
87 85 80 72 66 80 74 48 38 37 38 37 32 30 26 24 31 40 42 39 34 32 32 30 29 28 26 24 23 22 24 23 24 24 26 31 31 28 25 30 31 31 31 33 39 44 47 44 38
88 83 78 72 87 79 78 60 43 40 42 41 33 31 34 40 42 40 40 38 36 33 31 30 31 33 33 33 32 30 32 31 31 30 29 31 30 25 28 33 38 38 43 46 49 50 35 28 28

GFSSGP_700_rhum_051.txt.gz
RH
47 43 42 43 37 33 27 24 25 26 31 30 35 31 43 44 45 35 41 34 34 35 34 33 38 40 40 39 35 28 19 19 22 23 22 19 18 18 19 19 18 17 14 13 12 12 12 12 12
42 39 34 39 38 35 30 23 21 22 26 28 29 32 29 28 38 41 40 34 36 34 32 32 39 40 41 41 40 39 32 20 20 20 22 25 25 23 20 20 19 19 18 18 18 18 18 18 19
38 33 33 37 41 34 28 24 21 20 20 28 27 29 28 27 38 38 41 34 39 36 33 33 39 40 41 41 41 41 40 36 26 26 26 24 25 26 27 28 28 28 28 28 28 28 28 29 30
45 42 38 37 38 34 28 25 21 21 26 22 27 27 28 27 41 39 40 35 40 38 37 36 38 40 41 41 41 42 42 41 40 38 30 41 40 33 29 28 27 27 27 26 27 27 27 26 27
59 54 50 37 38 32 30 29 22 27 33 41 32 33 28 27 33 45 43 35 39 38 38 37 37 40 41 41 41 42 42 43 42 42 41 36 34 44 45 45 46 43 41 36 32 30 31 31 32
80 63 59 42 35 31 29 38 33 37 37 37 32 30 28 31 32 43 46 34 36 37 38 38 36 39 41 40 41 41 42 43 43 44 43 43 43 42 40 44 46 47 48 48 48 48 47 44 42
88 76 65 48 36 34 29 44 50 47 41 36 33 31 29 33 28 36 43 34 34 35 35 36 37 38 40 41 40 41 42 43 43 43 44 44 43 44 44 45 45 46 47 48 48 49 49 49 48
91 85 70 58 42 37 35 37 53 53 44 40 36 34 32 33 36 37 45 36 35 34 34 35 35 36 38 39 40 40 40 42 43 43 43 44 45 46 46 46 46 47 47 47 48 48 49 49 49
100 89 85 68 53 40 34 38 45 57 44 43 41 38 34 30 38 43 45 41 35 35 35 35 35 36 36 36 38 38 39 40 40 42 43 43 44 44 45 46 46 47 48 48 47 47 48 48 48
90 97 99 89 70 54 42 47 46 58 45 48 47 43 39 48 45 44 36 42 41 40 36 35 35 36 36 36 36 37 37 37 38 38 40 41 42 43 43 43 43 44 44 45 47 48 48 49 50
100 97 91 99 84 82 51 55 54 59 47 60 58 52 48 55 50 45 42 40 45 41 40 38 36 35 36 37 37 36 36 36 36 37 38 38 39 40 40 41 42 42 43 44 47 52 55 54 55
89 73 90 99 96 87 63 54 60 65 52 54 62 54 52 56 52 51 52 52 38 37 34 36 38 36 38 38 36 36 37 38 38 39 40 41 41 40 40 40 41 43 48 57 63 64 63 61 58
86 99 86 99 98 90 78 61 60 63 59 60 57 52 54 54 61 59 58 61 58 54 52 50 49 48 44 39 38 41 43 44 45 46 46 46 47 46 47 48 52 56 61 62 58 56 52 46 39
76 85 84 95 97 97 81 70 73 56 70 60 66 63 60 58 60 66 64 63 63 50 45 45 45 45 44 43 40 37 36 32 30 29 28 30 36 43 48 52 55 56 55 52 48 43 39 36 35
85 89 92 94 85 82 99 86 53 54 68 62 64 74 63 64 63 65 68 65 68 59 42 38 36 33 30 28 28 28 29 31 33 32 31 27 23 29 38 42 43 44 42 44 42 39 37 38 39
85 95 96 96 92 94 98 84 65 60 62 70 74 74 68 61 62 67 75 68 65 59 41 40 36 34 32 33 34 35 36 37 38 38 36 33 21 23 29 34 39 44 47 43 41 39 38 40 44
79 90 97 99 96 94 78 59 72 70 80 71 78 76 73 63 59 62 68 71 69 66 49 40 37 37 36 35 36 38 38 39 40 40 40 39 33 27 28 32 36 41 43 41 39 39 42 47 54
94 98 92 100 99 99 96 78 82 71 78 63 71 79 70 59 55 56 57 56 55 52 48 44 41 41 41 40 40 40 40 42 42 42 40 36 29 24 23 24 28 34 35 38 42 46 50 55 46
86 96 89 100 93 90 88 81 81 68 76 68 81 77 64 58 57 52 46 48 44 40 39 39 39 38 36 36 39 40 40 37 32 29 26 24 25 25 24 21 17 17 19 27 30 33 37 28 50
65 86 86 97 86 85 85 75 66 69 56 55 58 74 68 64 62 61 56 52 51 48 46 43 41 38 36 33 28 28 27 27 28 30 30 30 28 27 25 23 19 16 21 22 25 34 32 31 25
72 59 76 69 72 82 85 76 66 65 50 55 54 85 70 66 62 61 58 56 53 53 53 47 40 37 35 33 32 32 31 31 32 31 28 25 23 22 22 21 20 30 27 24 20 20 31 23 22
91 78 60 57 72 94 82 84 51 52 49 48 40 75 73 61 60 61 58 54 53 53 54 47 40 38 37 37 36 36 36 34 27 21 17 16 17 16 16 16 16 16 16 18 20 21 21 21 20
74 82 75 66 82 85 89 86 64 46 40 32 37 55 70 68 58 50 45 43 42 43 42 39 38 38 39 38 38 35 32 26 21 18 16 15 13 13 13 13 14 16 18 18 19 20 20 20 19
71 81 82 77 74 90 79 82 65 53 38 38 35 36 52 80 80 66 46 44 45 43 41 39 38 40 39 37 35 31 26 23 19 15 13 12 12 12 13 14 16 18 19 20 20 19 19 20 23
90 90 95 92 90 85 72 75 68 53 51 46 39 37 40 44 58 59 51 45 46 46 46 45 45 44 43 38 30 25 20 16 14 13 12 12 14 16 17 18 19 19 17 17 18 21 26 31 41
88 76 69 93 93 79 68 73 49 37 33 35 33 35 32 33 44 38 41 42 43 48 49 47 44 42 39 35 31 24 20 15 12 12 14 15 17 18 18 17 16 16 18 24 30 32 34 37 37
86 81 69 66 78 76 62 59 39 30 34 35 32 25 26 26 26 30 27 28 37 45 49 51 46 41 37 30 25 21 17 14 15 17 18 17 17 17 17 18 20 26 28 24 26 23 20 19 21
84 77 76 73 83 79 61 52 32 37 40 39 36 32 27 26 23 25 24 24 28 41 48 43 42 39 34 29 24 21 20 20 19 18 18 17 16 17 20 27 30 28 25 28 28 27 26 29 37
87 87 85 72 70 73 67 42 39 38 40 38 34 33 30 27 25 21 25 30 36 41 41 44 40 35 32 30 27 26 24 22 21 20 19 19 21 25 28 32 31 27 32 34 35 36 39 45 49
88 77 79 72 82 76 76 56 40 40 41 35 42 40 30 32 28 35 46 50 53 46 38 36 33 32 30 29 27 26 27 28 30 29 28 29 30 32 33 32 25 27 34 38 43 48 52 48 29

GFSSGP_700_rhum_054.txt.gz
RH
49 49 46 43 43 41 32 34 27 27 33 38 35 42 56 50 41 37 36 31 33 35 32 36 38 37 36 32 20 18 20 22 23 21 18 17 18 18 19 18 16 13 12 11 11 11 12 12 13
50 47 50 45 44 38 32 35 24 26 29 32 35 31 50 49 42 39 37 33 34 34 32 36 40 40 40 40 37 24 21 21 22 24 24 24 24 22 20 19 19 18 18 18 18 18 18 19 21
48 43 42 49 45 35 27 29 24 24 34 29 31 32 29 34 41 43 38 35 35 33 30 35 39 41 41 41 41 40 34 26 26 24 24 25 26 26 27 27 28 28 28 28 28 28 29 29 30
44 42 41 47 43 41 40 28 23 22 21 38 27 27 30 28 31 38 38 36 35 33 31 35 38 40 41 41 41 41 41 40 35 28 36 36 33 29 29 28 28 29 29 29 28 28 28 29 30
49 53 60 53 42 49 35 28 24 22 20 21 28 28 29 29 32 42 40 35 37 36 35 35 36 39 41 41 42 42 42 42 42 40 36 32 41 45 46 46 46 46 46 43 40 38 38 38 37
76 71 56 51 49 43 34 30 27 24 22 22 31 32 29 29 30 44 38 36 38 37 38 38 37 37 40 41 42 42 43 43 43 43 42 42 43 41 37 43 46 47 48 48 48 48 48 47 46
94 74 61 51 54 42 34 30 41 31 28 35 31 34 34 36 31 47 39 35 37 38 39 39 39 39 40 40 41 42 42 43 43 44 44 44 44 44 45 46 44 45 46 47 48 49 49 49 49
98 86 80 68 66 51 36 32 45 49 39 34 36 33 31 33 38 46 45 35 35 36 38 38 39 40 40 40 40 41 42 43 43 43 44 44 45 46 46 46 46 46 48 47 47 47 48 48 48
100 93 84 80 68 59 38 40 47 53 45 38 35 32 30 35 34 39 48 37 34 34 35 36 37 38 39 39 40 40 40 41 42 43 43 43 44 44 45 45 46 46 47 48 48 48 47 47 48
98 82 86 90 71 57 48 43 46 55 48 43 40 36 32 31 42 54 51 38 36 34 34 34 35 35 36 36 37 39 39 39 39 40 41 42 42 43 43 43 43 44 44 44 45 47 50 51 51
89 86 96 88 79 66 62 58 55 55 52 45 44 40 36 32 42 41 51 56 52 41 36 35 35 35 36 36 36 36 38 37 37 37 37 38 39 40 40 41 41 41 42 43 45 49 56 60 57
87 90 97 86 78 92 72 61 62 60 62 55 52 50 46 44 37 37 40 46 48 53 48 43 37 36 36 37 37 37 36 36 36 37 37 38 39 39 39 40 40 41 42 45 52 60 61 56 54
89 90 95 96 91 86 85 62 62 70 63 64 67 65 55 50 48 45 43 42 39 43 43 43 42 40 39 38 38 37 36 37 38 39 40 42 44 44 44 45 45 48 53 57 60 57 54 49 41
97 99 98 99 96 98 89 92 73 59 70 68 69 67 58 58 56 56 48 47 50 56 53 49 45 47 45 45 40 37 37 41 44 46 44 39 35 37 41 46 50 53 55 55 52 46 43 40 37
67 73 81 81 84 80 99 91 86 66 61 71 72 68 65 59 61 61 56 61 67 66 63 59 51 49 47 42 41 44 44 41 32 27 28 29 30 26 24 30 40 43 42 39 38 40 39 37 37
72 88 90 77 77 81 96 73 69 74 61 66 69 73 76 73 62 58 60 67 68 68 59 57 48 47 45 43 38 32 28 29 32 36 37 38 38 35 24 24 32 34 32 32 34 38 38 39 41
95 80 94 90 92 90 86 90 99 75 70 55 65 70 82 88 76 63 63 66 68 70 60 54 50 44 37 33 33 33 34 36 38 39 40 42 42 41 36 27 28 31 29 29 34 39 42 42 45
65 66 89 96 93 96 89 99 73 80 82 66 59 66 74 87 78 64 64 70 68 70 64 56 51 44 40 37 36 36 37 39 40 41 42 43 42 39 31 27 24 26 25 27 29 33 36 48 54
66 73 87 93 86 97 92 98 66 76 72 65 63 65 69 77 88 66 64 68 75 73 70 61 58 53 46 47 45 43 42 41 41 40 40 37 32 26 24 24 24 25 23 22 24 23 23 29 30
88 75 73 94 97 97 98 81 67 64 66 59 62 69 70 66 79 65 61 59 59 56 53 48 46 44 41 39 35 33 32 33 32 29 27 27 28 30 30 30 28 27 25 27 32 28 32 33 28
81 73 75 73 92 86 91 89 68 58 56 46 50 57 65 64 70 74 58 52 51 50 47 45 44 44 44 44 42 38 36 33 31 32 34 33 32 30 26 22 21 21 23 25 25 30 40 38 34
78 75 84 83 73 62 75 41 62 54 41 31 43 54 55 66 63 73 65 60 57 52 52 49 47 46 42 39 37 34 34 33 33 32 31 29 24 18 15 14 14 14 15 16 17 18 20 21 21
83 56 79 75 65 75 79 68 40 47 32 45 34 44 42 61 71 73 66 63 60 54 52 50 49 47 40 38 35 34 34 35 35 32 29 24 19 16 13 12 12 13 14 16 18 19 20 21 22
73 84 85 84 74 70 61 65 45 54 55 36 29 33 43 76 78 70 65 62 60 56 54 50 49 46 40 36 38 40 37 34 33 29 24 22 19 15 13 13 13 14 15 17 19 20 20 18 18
73 70 82 78 82 60 69 72 49 52 47 50 46 39 38 68 81 82 73 63 50 47 44 43 42 42 42 40 38 37 36 32 27 24 20 16 14 13 12 12 13 14 16 18 18 16 17 19 25
80 58 57 62 62 50 69 66 48 37 38 36 40 43 36 34 54 54 74 83 61 51 51 45 49 50 48 48 46 44 40 35 32 27 22 17 14 13 14 16 17 17 16 15 16 17 24 26 23
98 87 68 68 68 62 51 59 39 32 34 34 34 33 33 34 38 40 55 58 57 75 59 49 53 55 53 51 47 41 36 32 27 23 19 16 17 17 17 17 16 16 16 18 23 26 24 25 25
79 84 72 72 74 53 45 48 30 41 41 41 37 35 32 28 26 27 33 40 45 43 47 46 49 54 55 54 46 38 33 28 24 20 19 18 19 18 17 17 17 18 22 28 29 25 27 30 30
88 89 79 71 70 51 38 30 36 42 40 42 37 39 35 31 32 28 25 28 29 28 30 44 54 57 56 46 42 36 31 27 24 22 21 20 19 18 18 19 22 24 29 31 27 29 34 36 39
91 84 78 66 75 73 64 40 39 41 43 40 36 35 32 42 34 31 26 22 26 31 38 54 57 56 49 42 34 30 28 26 23 22 21 22 23 24 26 27 29 29 32 30 26 32 40 43 44

GFSSGP_700_rhum_057.txt.gz
RH
48 49 48 45 51 38 36 34 33 46 38 39 43 54 48 46 40 54 34 30 32 30 28 24 21 20 16 17 19 22 22 20 19 18 18 18 18 18 16 13 11 10 10 10 10 11 12 13 15
50 49 51 57 48 32 32 33 38 42 38 39 40 50 52 62 44 39 34 32 35 30 32 32 33 34 31 21 19 20 22 24 24 24 23 22 21 20 19 18 18 17 17 17 17 18 19 21 24
51 48 53 59 44 28 27 32 35 44 49 34 34 44 57 64 43 41 33 33 35 32 35 37 38 39 39 38 36 27 23 23 22 24 25 26 27 27 28 28 28 27 28 28 28 29 29 29 28
47 46 57 58 40 30 27 35 36 46 43 46 36 46 46 47 44 42 33 33 35 32 35 37 39 40 40 40 41 40 38 28 26 30 28 27 26 27 27 27 27 26 26 26 27 28 29 28 28
56 74 57 51 44 35 33 50 51 39 37 46 39 68 32 30 33 41 34 34 35 32 35 38 37 40 40 41 41 42 42 41 39 31 30 38 42 44 45 46 46 44 43 43 43 44 44 45 45
68 75 57 47 43 38 46 50 28 38 39 47 51 58 39 30 29 42 35 35 35 33 35 39 37 39 40 41 42 42 42 43 42 42 41 38 39 37 41 45 47 47 48 48 48 48 48 48 48
92 76 59 48 44 45 59 47 46 44 43 34 52 67 53 30 30 47 35 36 36 36 36 39 39 38 40 41 42 42 42 43 43 43 44 44 44 44 44 44 43 42 43 46 47 48 49 49 49
99 89 68 52 47 62 71 42 37 43 53 36 30 85 60 35 30 48 37 36 37 37 37 39 40 40 40 40 41 42 42 42 43 44 44 44 45 45 46 46 46 47 48 48 47 47 47 47 48
100 99 90 72 56 72 66 42 40 45 34 28 39 38 32 33 34 36 41 35 36 37 38 41 39 40 41 41 41 41 42 43 43 43 43 44 44 44 45 45 46 46 47 47 48 48 48 49 50
97 97 86 84 75 76 57 56 39 45 46 42 38 41 33 36 40 42 48 35 35 35 38 42 42 38 39 40 40 40 41 41 41 41 42 42 43 43 43 44 44 43 43 44 44 45 46 49 54
96 96 84 91 81 92 65 48 42 55 77 82 43 38 34 34 39 43 50 40 37 34 37 40 42 40 38 38 39 39 40 39 39 38 38 39 40 40 40 40 41 41 41 41 42 44 49 57 59
99 98 95 100 95 80 80 56 60 71 77 51 47 41 38 38 39 54 57 49 49 44 38 35 35 38 37 37 36 37 38 38 37 37 36 37 37 38 38 39 40 40 40 42 44 50 56 58 54
99 97 91 90 100 96 81 66 67 68 61 58 51 53 43 42 41 51 53 57 58 56 49 44 41 37 37 38 36 36 36 36 36 36 36 38 39 41 42 43 44 44 45 48 52 56 56 51 44
99 98 94 99 98 86 86 78 71 70 68 67 64 67 61 53 43 42 43 44 47 48 53 53 51 48 42 39 38 39 38 37 36 37 38 43 45 41 36 37 41 44 47 50 50 49 44 41 40
91 85 99 95 97 95 93 90 74 68 84 75 73 70 72 64 50 53 45 45 45 45 54 58 48 44 46 46 44 42 39 37 37 42 45 34 27 28 30 27 23 30 36 39 38 38 38 40 40
98 90 98 82 83 99 82 76 71 76 81 81 72 79 71 69 67 60 53 49 49 49 48 52 46 44 48 46 51 44 39 40 45 39 28 33 37 38 38 36 31 24 25 28 31 32 32 33 36
89 93 95 85 91 94 54 70 83 78 82 61 66 70 78 73 71 68 64 56 52 59 60 60 55 55 51 49 45 43 45 41 30 32 37 39 40 40 40 40 38 34 27 24 26 26 26 26 33
62 46 64 77 97 99 66 69 90 84 78 75 61 66 80 76 78 73 66 68 65 63 66 62 54 52 52 48 44 39 35 33 36 38 40 40 40 41 42 41 37 32 28 26 26 29 36 40 37
49 43 57 68 93 95 69 82 94 89 88 77 78 58 66 74 76 82 77 73 72 70 71 66 56 51 49 46 42 38 38 39 41 41 41 41 41 41 37 30 25 26 27 29 29 32 33 35 36
46 48 66 90 90 94 96 98 94 88 82 74 76 71 72 71 76 76 78 73 72 74 68 70 60 54 51 46 47 48 46 45 43 43 41 40 34 29 28 29 32 32 34 33 34 34 36 37 43
60 48 52 78 89 93 87 90 76 85 82 79 60 59 64 68 74 80 77 71 71 75 76 73 70 62 58 55 53 46 43 38 34 31 29 29 30 32 33 33 31 27 24 20 20 21 26 26 24
59 58 67 70 79 68 76 45 55 68 74 50 56 52 57 62 75 83 68 70 67 66 66 65 58 50 46 43 42 41 42 40 38 37 35 34 33 33 33 30 23 17 14 14 13 14 16 18 20
65 70 72 68 64 44 64 58 38 50 56 60 70 57 72 54 70 84 92 70 68 66 56 53 51 47 48 48 45 42 39 37 34 34 35 35 33 31 29 25 21 18 14 12 12 13 16 18 20
69 72 72 68 55 57 56 51 36 35 49 50 53 58 63 65 50 78 79 69 70 70 59 64 57 50 50 49 49 43 41 40 43 44 37 34 31 28 23 20 17 14 13 12 13 15 18 20 20
75 68 65 65 75 58 56 47 40 44 44 49 46 50 45 65 61 57 61 77 74 71 64 59 55 54 54 59 53 46 44 44 42 38 36 33 29 25 24 20 14 12 13 14 16 18 19 18 18
78 56 51 53 52 44 59 54 41 47 43 37 37 41 42 37 38 62 75 75 72 65 64 61 58 63 66 71 54 45 42 43 45 44 42 37 33 29 25 20 14 13 15 16 16 17 16 18 21
75 62 67 62 53 46 46 45 44 41 34 28 28 29 34 36 41 43 61 79 74 71 72 69 63 60 57 56 53 50 50 49 48 45 38 33 29 25 22 17 15 16 17 17 17 17 20 25 28
84 80 63 70 66 41 37 34 29 39 44 43 37 35 33 30 30 35 41 44 58 56 67 75 78 75 65 60 58 56 54 53 50 42 32 27 24 22 19 18 17 18 18 16 18 22 28 30 29
92 89 79 67 63 52 30 27 36 46 50 46 39 37 36 35 32 29 26 28 30 38 45 52 71 73 79 78 66 61 54 50 43 33 30 27 24 22 20 19 19 19 19 21 24 29 34 32 30
88 73 70 60 68 55 54 41 36 47 42 42 41 38 35 31 31 35 31 29 28 31 36 40 54 71 74 68 63 62 56 46 39 31 26 23 22 21 21 22 24 25 27 28 32 35 35 31 33

GFSSGP_700_rhum_060.txt.gz
RH
50 48 47 46 44 42 42 37 40 49 41 52 51 53 60 54 43 45 35 28 31 25 18 12 12 13 13 15 16 17 18 17 17 17 17 17 15 12 10 10 9 9 9 9 10 11 12 16 18
52 52 52 50 57 52 36 36 36 48 46 43 42 53 60 52 50 42 31 30 32 26 23 19 18 15 13 14 15 17 20 20 20 19 18 18 18 17 17 17 16 15 15 16 17 18 21 24 27
54 51 54 51 53 51 33 34 36 38 44 43 44 63 69 61 47 38 30 33 32 30 30 29 29 28 25 21 16 17 18 20 23 24 24 25 26 26 25 25 24 25 25 26 27 28 26 25 24
54 51 55 57 52 33 29 26 35 38 45 54 56 64 68 75 45 39 31 36 34 33 35 35 35 36 37 37 36 29 20 20 22 22 22 23 24 24 24 24 23 24 24 24 25 25 26 28 33
58 59 58 65 49 42 28 34 44 42 34 51 64 68 67 73 62 43 32 37 36 32 37 38 36 38 39 39 40 40 40 37 29 24 30 32 34 37 37 38 38 38 40 42 44 45 46 47 48
75 74 68 58 52 41 40 39 38 38 40 48 54 62 70 59 62 56 33 37 38 36 38 39 38 38 39 40 41 41 42 42 42 40 38 36 33 35 39 42 44 45 47 48 48 49 50 50 50
84 73 75 58 49 39 58 50 39 36 40 54 59 58 74 65 59 49 38 37 37 38 38 40 40 39 40 41 42 41 42 42 43 44 44 44 44 44 44 44 44 44 43 42 42 44 46 47 48
87 79 81 63 50 45 66 57 38 42 44 40 57 72 66 65 70 56 40 47 37 36 39 40 41 40 40 40 41 42 42 42 43 44 44 44 45 46 46 47 47 48 48 49 48 49 49 49 50
93 97 91 68 53 54 68 61 44 48 50 47 42 51 77 60 71 63 48 48 41 36 39 40 41 41 41 41 42 42 42 42 43 43 44 44 44 44 45 46 46 46 46 47 47 47 48 49 51
97 100 88 69 63 74 69 62 46 49 45 42 34 41 53 70 63 70 60 46 44 37 38 40 41 41 41 41 42 42 42 42 43 42 42 42 42 43 43 43 44 43 43 43 43 44 45 46 52
92 91 84 87 85 86 78 67 47 54 60 70 35 32 45 50 69 74 65 58 45 38 40 42 42 40 40 41 41 42 42 41 40 40 40 39 39 40 40 40 40 40 41 41 41 42 45 51 57
96 98 95 89 97 90 79 61 55 76 68 39 36 32 42 45 53 72 58 59 61 59 37 44 45 43 40 39 39 40 41 40 40 39 38 37 37 37 38 39 40 41 42 43 43 45 50 54 54
97 89 99 94 83 95 93 81 63 78 76 51 49 41 42 44 42 61 66 53 57 58 38 40 44 43 43 40 37 37 38 38 38 37 37 36 37 38 41 42 41 42 41 42 46 48 48 45 40
92 83 86 100 98 99 89 84 68 61 58 62 56 56 49 49 41 52 62 65 58 50 52 42 41 39 37 37 38 39 37 37 37 37 37 37 38 43 42 26 25 25 24 27 32 32 33 33 31
99 83 93 99 98 89 98 74 55 59 69 69 67 64 62 62 50 45 56 64 63 60 60 55 51 50 47 42 40 38 39 39 38 38 37 38 45 30 29 32 34 32 28 21 20 22 23 25 27
78 98 99 99 87 99 83 80 76 65 59 59 64 76 74 72 62 48 46 48 54 50 48 55 55 54 51 50 46 44 43 41 40 38 38 46 30 33 35 37 37 38 37 34 29 24 24 23 21
86 79 97 98 96 100 81 78 70 72 68 60 60 69 77 75 74 57 50 52 51 51 55 53 46 49 50 44 42 45 48 47 41 40 45 30 35 36 37 38 40 42 41 36 28 26 25 25 31
96 86 88 97 91 89 88 64 79 68 58 64 61 62 68 73 69 80 64 53 54 58 52 55 52 49 46 43 47 50 50 43 44 44 32 35 37 37 38 39 41 40 36 27 27 28 31 32 32
72 65 67 66 90 92 91 57 84 84 79 67 68 62 62 61 72 68 72 73 65 64 58 59 59 61 58 55 51 48 48 47 40 34 36 38 39 40 37 37 36 28 26 30 33 36 36 35 38
60 64 81 81 97 83 92 86 82 69 76 73 65 74 63 64 62 72 64 75 79 71 67 65 65 66 59 53 52 50 47 43 43 43 41 42 42 40 34 29 27 29 32 32 32 30 28 23 23
80 58 86 74 77 95 97 95 84 64 65 63 79 74 78 60 64 74 72 63 75 74 70 70 69 70 62 55 52 48 45 47 51 56 46 38 33 30 29 29 30 30 32 30 25 19 17 15 14
53 46 61 62 70 82 68 60 50 48 48 47 78 79 74 76 73 70 72 65 61 73 69 72 71 71 69 60 55 57 61 59 58 52 39 38 36 34 33 33 32 32 32 28 23 20 17 14 14
57 63 95 71 74 65 76 68 43 51 54 40 67 61 64 65 69 71 72 73 62 65 73 72 76 78 75 73 65 61 58 48 43 42 41 38 36 36 37 36 33 30 27 24 20 16 14 14 14
65 70 74 66 62 69 55 58 45 50 45 50 60 62 56 40 50 62 72 81 74 62 64 71 69 68 65 56 48 49 50 48 48 43 41 40 41 41 36 34 31 26 23 22 17 14 13 14 15
59 64 74 82 79 81 52 53 45 46 46 40 37 53 55 61 63 53 85 81 86 77 68 72 72 67 56 54 61 70 62 64 60 48 45 44 41 38 38 38 34 31 28 23 18 14 15 17 18
70 54 62 67 81 66 52 52 47 43 44 44 47 43 42 49 60 62 46 55 68 66 85 74 75 69 61 64 72 76 64 64 66 57 51 45 45 44 41 38 34 30 26 21 16 15 17 17 18
74 69 67 60 49 60 53 44 45 45 38 35 34 32 34 38 39 43 53 41 36 69 82 73 76 75 63 61 63 61 64 70 76 68 56 49 47 46 42 35 28 25 22 19 17 17 18 18 18
72 73 67 59 69 46 44 39 38 42 46 44 38 36 34 34 31 32 38 40 35 68 81 74 69 80 78 75 65 63 64 62 57 54 55 54 51 44 36 26 24 23 21 20 19 19 19 21 23
83 79 67 61 59 84 55 41 38 42 46 44 39 38 37 37 36 37 34 33 37 40 58 80 77 70 57 73 93 90 80 73 70 65 60 56 50 36 30 26 23 21 20 20 22 24 25 26 32
89 82 69 67 65 56 53 45 42 42 43 46 44 42 50 36 34 36 32 34 34 30 29 30 41 69 64 76 82 84 74 82 85 84 71 51 42 31 25 23 22 24 28 31 31 34 38 36 36

GFSSGP_700_rhum_063.txt.gz
RH
55 52 50 47 43 40 36 40 49 64 66 58 50 62 62 58 49 44 38 27 28 19 14 14 14 14 15 16 16 15 14 15 15 14 12 10 9 8 8 10 10 9 9 10 11 14 17 20 23
58 54 51 51 48 44 38 33 39 48 66 50 51 62 69 67 58 43 31 30 25 18 12 11 11 12 13 14 15 16 16 15 15 15 16 17 16 16 14 12 12 12 14 16 18 21 25 26 24
58 60 54 57 49 50 40 33 48 48 58 63 53 66 88 68 59 39 29 32 25 21 18 15 13 12 12 14 15 17 18 19 20 19 21 21 21 21 20 19 19 20 22 25 26 24 23 23 24
63 70 55 57 48 39 32 32 34 49 53 55 55 69 92 73 49 33 30 31 30 28 27 25 22 22 21 18 15 16 18 18 19 19 20 21 22 22 22 22 22 22 22 23 24 26 32 40 44
77 75 61 53 44 35 38 48 42 42 43 42 55 70 86 94 76 35 33 34 35 34 34 33 31 32 34 34 35 32 27 21 19 22 23 24 24 25 26 27 29 31 35 39 43 45 47 49 50
88 83 66 55 46 34 44 46 44 40 39 39 45 58 76 94 81 56 37 37 39 38 38 37 35 36 38 39 39 39 40 40 39 36 33 31 30 30 32 34 37 39 40 42 44 47 47 48 48
87 89 63 53 49 42 62 50 44 40 43 53 53 61 62 76 89 73 41 39 40 41 40 39 38 38 39 40 40 40 40 41 42 42 42 42 42 42 42 43 43 45 47 47 48 48 48 49 50
84 94 72 59 57 55 49 49 42 43 56 54 53 57 60 67 89 96 86 56 40 40 41 40 40 39 39 39 40 41 41 41 42 43 43 43 44 45 46 47 47 48 48 49 49 49 50 50 50
89 100 81 70 57 59 55 50 49 43 43 52 58 63 56 63 74 93 86 68 59 41 41 41 41 41 40 41 41 42 42 42 42 43 44 43 43 44 45 46 46 46 45 45 45 46 46 46 48
99 99 77 73 69 59 58 52 55 49 48 44 49 73 66 74 68 76 90 72 71 47 41 41 42 42 41 42 43 43 42 42 42 42 42 42 42 43 42 43 42 43 43 42 42 43 44 45 49
97 99 80 74 80 76 67 62 55 52 50 44 43 44 59 66 61 68 80 92 74 66 55 40 41 42 42 42 42 43 43 43 42 42 41 39 40 40 40 40 40 40 41 42 42 43 44 47 51
98 92 89 81 95 84 74 68 54 53 48 41 38 30 30 56 59 62 58 70 97 82 80 42 44 41 41 42 42 42 42 42 42 41 40 39 38 37 38 39 41 41 40 40 42 43 46 51 46
100 99 95 90 98 90 78 70 57 62 61 58 45 30 26 44 50 71 71 70 72 78 72 52 45 44 43 41 41 41 41 40 39 39 39 38 37 37 38 42 40 29 27 26 28 28 24 28 27
97 88 97 98 93 97 78 78 60 79 74 81 60 40 30 36 46 62 78 71 73 92 82 69 55 48 46 45 43 40 39 38 38 37 38 38 37 38 40 39 25 29 30 28 23 19 18 19 19
95 93 95 97 98 94 89 69 89 86 84 77 60 48 44 44 50 49 65 72 80 75 71 65 58 49 46 42 40 39 39 40 39 38 38 38 37 39 45 27 31 31 33 34 33 30 26 22 19
100 99 99 95 98 97 89 75 86 84 75 75 66 53 44 61 53 51 49 63 72 75 69 66 61 53 46 43 42 40 41 41 40 39 40 38 38 44 30 32 33 34 36 36 35 32 26 23 23
100 99 96 99 90 100 93 85 78 68 63 60 54 66 53 46 73 59 56 60 55 61 62 61 62 61 60 58 54 49 51 47 47 46 42 39 42 38 33 34 34 35 36 34 30 25 24 26 30
71 70 83 87 95 100 96 78 76 69 65 60 55 52 58 52 51 72 79 69 58 59 51 50 47 46 52 51 51 48 46 43 48 49 41 44 43 32 36 36 36 36 36 31 26 27 30 30 30
73 79 65 74 85 96 96 89 72 56 54 58 57 55 64 51 60 59 73 78 72 63 66 64 58 57 54 49 46 47 48 52 51 43 46 47 35 38 39 40 40 36 30 27 29 30 30 29 24
67 68 62 67 91 98 99 89 69 73 56 60 57 50 57 58 63 64 55 66 72 72 72 69 62 64 60 60 59 56 55 52 52 55 49 40 40 43 43 42 33 28 28 30 31 31 30 26 21
91 74 60 58 72 95 92 89 72 70 66 60 63 56 55 60 59 62 56 49 60 69 74 69 71 67 64 62 63 57 54 54 56 49 44 44 47 47 40 34 32 33 33 32 31 32 29 26 23
80 72 68 76 96 91 90 78 54 43 53 66 61 52 53 76 72 61 63 60 55 60 64 69 63 68 71 67 68 60 57 60 58 53 52 57 52 39 39 39 38 36 33 32 30 28 26 22 18
65 64 63 76 70 69 72 85 41 48 51 53 52 62 67 61 75 63 62 64 64 66 65 60 68 71 72 77 78 75 75 73 63 63 61 57 50 43 42 40 39 38 37 33 31 27 24 24 20
76 73 98 98 90 73 72 76 42 45 46 40 50 58 54 47 60 70 64 69 71 73 67 62 63 73 68 71 77 83 78 78 79 65 55 52 51 44 42 41 43 39 36 34 33 30 29 25 19
88 71 98 96 78 77 61 61 51 50 50 47 49 60 57 63 66 53 57 67 68 70 69 71 63 65 73 75 74 78 77 71 66 61 59 64 63 51 48 43 40 41 42 39 36 32 28 24 18
71 58 62 85 93 73 55 53 46 48 46 45 44 41 54 56 60 62 52 50 65 74 81 79 73 78 72 79 76 66 55 57 64 68 73 76 90 85 58 58 46 45 44 40 33 28 26 22 18
67 68 60 55 55 63 52 46 51 48 45 44 42 37 34 43 58 61 62 63 58 61 65 73 64 81 83 78 76 62 59 65 75 84 87 72 73 73 70 58 49 47 43 35 27 24 22 21 19
71 72 65 59 63 58 59 47 43 50 42 33 31 31 30 32 36 40 46 47 50 44 49 48 71 85 70 76 83 86 82 74 68 76 74 65 63 59 58 58 52 45 34 28 26 23 21 21 22
76 71 62 60 63 84 58 45 45 46 38 39 38 40 41 41 40 39 38 39 38 37 40 47 68 83 72 69 78 92 88 82 86 77 70 69 65 68 66 54 47 34 29 24 23 23 24 23 29
75 73 70 62 61 57 54 48 46 41 41 43 43 52 58 57 42 37 39 36 33 32 34 32 38 74 84 76 76 80 81 75 70 88 90 80 89 80 80 84 70 32 26 26 28 29 29 31 32

GFSSGP_700_rhum_066.txt.gz
RH
59 55 48 46 51 56 39 51 43 52 64 61 54 62 63 57 39 48 37 26 24 18 15 17 17 17 16 15 15 13 12 11 10 8 7 7 11 28 44 51 45 27 12 10 13 17 21 24 24
63 66 50 52 48 48 43 38 50 59 71 63 58 58 70 72 47 45 34 28 22 16 14 16 16 15 16 15 15 15 15 16 15 14 12 10 9 9 10 10 10 11 15 18 21 24 24 22 20
72 73 56 60 51 43 40 39 56 48 70 69 73 83 70 60 53 32 30 30 20 14 12 13 14 14 15 16 16 15 16 16 16 16 16 16 16 16 16 17 18 20 24 26 24 22 23 26 32
93 83 70 71 54 40 38 37 51 64 75 84 66 65 76 76 55 32 29 24 18 14 13 12 12 12 14 15 16 16 17 20 20 20 21 22 22 23 23 23 23 22 22 23 27 33 40 44 46
96 96 92 65 49 49 40 41 54 73 66 78 76 77 97 68 55 33 28 23 20 20 17 16 15 14 14 14 15 16 17 17 18 18 19 19 20 21 22 22 24 26 31 36 40 44 47 48 48
98 99 100 71 48 48 41 52 47 56 57 71 64 73 87 80 70 42 26 24 27 27 26 27 27 27 28 29 29 29 29 26 23 23 24 24 24 24 26 26 28 31 32 35 38 39 41 42 47
99 96 95 70 54 53 48 46 55 47 61 57 64 58 71 99 69 46 40 34 32 33 35 35 35 36 37 38 38 39 40 40 40 40 40 39 40 39 38 40 41 44 46 48 49 50 50 50 51
99 96 96 79 70 52 46 46 51 50 52 54 56 63 53 67 88 75 56 55 35 34 39 40 39 39 40 40 40 41 42 42 42 42 42 43 44 45 45 45 45 45 46 47 48 48 48 48 48
98 98 99 76 69 51 45 45 50 51 50 44 47 62 49 62 82 79 76 69 42 37 38 40 41 41 41 42 42 41 41 42 42 42 42 43 43 45 46 46 46 46 45 45 44 44 45 45 47
99 100 95 74 60 53 48 39 45 48 66 54 46 56 61 74 75 79 85 78 62 42 39 40 41 42 42 42 42 43 42 42 42 42 42 43 43 43 43 44 43 43 43 42 43 43 43 45 47
99 98 94 85 67 56 62 48 43 48 56 66 57 43 43 57 56 61 63 88 79 79 48 40 41 42 43 43 44 44 44 43 42 42 42 42 42 41 40 40 40 40 41 41 42 42 44 45 47
100 98 99 89 78 62 69 61 54 53 55 55 60 51 42 60 38 41 53 70 93 98 86 49 41 41 42 43 43 44 44 44 44 42 41 41 40 40 39 38 40 42 36 32 31 34 35 35 34
99 97 86 95 83 70 77 65 55 50 55 53 49 50 54 56 45 30 45 61 69 94 99 86 56 42 41 42 43 43 43 43 43 42 41 40 39 38 38 38 43 34 26 27 26 22 19 20 19
99 87 79 100 96 86 79 70 65 63 56 52 46 41 41 55 48 53 36 60 68 67 85 97 74 58 43 41 42 43 42 42 42 42 41 40 39 38 38 39 44 26 29 30 31 31 29 26 22
99 99 98 87 98 93 84 76 70 66 61 54 48 43 44 56 60 50 50 53 72 82 76 94 91 93 74 48 46 44 44 43 41 39 39 38 38 38 38 42 33 30 31 31 33 33 32 28 22
100 99 99 99 100 100 93 92 76 77 73 65 55 57 47 56 61 53 60 64 76 84 80 81 77 85 87 68 58 53 44 42 40 40 41 39 39 38 38 44 31 33 33 34 34 32 29 24 24
99 100 98 99 100 99 92 99 92 84 81 73 63 60 52 46 48 57 52 53 60 70 80 66 65 77 71 58 70 54 47 47 46 45 44 44 42 39 41 39 34 37 36 36 34 30 26 27 28
85 99 99 91 98 100 98 99 100 96 87 78 66 61 56 56 49 53 60 53 53 63 73 69 77 82 73 66 64 62 59 56 52 52 49 48 44 40 46 34 37 37 38 36 31 26 27 28 29
90 94 95 99 94 94 99 100 97 84 71 65 63 61 61 53 56 57 67 64 62 64 70 74 80 64 62 61 58 57 53 53 46 46 48 52 44 44 43 37 40 41 41 31 26 28 30 28 29
83 78 92 99 95 97 96 88 79 71 64 63 58 55 58 62 60 53 55 69 68 66 64 67 74 69 59 55 57 55 57 57 53 53 54 47 44 50 39 42 43 46 38 30 31 31 30 28 28
88 71 64 64 70 90 97 96 78 70 63 50 49 50 56 55 54 54 50 57 64 70 69 70 67 70 67 68 73 68 66 60 58 53 50 48 53 48 48 47 47 42 34 35 34 33 31 30 28
77 73 68 60 68 71 75 84 63 57 52 48 48 48 53 52 47 53 59 54 55 57 58 65 66 68 70 70 76 76 74 77 74 73 70 60 59 56 58 49 41 39 39 39 37 36 34 31 29
76 80 72 72 81 86 82 95 52 54 52 44 51 54 55 56 49 55 58 59 61 66 66 63 65 69 71 75 72 75 76 87 92 90 77 80 75 79 87 91 54 44 45 44 42 38 36 36 34
73 80 87 97 97 98 79 93 46 51 45 46 50 54 57 57 62 70 72 67 64 65 66 68 73 65 64 69 74 72 84 76 80 83 88 93 90 89 89 82 58 49 49 48 44 42 41 39 36
90 88 98 97 98 84 76 86 52 51 53 48 49 54 56 61 61 68 74 77 72 66 66 71 73 72 70 66 70 75 84 83 92 95 98 89 90 93 72 64 58 58 56 77 61 51 44 41 36
99 76 85 88 89 71 74 69 50 50 48 47 46 45 46 55 60 61 63 57 68 71 74 74 74 74 78 82 79 75 76 85 85 91 88 94 70 66 78 78 76 78 78 78 57 50 45 40 33
91 74 64 66 66 63 55 52 52 50 46 48 48 47 46 48 54 55 54 59 55 60 70 75 79 85 88 85 75 83 82 86 83 74 72 73 74 82 89 92 80 78 72 58 63 53 42 30 25
70 64 61 52 71 65 62 52 52 50 48 42 33 36 41 40 38 42 52 58 55 53 58 61 63 65 63 61 77 78 72 70 75 74 74 84 91 94 94 92 72 64 62 61 57 38 29 25 24
70 62 58 55 64 76 63 46 46 45 48 40 36 38 42 44 43 42 40 38 40 41 45 44 44 46 52 77 86 75 74 90 98 96 89 86 86 73 76 85 81 83 78 81 62 57 34 24 25
69 65 58 54 60 60 53 51 40 49 47 49 49 50 49 43 40 39 39 42 41 42 40 35 33 33 38 58 84 83 82 83 85 83 88 85 82 87 90 86 80 77 76 71 66 66 36 33 33

GFSSGP_700_rhum_069.txt.gz
RH
77 60 58 56 76 79 68 58 65 58 74 73 62 58 67 60 40 39 41 25 23 19 16 17 27 44 35 16 14 11 12 8 7 8 14 25 61 69 73 75 68 61 14 11 16 21 23 22 20
80 72 63 66 75 76 72 44 62 66 80 77 67 59 64 67 50 42 42 27 22 19 16 17 19 19 17 16 13 12 11 10 9 8 10 17 33 39 33 21 12 11 15 20 23 23 20 21 26
81 96 86 76 79 69 61 45 52 54 60 76 75 69 73 74 54 47 36 28 21 17 15 18 17 16 16 15 15 15 15 15 15 14 11 10 11 11 12 14 17 20 24 24 22 23 28 32 36
87 91 98 96 86 51 50 46 39 55 74 79 80 80 89 72 63 52 31 27 18 16 15 16 16 15 15 15 15 15 16 16 16 17 17 17 18 19 22 24 25 23 22 24 29 33 38 40 39
88 96 100 99 80 56 53 45 45 44 56 69 82 82 93 84 70 49 29 22 17 16 15 15 16 16 15 15 17 17 19 20 20 21 22 21 21 21 21 22 24 27 32 33 34 33 32 32 35
99 99 100 100 70 54 51 42 42 51 54 64 93 87 85 95 66 47 27 21 18 17 16 16 16 16 16 15 16 16 17 19 19 20 21 22 23 25 26 27 28 31 35 38 39 39 42 46 50
98 99 99 86 75 70 52 51 52 51 54 61 68 81 72 92 88 61 43 23 20 19 16 17 16 17 17 19 20 22 22 23 25 26 29 31 31 32 32 35 39 44 46 49 50 50 49 49 48
86 100 100 98 80 78 52 44 48 47 55 50 58 84 75 78 91 82 63 34 26 26 20 23 26 29 33 36 38 40 40 40 41 41 42 42 42 43 43 43 44 46 47 48 48 47 47 47 47
92 99 97 91 82 72 56 51 46 56 57 60 49 63 59 74 90 99 74 54 42 33 27 32 36 38 40 41 42 42 42 43 42 43 42 43 44 45 45 45 45 45 45 45 45 45 45 45 46
96 99 86 100 82 72 57 50 44 65 70 58 55 65 75 79 79 94 91 78 60 43 34 33 36 40 41 42 43 43 43 43 44 45 45 44 44 44 44 44 44 44 43 43 43 43 44 44 45
72 96 85 98 82 75 59 54 44 51 69 64 62 69 72 60 72 62 99 99 77 62 44 36 37 38 41 42 43 43 44 44 44 44 46 46 46 44 43 42 42 41 41 40 40 40 41 43 44
83 98 76 90 96 76 61 53 51 52 50 71 63 74 61 65 58 53 64 88 81 94 79 56 39 38 40 42 42 44 44 44 44 44 45 45 44 43 42 41 40 41 41 34 29 30 30 29 27
82 84 82 95 94 75 64 61 52 44 43 53 75 76 62 57 49 53 68 70 86 62 96 87 66 46 41 41 42 43 44 45 45 45 45 44 43 42 40 39 39 41 38 28 28 28 26 23 22
63 100 82 100 87 85 70 67 49 49 43 45 66 75 79 71 66 65 66 71 89 65 73 95 95 84 68 44 42 44 44 44 44 44 44 44 43 41 40 38 39 44 30 30 31 32 32 32 30
66 91 84 100 98 85 71 76 68 59 54 52 53 57 62 57 78 68 70 75 77 81 82 71 73 99 81 58 68 55 54 47 45 43 43 43 42 40 39 38 39 44 30 32 33 36 37 36 29
75 87 99 100 92 100 86 83 78 72 65 54 54 53 60 53 53 57 70 62 75 82 90 78 82 69 87 89 81 86 81 54 46 45 44 42 42 40 39 39 39 43 32 34 34 34 32 28 26
82 96 100 99 97 96 100 93 83 76 73 59 57 55 49 54 60 54 68 64 62 65 92 98 83 54 79 88 90 84 78 72 60 49 42 42 43 42 41 39 40 41 34 36 36 35 31 26 27
89 95 99 96 97 95 100 99 98 89 87 77 65 60 57 51 49 55 63 63 71 58 58 69 81 69 80 80 91 94 85 68 53 53 53 56 51 48 45 40 43 39 36 39 40 36 27 27 28
88 82 97 100 99 97 96 100 100 91 90 86 76 65 59 57 58 58 60 68 66 62 75 75 74 76 82 79 90 86 82 74 68 68 61 58 53 53 50 42 48 38 41 41 42 32 30 31 32
97 92 95 99 99 78 99 99 100 96 87 91 79 69 61 56 53 60 68 70 68 64 69 74 76 80 73 78 73 75 77 76 68 60 55 56 57 62 56 51 47 44 46 47 47 34 34 33 33
90 74 94 98 98 78 98 92 84 98 98 80 70 63 59 57 56 54 55 69 74 71 70 69 65 68 68 61 59 60 64 69 65 59 58 56 60 68 52 59 53 55 56 51 41 39 38 34 37
92 73 70 88 84 90 78 93 76 90 87 72 65 56 52 50 50 56 54 55 58 69 74 77 74 82 78 74 83 82 74 80 71 72 75 62 66 65 81 80 70 71 72 51 48 44 42 41 37
85 78 73 81 92 88 88 98 56 75 67 58 53 47 41 45 50 54 55 52 63 64 65 69 73 77 79 76 78 82 91 94 97 89 92 93 86 85 88 85 92 80 78 70 76 50 46 47 46
78 78 98 94 86 92 90 82 50 54 52 51 44 41 51 57 61 62 63 68 68 65 65 71 70 69 67 66 67 69 78 90 92 88 100 96 90 92 94 97 97 97 99 96 60 54 59 72 60
89 85 98 97 98 97 97 86 60 56 55 48 44 45 53 59 62 68 68 67 71 73 70 74 74 72 72 70 71 74 77 79 92 96 100 95 92 97 96 100 100 96 72 63 69 68 77 81 75
89 74 74 88 95 91 100 77 53 52 55 47 43 50 55 56 60 65 65 64 67 72 76 80 79 74 75 71 76 78 80 88 88 91 99 98 100 100 100 100 92 77 74 90 85 82 81 73 62
94 87 66 64 70 67 78 56 53 54 50 49 48 47 42 40 47 55 64 67 68 70 69 72 75 77 77 78 87 92 90 76 80 88 99 96 100 98 99 84 85 90 98 88 92 71 70 66 60
84 78 69 55 74 66 64 56 52 51 51 49 49 50 53 54 53 50 47 54 61 65 70 71 71 71 71 71 71 68 71 68 79 78 85 88 85 91 88 92 85 82 77 77 77 74 72 77 74
75 64 59 59 61 78 70 51 49 50 47 44 47 48 48 48 46 42 39 40 42 45 49 54 59 57 58 49 58 51 59 81 77 70 70 80 87 93 90 83 80 79 84 89 88 82 79 66 60
67 59 56 47 66 58 53 59 49 51 52 52 50 50 49 46 44 44 45 46 44 44 43 42 38 34 33 35 37 46 61 84 77 78 81 88 97 91 95 90 90 82 73 82 84 80 57 48 38

GFSSGP_700_rhum_072.txt.gz
RH
80 80 64 56 62 69 66 63 56 62 79 76 65 60 62 62 50 38 39 36 22 21 17 17 26 41 40 15 14 10 13 6 8 23 54 59 75 75 69 72 68 57 11 13 20 22 21 20 20
80 82 74 67 74 99 73 60 60 56 73 81 71 74 65 74 59 42 43 36 24 20 17 17 32 45 27 15 12 12 8 7 9 16 50 63 73 71 70 64 38 11 16 21 22 20 22 26 30
79 82 86 91 86 92 76 52 54 51 64 82 80 76 74 77 71 57 44 37 24 20 19 18 42 28 16 14 12 12 10 9 9 14 22 41 37 28 16 11 15 20 23 21 23 28 32 35 36
80 88 99 100 98 84 62 52 47 53 55 72 88 80 79 79 81 54 46 29 24 21 19 20 53 19 16 15 16 15 15 14 12 10 11 12 12 13 16 20 24 23 23 28 33 36 36 32 28
74 92 100 99 94 63 56 63 59 53 60 55 81 83 80 91 90 67 40 28 22 20 20 22 50 17 16 16 16 17 16 16 16 16 16 18 20 22 23 22 22 25 30 33 31 29 31 33 38
91 99 99 100 93 65 60 60 55 52 50 56 72 85 79 96 98 79 45 32 22 20 20 19 20 18 17 17 18 19 21 21 21 21 21 21 21 21 23 27 28 29 31 34 36 38 43 43 44
46 100 97 91 87 84 66 57 59 47 48 47 52 80 82 91 98 88 64 38 24 25 21 19 18 19 20 21 21 19 21 20 20 21 21 22 24 25 28 32 37 41 44 46 48 48 49 48 47
40 93 99 97 99 68 68 58 58 60 50 53 56 69 76 85 92 98 81 58 40 62 24 19 19 20 20 20 20 20 21 22 24 27 30 32 34 38 39 39 41 43 45 47 47 47 46 46 45
62 98 98 89 99 64 74 62 61 62 58 52 53 48 64 77 86 99 90 59 54 48 33 20 20 20 20 21 24 27 32 36 39 41 43 43 44 44 45 46 46 46 46 45 44 44 44 44 44
77 79 79 66 66 66 73 68 62 65 59 52 51 42 61 87 95 100 99 65 54 50 35 23 22 23 28 33 38 40 42 43 44 44 45 46 46 46 46 46 47 46 45 44 43 42 41 41 40
79 71 66 87 71 86 82 90 66 69 61 52 43 39 51 60 84 92 100 98 69 58 56 41 27 29 33 39 42 43 44 45 45 46 46 47 47 47 47 47 46 44 43 42 41 40 38 36 34
95 68 82 82 94 97 81 76 78 59 67 64 59 58 61 64 73 81 97 98 91 78 64 53 38 32 33 38 42 44 45 45 46 46 47 47 47 47 46 44 43 42 41 40 34 31 30 28 24
99 86 71 88 85 86 93 85 76 66 64 74 73 68 63 62 56 68 88 82 100 96 76 78 63 43 36 38 40 43 44 45 46 46 47 47 46 45 44 42 41 40 42 39 30 29 29 29 29
90 93 71 82 87 95 94 85 99 67 56 58 87 76 71 68 56 72 76 77 77 98 95 97 89 65 49 53 41 42 43 44 45 46 47 46 45 44 44 42 40 40 41 39 30 31 32 34 34
70 95 91 94 83 97 95 95 98 67 61 60 68 90 86 68 72 68 80 95 80 78 80 81 73 83 84 65 61 52 45 43 44 46 46 45 44 44 45 43 40 39 41 39 32 34 35 34 33
94 99 98 81 98 98 96 96 98 72 69 65 70 81 92 76 72 88 94 75 90 86 87 94 86 77 95 93 90 83 74 67 58 55 46 44 44 46 46 44 42 39 42 39 35 37 38 36 30
99 98 99 96 98 100 99 98 98 78 76 85 69 74 73 80 75 94 89 93 93 80 82 98 97 87 89 85 94 97 84 89 80 84 73 55 51 50 45 45 43 40 42 40 38 40 40 37 27
96 89 91 95 99 99 93 99 86 81 76 85 68 58 67 74 75 66 66 72 97 77 70 72 85 77 83 96 96 91 88 96 95 92 71 67 52 51 49 47 45 41 42 42 40 43 42 35 29
92 88 81 99 99 99 100 100 97 99 79 75 72 64 63 66 70 72 76 72 88 78 64 66 70 85 76 72 78 79 96 91 89 75 72 64 66 69 66 57 51 44 46 43 41 44 47 33 35
76 70 92 92 99 99 94 82 99 98 99 76 72 73 69 64 66 63 67 66 72 64 72 90 100 93 74 67 87 93 87 83 85 87 84 79 80 69 66 62 62 49 51 46 48 50 50 38 40
98 69 72 98 99 99 94 92 91 99 100 84 78 76 72 71 67 70 69 70 70 78 84 83 84 80 97 96 90 100 81 76 89 84 80 76 64 56 66 65 77 58 58 56 59 60 52 48 43
86 87 74 78 95 97 93 98 97 100 100 88 76 73 70 68 68 64 62 60 65 73 80 86 87 84 86 89 91 100 99 99 100 100 100 97 78 65 62 71 82 84 78 82 84 82 56 48 48
85 86 83 72 79 78 91 93 76 88 82 90 85 74 72 62 56 55 54 53 56 56 64 71 81 87 81 76 79 81 86 85 85 94 96 100 97 85 75 82 89 93 98 98 97 97 75 73 90
93 96 95 94 90 92 92 85 63 68 83 100 99 79 69 59 52 56 58 59 62 60 59 66 70 72 76 80 84 85 91 86 95 90 86 87 87 97 94 98 97 96 98 97 97 98 98 95 56
98 93 98 98 97 98 100 81 71 63 63 66 70 63 59 53 60 63 67 64 60 64 69 66 61 68 75 76 73 76 79 74 73 79 93 88 98 97 98 99 99 99 100 100 100 96 85 75 84
98 87 74 90 96 97 99 83 60 70 67 68 60 50 46 49 58 65 66 66 61 64 62 69 68 74 78 78 75 72 73 73 70 75 93 94 92 95 99 99 100 100 98 100 95 82 78 87 90
80 71 64 74 87 88 90 60 60 63 64 60 50 49 54 60 62 63 65 66 66 63 60 62 74 77 78 78 76 79 77 76 76 77 76 81 90 96 98 98 98 100 87 95 94 93 93 83 83
77 64 58 56 76 79 68 57 55 61 60 58 54 52 51 51 50 49 49 49 55 60 65 63 61 63 75 78 80 83 88 86 82 81 70 64 82 99 98 99 87 95 96 83 81 76 75 82 85
78 66 58 62 61 76 74 53 56 60 59 52 46 46 45 45 42 39 38 39 43 48 54 56 57 62 64 67 62 60 59 54 56 53 60 72 75 76 82 88 93 90 86 85 76 78 80 79 83
69 61 56 49 63 53 55 62 53 57 59 57 51 49 48 48 46 46 46 46 46 46 46 46 44 40 38 35 32 31 34 38 42 53 79 76 72 75 83 92 95 97 95 92 96 92 85 80 69

GFSSGP_700_rhum_075.txt.gz
RH
26 59 72 74 66 72 78 68 60 58 60 75 74 63 63 68 60 50 43 38 36 22 20 18 27 25 26 16 14 11 8 8 36 62 64 69 68 78 85 74 65 39 12 16 20 20 18 20 22
30 77 78 87 75 78 77 64 59 63 59 72 77 70 70 71 63 49 43 38 34 22 19 19 42 44 36 15 13 12 7 9 47 61 63 78 74 70 72 70 46 13 18 22 21 20 24 29 32
26 68 82 97 85 78 79 63 56 60 64 70 86 74 78 77 78 55 45 42 28 23 19 20 59 67 28 15 12 13 7 9 29 61 64 80 74 72 68 43 13 19 23 21 23 29 34 34 32
24 77 89 99 96 76 72 51 50 59 59 62 70 92 82 82 82 69 59 37 27 22 21 23 56 60 18 13 13 10 8 10 17 52 70 72 43 25 13 14 21 22 21 23 28 34 34 29 29
26 82 97 93 95 82 70 52 52 57 59 57 54 81 88 79 79 83 59 32 27 22 23 25 62 49 16 14 13 12 11 10 13 21 37 19 12 13 19 23 22 22 25 29 29 28 30 34 36
51 65 96 92 83 87 74 63 65 65 55 54 57 68 90 88 90 88 73 42 28 25 28 40 65 33 16 17 17 17 16 15 14 13 14 15 20 24 23 23 27 29 27 27 31 38 44 44 40
55 67 86 84 85 95 67 69 73 67 59 56 55 61 65 89 92 99 99 66 33 27 30 50 75 30 18 18 18 18 19 20 20 21 23 24 23 24 26 27 28 34 40 43 43 43 45 45 45
71 69 87 89 97 78 63 72 71 66 57 51 56 61 54 69 92 100 99 81 55 62 49 38 59 20 18 18 20 23 24 24 22 22 23 24 26 27 31 35 38 40 43 46 46 46 45 44 45
66 92 86 70 92 65 60 64 72 64 69 57 50 50 52 55 83 90 98 98 81 60 52 37 23 20 21 23 25 23 23 23 24 24 26 29 33 36 39 42 45 46 46 46 44 44 44 43 42
72 86 62 32 77 74 61 66 70 72 68 81 66 62 53 48 76 76 93 100 88 72 61 31 22 23 24 24 24 22 23 26 30 35 40 43 45 46 47 48 48 48 47 45 44 42 41 40 38
41 58 42 38 66 96 80 78 64 95 76 67 62 58 51 46 49 69 97 100 91 87 70 55 26 27 27 25 24 25 31 37 41 44 46 47 48 48 49 49 49 47 46 44 41 37 35 34 31
78 30 62 63 65 87 76 78 82 92 68 70 62 59 49 44 48 64 80 94 100 77 98 71 39 30 29 28 28 33 39 44 45 46 47 48 48 49 50 49 47 45 43 42 40 35 32 30 28
91 57 58 68 76 75 74 69 76 77 78 71 68 56 57 55 56 75 74 94 100 82 97 89 62 35 32 31 33 37 42 45 46 47 47 48 48 49 49 47 45 43 42 41 41 32 31 32 32
81 71 60 90 73 77 91 98 92 65 74 80 85 72 65 66 67 75 80 75 99 95 79 96 87 50 37 34 36 39 43 45 46 47 47 48 48 48 46 45 44 42 41 41 42 32 33 35 36
95 71 70 82 69 88 76 76 91 81 72 86 95 85 79 78 70 69 80 73 58 94 99 90 89 91 72 47 39 41 43 45 46 48 47 47 48 46 45 44 45 44 41 40 44 33 34 36 35
97 85 83 67 69 80 97 85 75 75 82 86 92 84 67 87 79 75 86 87 82 94 92 96 94 98 86 81 71 56 46 46 47 48 48 50 48 45 44 45 48 46 42 41 45 35 36 37 38
88 99 87 98 72 87 92 96 86 91 89 89 87 76 80 84 98 91 96 97 90 83 91 83 94 87 73 79 78 84 74 58 52 48 49 52 51 48 48 50 52 48 45 41 44 39 38 40 40
98 98 98 92 89 100 99 100 88 69 93 97 81 84 97 100 96 99 99 87 98 97 82 77 76 79 92 93 82 98 96 88 83 75 72 68 71 69 67 67 60 52 49 43 44 44 38 41 44
98 98 98 98 92 87 94 100 100 81 98 90 91 83 86 86 100 99 91 86 99 99 93 78 78 100 84 95 92 96 91 84 74 86 90 96 86 84 70 65 57 52 52 46 46 48 41 42 45
99 85 92 87 96 91 94 94 100 90 100 88 82 84 84 82 81 96 99 95 93 99 83 93 98 99 99 92 100 94 90 90 85 82 92 90 90 99 82 78 76 71 61 52 49 50 45 49 48
99 94 87 98 99 100 98 99 99 100 99 87 97 85 90 87 83 81 82 94 84 72 86 94 78 89 84 84 96 97 98 98 97 96 92 94 92 99 99 83 80 82 64 64 62 67 56 61 53
98 78 71 82 98 97 97 99 98 100 99 88 100 99 100 99 84 80 80 97 87 78 84 83 87 92 92 97 95 99 96 100 100 100 100 99 100 99 98 88 85 94 81 88 84 78 77 83 74
97 97 82 72 86 88 96 98 91 89 100 99 100 100 99 93 98 96 96 81 70 70 71 76 82 81 87 93 97 98 100 99 96 99 93 95 97 98 95 99 99 98 99 99 98 99 96 98 99
100 98 93 92 92 92 97 85 91 89 95 96 99 100 100 97 92 81 65 61 57 58 62 62 70 72 73 81 90 89 94 98 99 98 96 98 99 95 92 96 98 100 99 100 100 100 99 99 99
99 96 99 96 92 96 97 80 97 92 85 99 96 99 96 91 80 60 53 55 62 66 66 67 62 63 75 76 75 80 80 87 92 93 82 79 96 92 92 99 100 98 100 100 100 100 100 100 100
95 78 75 91 92 98 100 82 96 93 83 85 98 97 87 79 66 62 63 67 71 68 66 64 69 68 67 70 76 81 78 76 75 76 73 71 73 80 88 97 97 100 99 100 100 100 97 99 91
78 70 81 92 99 94 79 86 80 71 70 87 84 82 83 65 57 59 66 66 68 62 63 61 59 67 73 74 78 79 76 73 72 69 69 73 81 85 84 89 96 96 98 93 97 99 91 92 91
67 64 62 67 90 94 73 64 79 71 66 64 61 58 58 59 60 62 65 68 69 69 67 65 65 65 65 76 80 80 78 78 78 77 77 78 82 84 67 74 90 98 78 86 91 87 80 78 77
70 63 57 59 57 73 73 59 67 71 65 59 53 48 46 44 42 40 42 41 42 47 55 62 65 64 63 67 72 76 77 75 70 67 61 61 54 57 67 75 90 80 90 95 90 83 87 80 83
64 60 52 47 59 52 57 65 61 66 65 57 52 53 51 49 47 45 44 42 41 42 45 45 44 43 42 40 38 35 33 31 31 34 36 44 47 60 70 72 85 82 82 87 98 97 94 80 77

GFSSGP_700_rhum_078.txt.gz
RH
19 25 48 65 80 76 59 54 63 54 69 72 71 64 73 74 71 66 53 52 44 36 23 20 40 23 27 16 13 13 10 8 7 6 17 43 54 62 93 90 72 29 15 14 18 18 17 20 23
16 25 44 70 84 56 52 55 65 60 65 70 71 62 60 83 67 58 46 44 38 35 22 21 46 23 26 16 14 10 9 21 39 30 44 52 67 90 88 72 37 16 16 19 18 18 20 23 26
14 20 43 67 81 63 48 48 59 61 78 62 61 72 66 70 74 61 46 44 40 32 23 22 45 50 35 16 13 12 9 73 73 73 77 74 78 81 77 63 21 18 21 20 19 21 24 26 24
16 27 51 84 68 62 56 47 60 60 64 66 78 75 78 75 76 68 55 48 42 26 26 26 54 64 50 16 12 13 9 54 73 70 80 82 73 70 68 27 17 22 22 23 26 27 26 23 22
16 36 83 82 74 65 58 57 58 62 63 73 67 83 86 78 78 80 86 59 32 30 30 35 61 68 41 15 16 8 10 31 70 74 84 76 67 56 21 18 23 22 25 28 31 27 28 29 28
26 45 78 74 62 63 67 72 69 73 67 65 88 86 66 77 83 81 91 78 79 73 72 57 64 64 29 13 14 10 10 21 63 77 84 55 17 13 19 24 24 26 30 29 27 32 36 38 38
26 84 71 59 59 61 64 72 80 77 70 67 75 92 86 62 66 97 99 79 67 67 73 66 72 68 29 14 12 12 10 18 32 54 54 14 14 22 24 24 28 29 27 30 38 42 43 39 39
53 97 83 67 60 56 60 73 77 86 73 71 77 89 83 56 56 79 99 86 88 70 79 61 75 74 35 18 16 16 14 15 20 26 16 19 25 24 25 28 29 34 39 42 46 46 45 43 41
43 99 84 67 61 58 61 78 81 59 81 78 84 86 84 57 56 58 100 99 98 96 88 72 78 80 22 36 19 18 16 16 16 19 24 25 26 28 29 33 38 41 44 47 45 45 44 42 39
36 91 79 69 62 60 61 81 82 88 74 84 92 79 57 50 54 58 79 97 98 98 93 84 86 79 22 36 21 22 24 24 24 25 25 27 28 33 37 40 44 47 48 48 46 44 41 41 39
43 68 79 81 83 81 68 77 85 95 89 83 85 80 56 55 52 58 57 90 93 100 99 90 88 76 23 22 35 28 26 25 26 27 28 32 37 42 46 48 49 50 50 48 45 43 40 38 35
77 83 74 56 94 95 87 83 86 83 56 70 94 94 87 67 61 56 56 85 99 99 100 87 95 59 26 25 34 35 26 26 28 32 38 43 46 48 49 50 51 50 49 46 44 40 37 35 32
92 37 85 90 93 98 96 90 87 88 58 51 82 80 76 72 73 60 62 67 64 93 98 100 99 51 30 30 30 29 31 31 36 41 45 47 48 49 50 50 50 50 47 45 42 41 35 32 32
72 65 64 100 99 94 85 85 97 61 84 77 91 81 68 70 79 71 73 84 57 96 100 100 99 57 36 34 31 30 32 42 42 44 46 48 48 49 50 50 49 47 45 43 42 42 36 34 35
54 86 99 95 99 88 80 97 93 58 76 72 85 83 80 65 78 72 79 85 68 68 94 97 88 61 49 41 38 35 36 41 49 48 48 48 48 48 49 49 47 45 44 43 42 42 39 35 37
83 98 99 97 100 81 87 74 83 96 80 62 57 64 88 89 83 76 86 84 76 76 93 97 98 75 71 64 41 40 40 43 47 49 49 49 49 50 48 46 44 44 46 46 42 41 44 36 38
84 98 98 95 93 90 92 93 88 81 53 71 68 66 78 100 97 87 95 95 89 78 73 87 97 91 85 78 62 63 46 45 46 49 51 52 51 51 50 47 44 45 49 50 45 41 44 39 38
98 100 95 87 83 75 90 94 92 85 76 71 73 68 71 99 99 96 99 100 97 91 100 100 98 99 96 94 85 85 76 71 53 50 52 53 51 52 50 51 54 49 54 54 50 45 44 45 39
98 98 90 78 99 88 92 97 98 98 78 73 76 76 87 99 100 100 99 100 97 97 94 97 100 92 92 78 76 85 81 92 96 75 85 82 78 75 60 69 78 69 62 64 56 51 44 46 44
98 95 99 100 97 96 98 99 88 100 95 63 79 84 84 98 99 95 100 100 89 99 95 98 99 98 99 94 82 85 88 88 86 84 87 88 89 99 87 84 93 80 79 66 59 54 48 49 49
92 98 99 97 100 94 97 96 89 96 98 92 94 99 95 99 98 100 100 100 99 99 100 99 100 91 83 92 94 97 88 76 73 79 82 84 90 85 95 90 96 98 99 98 92 75 67 63 69
99 99 97 94 97 99 84 92 97 94 99 100 100 100 98 100 100 100 100 100 98 94 90 96 94 91 99 99 96 96 97 96 96 98 89 94 89 86 84 90 94 100 100 99 100 98 88 85 87
99 97 96 91 95 99 100 94 98 100 100 100 99 99 99 89 100 99 99 100 90 92 97 93 88 95 90 72 88 90 98 99 100 98 97 100 100 94 98 100 98 99 100 99 99 99 93 92 92
88 92 93 95 94 94 99 99 98 96 99 100 100 100 100 97 98 99 100 98 97 86 80 75 76 80 82 87 93 95 97 99 90 99 94 99 98 98 98 100 98 97 98 98 97 99 100 100 99
98 98 94 88 92 95 99 94 98 90 86 97 100 98 99 100 100 100 99 90 76 68 64 69 68 71 79 76 77 80 82 87 90 88 81 83 82 82 81 88 97 97 100 97 97 98 100 100 99
95 85 70 69 87 96 86 94 95 92 100 97 100 98 99 97 100 97 96 89 83 78 72 70 71 70 71 70 69 71 77 79 81 77 73 71 78 78 75 77 80 81 86 94 96 98 98 100 100
89 90 85 89 85 66 90 90 87 98 95 100 100 100 100 99 96 96 78 83 81 79 74 69 67 65 67 73 76 79 81 86 84 80 77 75 73 78 81 82 82 79 84 96 99 95 95 90 92
73 72 72 68 73 78 77 68 79 78 93 99 94 95 99 100 87 82 69 71 72 78 74 72 70 68 65 62 76 85 84 85 84 82 79 83 84 84 85 83 86 68 71 94 93 81 89 82 89
67 65 53 58 68 52 59 68 82 71 65 67 68 71 81 74 73 76 66 67 67 67 67 65 65 67 69 71 71 69 76 82 82 81 79 78 75 71 67 60 61 63 75 88 82 84 86 85 86
61 56 49 52 58 60 50 61 75 76 67 58 52 53 53 52 49 45 43 43 44 46 47 47 46 45 44 43 42 40 39 38 37 36 35 34 37 38 44 54 62 74 87 83 82 87 91 92 88

GFSSGP_700_rhum_081.txt.gz
RH
8 14 17 22 82 66 54 51 46 39 36 41 56 61 64 52 58 70 67 62 62 56 50 25 22 20 21 23 13 12 11 9 10 11 4 30 49 76 60 76 75 37 18 16 18 17 16 15 17
8 13 22 69 80 58 48 44 45 40 46 46 62 69 81 72 72 72 65 54 55 52 45 30 20 24 19 22 13 12 9 8 8 4 11 48 61 66 88 84 58 24 17 17 18 17 19 22 22
12 15 70 78 78 65 42 39 41 42 50 56 73 74 91 87 75 66 59 50 45 68 35 26 25 31 20 20 14 11 8 8 8 12 41 53 57 87 92 72 33 19 18 19 19 19 22 23 24
14 18 40 80 55 56 52 40 37 41 50 56 69 82 77 76 70 66 60 48 47 41 34 28 31 47 28 20 14 10 17 70 60 55 56 68 87 93 76 54 24 20 21 21 22 24 25 23 21
15 75 73 65 65 59 47 47 42 42 45 61 67 86 88 72 69 65 65 52 64 58 45 69 71 65 63 23 14 13 30 88 81 80 82 89 85 80 74 41 20 21 22 24 26 26 23 23 24
78 67 66 56 52 51 51 49 46 42 50 46 68 73 82 76 73 71 74 72 71 90 67 75 65 70 72 39 13 15 22 86 82 81 89 89 77 73 52 20 20 23 24 28 27 25 30 31 29
23 79 53 50 44 42 46 47 48 47 46 50 54 60 67 91 68 71 71 97 99 97 99 75 72 78 76 41 15 13 13 73 88 82 90 88 74 49 18 23 25 26 28 27 29 35 38 39 36
67 85 66 52 46 43 40 45 46 47 51 54 53 57 61 73 72 61 77 80 96 97 95 91 82 89 82 57 17 12 10 44 80 85 97 76 23 14 21 26 28 31 28 32 40 42 44 43 40
29 97 78 61 53 47 42 42 44 49 59 61 61 60 73 77 83 75 62 72 98 94 94 97 86 90 85 64 20 12 10 20 58 83 83 25 14 21 27 29 32 30 37 43 46 46 45 43 42
28 82 72 63 52 48 45 44 43 52 58 66 68 66 73 83 92 77 63 67 77 100 98 98 95 90 96 61 47 14 12 19 35 49 55 15 24 27 30 32 32 40 42 44 46 46 45 43 40
68 74 64 61 59 56 57 52 49 54 58 61 68 70 84 74 67 65 52 67 78 89 100 100 93 86 100 61 57 20 16 18 27 32 20 24 27 28 30 36 40 43 48 49 48 46 44 42 39
93 90 86 73 68 72 73 74 59 56 57 60 66 70 90 97 80 66 52 60 72 75 88 99 100 100 100 69 56 40 18 16 20 20 25 26 26 31 38 41 46 49 51 50 48 45 42 39 37
80 84 82 87 89 76 79 79 74 67 65 66 79 88 95 70 82 67 72 67 63 73 72 96 98 93 99 78 49 46 26 23 24 26 26 28 30 38 43 48 50 52 51 50 48 45 42 39 35
79 79 83 86 86 94 81 77 81 76 67 72 82 84 98 90 89 78 68 71 72 78 64 91 88 100 100 86 39 54 41 34 28 28 31 35 41 46 49 50 51 51 51 49 47 44 42 41 35
96 94 78 87 91 92 95 92 80 60 80 75 75 82 66 77 85 81 66 74 91 84 71 94 92 100 100 64 34 63 54 42 36 34 37 41 46 48 49 50 50 51 50 49 45 43 42 42 37
100 100 100 85 92 87 94 86 60 70 78 81 84 85 56 61 98 73 63 76 93 84 70 92 84 100 100 53 45 44 60 57 45 41 42 45 47 48 49 49 50 50 49 46 44 44 42 42 42
100 96 90 88 90 92 94 78 74 64 72 82 86 86 86 82 87 91 82 91 93 85 82 56 79 98 90 74 50 45 46 55 55 58 49 48 48 49 49 49 49 48 46 44 46 49 47 43 44
88 98 95 86 88 94 89 80 80 77 86 76 94 90 90 93 77 86 98 98 98 82 86 79 86 90 88 80 65 63 48 45 48 54 52 53 54 52 52 52 51 49 47 46 48 53 52 48 45
97 98 97 93 93 87 82 80 73 86 83 86 87 87 95 79 68 86 100 100 100 98 94 96 94 99 97 88 95 86 69 62 51 50 51 53 55 56 54 55 56 59 54 53 62 60 61 54 48
99 99 97 93 93 94 73 86 74 79 94 98 89 99 91 85 77 84 100 100 100 98 93 100 100 99 98 95 86 83 96 90 78 76 75 83 82 69 76 80 74 73 69 75 80 80 71 62 56
99 100 99 98 76 93 90 94 89 86 85 100 98 98 80 82 84 99 100 100 100 100 98 98 100 100 100 100 96 91 97 100 98 92 90 87 86 91 83 84 83 85 82 88 91 95 97 74 75
100 79 98 99 97 89 91 85 88 77 80 77 98 83 78 83 96 100 97 99 100 100 97 100 100 100 99 98 99 98 99 96 94 98 94 91 89 91 85 81 90 93 92 91 94 99 100 98 96
98 100 96 97 99 96 98 79 99 85 87 93 100 100 100 99 99 84 99 99 99 98 93 94 95 97 96 95 97 96 98 94 97 97 99 98 98 97 87 89 83 78 88 84 81 96 98 100 100
96 93 95 96 98 96 97 91 96 97 99 100 98 100 100 96 88 95 100 100 100 98 98 92 90 93 93 92 99 95 96 98 98 93 98 93 94 80 89 99 95 97 94 95 91 90 100 99 100
97 95 95 99 98 97 99 84 98 98 99 99 99 100 100 93 97 98 100 100 100 100 83 80 76 81 77 74 73 78 78 94 90 95 94 87 88 87 79 75 81 89 99 99 94 98 96 97 99
98 94 90 94 92 92 96 96 97 98 99 99 98 100 100 100 100 99 100 100 100 94 84 80 78 75 72 72 70 69 76 77 79 81 83 81 82 84 82 78 78 84 76 69 76 79 97 98 98
96 85 80 69 59 64 92 97 98 99 100 100 100 99 100 100 99 100 99 100 99 95 84 80 78 74 73 75 74 74 73 78 78 81 84 83 80 80 79 84 82 83 85 79 66 86 92 97 99
80 73 76 74 74 75 68 76 89 99 100 100 100 100 98 99 100 96 98 92 88 82 85 79 74 72 71 67 64 74 79 83 85 86 87 85 84 81 85 88 85 87 84 85 68 71 97 93 89
87 67 59 60 64 47 58 69 81 95 95 88 96 99 99 98 98 97 98 89 83 84 82 79 77 75 74 72 71 69 66 69 73 79 82 82 81 79 78 76 74 72 66 69 67 87 86 76 82
84 69 60 52 54 53 49 68 84 83 75 73 82 79 72 75 86 90 84 78 59 56 53 51 49 46 44 43 42 39 39 39 39 37 38 38 37 36 34 37 44 43 56 63 73 92 82 85 86

GFSSGP_700_rhum_084.txt.gz
RH
4 6 10 20 72 74 79 73 62 53 44 38 40 40 45 50 54 56 67 66 75 58 52 56 32 32 23 21 19 11 10 9 10 11 7 12 54 48 50 39 65 55 25 17 14 15 15 14 16
5 6 13 57 73 85 64 50 53 46 40 39 36 41 52 60 64 69 66 64 66 59 52 55 40 25 25 23 18 11 10 9 9 11 8 12 39 60 48 61 73 42 23 16 16 16 16 17 19
8 9 18 65 86 85 65 49 44 42 43 42 52 55 59 61 73 70 74 69 64 57 55 53 38 26 30 24 18 12 10 8 8 10 6 38 53 72 69 82 60 34 21 17 18 18 19 21 20
11 13 24 89 71 59 48 48 42 41 40 42 50 63 68 66 65 59 75 68 64 50 52 44 37 66 41 26 20 13 9 7 6 5 21 57 61 64 86 82 46 24 18 18 18 20 22 22 20
13 20 34 64 68 67 53 51 38 44 40 43 47 55 67 61 63 69 82 65 65 57 48 46 70 81 69 34 21 13 8 15 11 17 63 63 67 82 92 68 34 22 19 20 21 22 22 21 21
28 27 83 78 60 57 54 53 50 46 42 40 48 56 62 61 69 66 76 65 66 64 55 60 74 81 71 59 26 13 15 84 69 74 72 78 89 94 81 66 36 21 21 24 26 24 22 24 25
20 76 72 73 64 53 47 48 46 50 45 41 45 50 52 56 75 66 78 74 70 78 70 75 88 82 75 75 40 17 23 89 89 84 87 98 98 85 74 54 28 22 24 26 26 26 29 31 31
19 68 90 82 64 50 44 42 42 44 46 45 44 49 52 52 68 89 63 68 75 83 78 68 99 88 89 83 53 19 15 85 90 88 91 98 86 80 58 32 20 24 27 28 26 32 38 38 37
33 88 93 83 67 60 49 44 40 40 44 45 43 50 54 55 64 70 86 59 67 82 98 100 99 94 98 97 68 20 14 58 89 88 94 100 83 76 29 20 23 26 30 29 36 42 44 43 40
28 36 53 52 68 61 54 50 46 41 42 44 49 54 59 58 68 74 74 67 79 67 74 98 99 100 100 100 90 32 23 16 80 88 99 97 73 25 21 24 25 29 29 37 45 46 45 43 41
75 49 43 61 67 63 59 54 51 46 43 43 55 56 44 63 60 62 67 75 74 70 64 78 98 99 100 100 99 67 25 11 36 80 98 95 36 15 23 27 28 28 37 44 47 48 47 44 40
73 60 78 86 83 60 66 59 64 57 53 47 53 55 66 60 60 95 71 72 56 57 64 56 90 90 99 100 100 91 39 13 13 48 86 90 29 20 27 28 31 36 42 47 49 48 46 45 41
79 80 80 81 84 80 66 68 72 58 58 56 60 56 64 78 68 68 88 75 59 53 59 68 71 74 96 99 100 98 73 18 13 24 62 62 24 26 28 32 34 40 47 50 51 50 47 44 42
69 82 80 76 78 82 81 80 70 63 53 67 64 62 60 78 75 70 91 81 69 66 71 88 84 68 90 99 97 96 81 24 16 24 46 39 18 27 28 34 40 47 51 51 52 50 47 44 42
90 82 71 60 32 59 89 72 78 64 45 61 65 72 77 64 71 97 100 87 75 76 88 92 72 58 91 98 100 99 76 46 18 21 26 21 27 32 34 40 47 51 52 52 51 50 46 44 42
72 74 77 39 63 59 68 84 57 51 63 63 69 74 78 71 84 85 84 82 72 84 91 92 88 50 71 97 92 97 85 82 37 24 27 29 30 36 41 46 50 51 51 52 51 50 46 44 43
87 97 78 68 88 90 93 58 33 59 75 51 76 75 83 85 70 75 48 88 62 85 89 90 93 59 69 95 92 95 98 94 73 47 33 33 38 41 46 48 50 50 51 51 50 48 46 48 48
87 94 97 96 88 98 88 76 54 78 76 66 58 66 91 83 88 72 48 81 90 90 88 96 97 97 89 80 93 96 91 98 96 72 49 40 42 45 47 48 49 50 50 50 47 45 46 52 55
87 90 92 78 86 98 96 89 59 98 75 75 75 77 74 87 81 85 92 74 87 98 92 97 99 90 84 69 97 92 67 66 80 73 72 53 51 54 56 52 50 51 51 51 50 52 49 53 62
99 93 89 87 91 100 97 82 73 87 79 73 73 75 78 96 81 91 86 62 80 100 96 99 97 97 99 98 98 79 75 72 67 68 59 65 62 57 60 58 57 56 57 57 58 62 62 70 70
87 96 96 97 93 95 79 81 78 92 84 78 89 78 78 88 85 72 69 84 89 100 100 100 100 97 99 100 100 100 78 83 71 78 76 80 72 65 75 75 72 76 73 78 75 69 73 82 84
99 93 97 97 100 95 91 94 98 98 81 62 82 79 93 87 85 92 88 97 100 100 98 100 100 100 100 100 100 100 95 88 99 97 97 100 95 99 97 85 78 80 91 84 82 94 94 88 98
98 100 94 97 98 99 92 99 100 86 78 78 83 77 84 97 89 88 90 98 99 98 100 100 100 100 100 100 100 100 98 98 100 95 94 96 100 100 98 99 82 85 90 75 76 90 93 96 99
99 98 97 98 98 89 90 96 99 99 96 81 99 89 100 100 100 91 82 88 100 100 100 99 100 100 98 91 100 99 98 100 100 89 98 98 84 97 98 97 86 73 62 74 76 80 83 86 90
98 99 99 98 98 98 88 82 98 100 96 98 100 99 100 100 100 94 88 99 100 100 99 95 98 96 91 93 96 99 94 99 92 92 95 98 86 85 76 89 85 78 96 90 76 73 88 99 97
96 97 98 97 97 98 92 97 96 100 99 100 100 100 100 100 100 99 97 99 99 96 90 91 92 90 90 85 84 86 93 89 87 83 84 81 84 86 84 77 74 69 90 84 84 95 100 100 87
90 99 98 98 91 91 98 97 98 98 99 100 100 100 99 100 100 100 100 99 98 94 94 96 87 82 79 79 79 78 78 80 81 84 87 87 83 82 81 82 82 84 81 83 88 87 87 96 99
93 77 84 94 97 95 90 97 98 98 99 99 100 100 100 99 99 100 99 100 99 98 98 88 82 77 76 74 71 71 75 80 84 87 88 88 86 84 83 82 82 83 82 84 87 88 79 73 88
70 65 61 61 57 75 81 98 98 99 99 100 100 100 100 100 100 100 98 97 100 99 97 91 86 82 81 79 75 72 70 71 72 76 80 83 85 84 82 80 75 76 76 75 75 70 73 64 81
69 63 56 57 54 55 64 86 92 88 98 100 100 100 99 99 99 99 99 94 78 72 64 56 54 51 48 46 44 42 40 39 39 38 38 38 37 38 36 35 33 32 35 47 47 54 66 72 84

GFSSGP_700_rhum_087.txt.gz
RH
4 4 5 13 39 40 82 53 37 38 49 42 44 46 43 42 44 48 55 58 62 64 63 54 51 47 38 29 25 20 13 14 10 11 10 23 56 62 61 58 50 66 42 27 16 13 14 13 14
6 6 6 22 28 93 67 10 28 26 48 46 42 43 52 45 45 49 60 69 61 61 61 54 54 52 34 30 28 22 12 10 10 10 11 14 51 67 59 44 47 62 38 24 14 14 14 16 18
8 9 10 16 55 67 40 19 17 42 40 37 41 44 57 56 46 53 66 73 72 63 61 57 55 56 34 29 29 23 13 11 10 10 16 19 44 52 62 38 55 56 35 22 14 15 16 18 19
10 11 12 31 45 36 20 20 28 47 42 42 42 43 48 61 63 55 64 76 75 69 58 56 61 52 36 38 38 24 14 12 9 10 21 27 57 42 63 61 73 43 29 18 15 16 18 20 18
11 12 15 22 20 24 33 46 41 46 46 41 43 54 45 50 62 63 66 68 72 70 66 62 58 49 83 60 46 27 15 16 8 10 22 30 62 64 65 83 67 33 25 17 18 18 19 19 18
13 13 22 23 18 12 19 40 52 56 45 41 42 43 48 45 46 56 63 69 69 68 68 66 70 57 90 78 45 31 15 40 10 15 34 64 71 71 72 86 50 30 22 18 20 21 20 18 20
11 18 17 29 45 36 25 26 48 52 51 43 44 44 51 54 49 44 53 62 75 73 84 76 66 66 97 93 68 39 18 67 46 61 67 68 75 73 89 74 39 29 22 20 22 23 22 23 26
15 31 43 34 34 36 43 54 50 45 44 45 47 47 48 56 54 52 58 55 53 78 86 98 83 64 73 89 80 64 32 83 90 74 84 79 87 88 94 65 40 29 23 23 24 23 26 31 32
21 43 77 44 31 31 29 43 46 44 43 44 45 45 47 46 57 56 61 60 71 76 78 89 95 90 81 87 85 80 51 71 89 99 87 92 95 100 87 67 38 25 24 26 26 28 34 37 36
22 32 38 32 32 46 50 42 42 43 42 41 42 44 44 47 52 57 61 65 60 72 75 79 91 98 99 81 94 95 60 49 99 100 99 99 100 94 80 51 28 25 28 29 27 34 40 41 40
34 31 34 36 37 62 70 62 55 45 44 45 42 43 57 48 53 58 60 59 56 69 68 78 78 76 92 100 99 100 91 65 52 99 99 99 100 92 80 38 24 28 31 29 33 41 44 42 41
40 52 69 70 62 57 67 64 52 54 50 43 45 45 54 62 61 60 58 54 58 64 75 81 73 67 62 93 100 100 100 70 50 76 98 98 100 91 62 22 25 30 33 35 43 44 44 45 45
53 67 67 82 84 82 78 60 62 46 56 47 45 48 58 63 64 68 71 54 62 75 74 77 62 61 52 89 96 97 100 94 74 28 81 99 100 91 26 18 27 33 32 43 47 48 48 48 44
38 32 43 61 47 49 65 35 39 53 42 50 45 54 58 70 69 66 71 69 65 65 74 82 66 75 49 59 79 94 88 99 62 54 22 91 100 87 18 22 27 32 34 44 50 52 52 50 46
31 43 35 23 22 36 42 46 40 27 41 36 48 54 55 62 77 65 70 73 63 87 92 84 70 77 57 56 56 81 95 99 71 53 18 27 89 93 22 26 30 34 41 48 53 53 52 50 47
52 65 50 30 43 57 83 58 25 27 34 40 27 46 62 63 71 54 59 62 70 86 96 95 86 86 72 65 60 64 99 100 100 60 18 20 45 72 26 32 38 40 48 51 52 53 52 50 46
86 78 61 55 61 76 91 86 66 31 30 44 40 26 54 63 59 64 71 62 57 57 89 86 94 91 81 74 50 70 99 98 98 54 25 24 55 59 28 34 44 46 50 52 52 52 51 50 48
79 87 76 78 53 71 88 76 74 56 87 56 66 31 53 57 72 80 86 57 52 56 84 93 99 95 96 96 51 75 93 100 100 82 37 27 45 33 33 39 44 47 50 51 51 51 51 47 46
98 92 83 53 55 94 85 72 60 65 79 70 69 61 68 56 70 79 85 72 59 68 78 93 99 96 100 100 79 64 78 98 100 98 80 34 35 35 37 43 46 48 50 50 51 51 49 48 49
94 99 92 71 70 97 98 79 61 83 89 85 85 72 68 70 91 86 89 82 85 81 74 87 97 98 94 97 94 77 72 95 100 100 98 84 50 43 44 45 47 49 49 50 50 52 53 55 61
91 96 88 92 92 96 91 83 71 81 92 87 81 82 80 87 77 79 91 84 80 68 66 72 93 100 100 96 100 99 90 97 98 98 97 100 97 73 70 67 62 59 59 62 64 67 72 74 73
98 97 100 99 98 94 83 89 67 77 84 85 79 83 83 80 86 89 99 85 84 85 70 89 100 100 100 100 100 100 98 94 94 97 96 100 98 96 90 94 86 88 76 83 82 92 84 87 90
94 98 100 98 98 95 88 98 89 80 94 91 74 68 77 75 66 93 99 96 100 99 88 92 98 100 100 100 100 100 99 99 97 99 99 98 100 100 100 100 100 93 97 90 94 92 87 93 82
99 97 99 100 96 99 76 93 96 98 98 84 67 67 79 86 77 80 100 98 100 97 89 100 100 99 99 100 100 100 100 100 100 100 100 100 99 99 99 98 98 98 95 93 86 89 82 73 72
98 98 98 98 98 98 92 93 97 98 100 100 99 88 93 100 98 100 100 100 99 99 100 100 100 99 99 99 100 100 100 99 100 97 97 99 98 93 89 93 98 99 100 98 100 95 85 80 87
99 99 98 97 97 98 92 99 100 96 99 99 99 99 100 99 100 100 100 100 100 100 100 99 94 92 98 97 99 100 100 100 100 98 98 99 94 100 92 80 78 88 89 89 96 92 99 85 97
98 98 98 99 89 97 97 98 99 99 99 100 99 100 99 99 100 100 100 100 100 100 100 97 91 88 89 92 93 92 97 98 95 92 96 99 99 98 94 94 92 96 90 86 84 89 97 96 100
91 83 84 94 97 96 98 98 98 98 98 98 99 99 100 100 100 100 100 100 100 100 94 91 87 86 87 84 82 80 83 88 88 88 92 91 92 91 93 91 95 97 93 92 93 87 83 94 92
70 64 64 67 64 81 89 98 98 98 99 99 99 100 100 100 99 100 100 100 100 99 99 97 93 89 86 84 81 78 75 76 79 84 88 85 87 87 88 87 87 88 88 88 88 88 89 88 85
65 61 59 59 59 67 76 98 98 99 99 99 99 99 99 99 100 97 94 92 86 77 71 68 65 56 51 48 46 45 43 42 40 39 38 39 40 42 44 50 52 52 52 55 56 61 65 68 67

GFSSGP_700_rhum_090.txt.gz
RH
5 4 4 9 34 47 38 18 10 24 21 19 48 50 47 47 48 50 45 48 58 70 64 59 59 55 51 44 34 26 32 39 40 20 16 15 22 28 47 47 56 67 60 33 23 13 12 12 12
5 5 6 19 30 71 26 8 8 15 38 48 52 51 46 49 47 45 49 49 54 63 68 66 62 58 55 46 37 29 25 28 60 26 22 16 29 42 51 55 58 65 51 27 20 13 13 12 14
5 6 7 13 21 38 15 8 10 19 35 43 40 47 45 51 62 57 53 57 66 65 65 65 66 67 59 47 37 32 28 16 18 13 49 32 40 52 63 62 56 63 38 22 18 14 14 14 15
6 8 8 19 13 17 8 17 19 28 37 41 47 45 54 48 50 66 75 64 70 64 67 64 67 67 68 62 44 38 30 18 13 25 33 49 50 50 65 57 40 62 30 22 17 16 16 17 17
7 8 8 9 10 12 15 14 18 24 43 45 49 46 48 60 55 50 65 73 67 67 70 70 73 74 78 65 58 49 32 19 14 15 36 72 51 62 50 60 51 60 27 22 18 18 18 18 16
8 8 10 10 8 8 8 12 44 51 46 46 52 49 46 61 61 53 50 57 64 63 66 74 78 79 80 82 74 71 38 29 54 19 44 78 52 70 49 64 75 50 29 21 18 19 20 19 16
8 9 9 10 9 9 8 8 29 50 50 49 50 48 48 47 67 60 68 65 48 54 63 68 75 72 71 67 75 66 37 30 65 20 57 71 58 73 75 71 83 47 28 22 19 21 21 19 19
9 10 11 12 11 10 9 14 9 35 46 50 46 45 46 47 55 64 68 71 62 59 60 71 83 82 84 70 67 74 48 26 60 37 59 58 71 84 84 83 76 42 29 23 22 24 24 23 24
12 14 10 10 13 14 10 12 36 39 38 46 46 44 43 46 47 50 60 60 60 59 61 59 78 86 95 83 72 72 63 34 49 76 61 70 79 84 84 91 70 39 29 24 25 25 24 29 30
14 14 16 16 16 14 12 10 10 33 48 41 45 44 42 44 67 53 54 57 58 57 60 70 77 85 96 98 90 86 75 42 44 84 82 88 91 84 86 97 63 40 31 25 28 27 30 35 37
22 19 17 20 20 20 18 14 15 13 32 43 42 43 43 46 53 69 54 54 60 58 57 64 72 74 76 91 97 99 92 54 47 76 98 96 92 88 98 99 70 42 29 25 28 30 37 40 40
25 28 32 31 39 39 34 32 18 19 14 34 43 43 43 46 56 67 71 74 57 60 60 62 65 69 72 83 81 79 91 81 45 64 81 99 98 93 100 95 69 37 26 27 29 34 41 41 42
19 17 21 23 27 23 22 25 34 25 21 16 32 44 45 52 56 72 82 74 68 60 54 54 58 59 60 67 66 70 70 95 76 62 83 99 85 99 99 92 70 30 27 32 32 40 43 44 47
24 22 21 24 20 18 20 12 21 16 24 29 21 32 43 52 65 65 74 78 71 75 55 58 69 67 66 62 58 55 59 73 99 82 82 88 99 94 99 98 68 28 29 36 35 44 47 51 51
29 30 29 25 25 29 30 21 19 14 15 12 25 43 41 48 63 70 72 75 70 65 58 63 60 57 58 79 64 38 33 38 92 92 92 76 95 100 92 98 45 25 32 40 41 48 51 53 51
40 41 42 30 39 49 61 48 42 53 63 38 13 29 46 48 58 64 70 70 67 61 63 73 80 61 74 82 72 61 56 49 68 89 89 70 71 98 100 88 23 28 34 40 45 51 54 54 53
61 62 55 60 57 64 90 70 51 60 76 62 20 18 33 43 58 66 71 64 68 62 56 54 68 84 91 88 82 76 78 76 78 93 95 83 53 53 92 92 26 33 38 42 46 52 54 54 53
68 77 81 86 73 74 77 60 56 60 76 75 35 36 33 40 52 66 73 61 62 55 45 50 56 61 89 95 87 95 85 84 76 97 97 79 52 18 26 90 54 35 40 45 47 52 53 53 52
76 86 86 59 77 100 64 69 62 60 59 66 71 61 39 31 28 62 66 54 43 40 53 57 51 76 87 98 93 93 98 83 75 86 99 84 40 26 31 83 75 34 40 45 47 52 53 52 52
89 100 79 71 86 99 97 74 66 64 48 87 89 72 71 43 51 50 54 54 47 62 68 66 67 71 84 94 94 98 100 97 73 85 96 98 86 58 65 82 62 38 41 47 50 51 51 52 51
83 88 85 98 100 85 87 84 61 66 66 80 81 82 72 69 65 58 59 73 75 74 71 71 68 67 66 80 92 95 97 99 99 86 97 97 93 65 54 53 47 44 45 49 51 51 53 56 63
98 83 99 98 94 92 92 85 72 78 75 82 81 80 82 67 65 68 80 76 81 89 83 72 77 84 73 67 90 98 96 99 100 83 98 98 98 97 92 67 56 48 52 53 56 58 68 77 82
71 100 100 99 97 95 95 99 73 69 74 73 79 76 84 74 79 87 72 84 98 100 99 96 92 90 78 97 99 100 100 100 100 99 99 100 100 99 99 99 100 89 78 89 90 87 88 91 92
78 92 98 98 98 99 86 80 90 84 90 97 86 73 68 68 74 86 76 88 99 98 99 98 100 99 82 100 100 100 100 100 100 100 100 100 100 100 99 99 99 100 98 100 98 100 99 98 98
87 99 98 98 98 98 96 91 97 100 97 100 99 81 80 88 96 89 100 99 100 100 100 100 100 100 97 100 100 100 100 100 100 100 100 99 100 100 100 99 100 99 99 100 99 98 98 98 98
99 99 98 97 97 97 98 97 100 98 100 98 100 100 98 99 100 99 99 100 100 99 100 100 98 100 100 100 100 100 100 100 100 100 100 99 100 100 99 99 100 100 100 99 98 99 100 100 100
98 98 99 99 94 92 96 98 98 99 100 99 100 99 99 99 99 99 100 99 100 100 100 99 100 100 98 99 100 99 98 99 100 100 100 100 100 98 98 100 99 97 95 97 95 96 99 100 99
97 99 96 97 98 96 96 98 98 99 99 99 99 99 99 99 99 99 99 99 100 100 100 100 98 97 94 94 93 88 93 95 91 96 98 98 100 99 100 100 100 100 99 100 99 99 99 99 99
80 92 79 73 76 95 86 97 98 98 98 98 99 99 99 99 99 99 99 99 99 99 97 95 86 81 77 75 76 75 69 66 73 82 89 89 91 95 93 88 96 98 98 99 97 96 95 92 91
68 63 66 60 65 68 74 94 99 99 99 99 99 99 99 99 100 99 97 91 90 81 74 67 56 51 48 46 44 43 42 41 40 40 40 43 49 59 73 86 92 92 91 92 92 90 89 92 91

GFSSGP_700_rhum_093.txt.gz
RH
6 5 5 9 24 23 14 10 7 15 22 25 32 32 44 47 49 48 53 55 51 61 63 57 54 53 53 50 47 41 34 35 26 28 24 13 13 20 22 33 44 66 79 55 27 19 12 11 11
6 6 6 26 27 53 18 9 9 29 59 36 43 55 50 46 46 48 47 49 60 58 62 68 67 63 59 55 48 56 53 43 44 60 25 19 17 22 31 44 48 52 59 51 27 20 13 11 12
6 6 7 12 24 31 15 10 11 16 38 59 54 51 50 48 49 56 57 66 62 59 60 63 66 67 64 60 52 50 50 40 36 56 42 36 38 29 46 49 52 59 54 45 26 21 13 12 14
6 7 9 16 11 10 7 9 10 12 22 33 49 49 48 51 52 48 50 75 76 71 67 64 67 69 70 68 60 54 55 45 27 46 31 55 46 61 51 60 63 64 58 41 27 22 14 14 15
7 7 9 9 9 9 11 10 12 14 32 50 54 50 50 50 64 77 59 57 78 77 76 73 71 68 65 73 74 68 57 46 28 17 22 43 54 63 57 63 62 52 60 32 26 20 14 15 15
8 8 9 8 8 8 8 10 15 25 25 46 53 54 50 48 57 63 66 54 57 69 66 69 70 75 74 76 77 71 65 49 31 26 23 37 61 52 67 59 60 49 57 32 26 20 16 16 17
9 9 9 9 8 8 9 8 8 14 29 33 52 51 49 48 49 63 71 66 68 73 70 60 62 66 75 73 71 71 67 63 37 39 41 42 62 63 60 68 56 64 51 31 25 20 18 18 16
10 10 10 10 10 10 10 10 8 8 13 38 44 50 48 48 49 63 75 75 68 82 76 73 73 69 75 74 82 74 68 72 48 31 50 29 65 71 71 79 65 78 54 29 24 22 20 20 18
11 12 10 10 10 11 11 10 10 10 12 13 43 48 48 47 47 50 51 60 66 67 70 67 68 80 82 91 89 89 88 82 58 30 48 41 63 66 57 85 74 85 59 30 25 24 22 22 21
14 12 12 12 12 13 13 12 10 9 15 16 18 44 49 45 45 47 59 68 56 60 63 60 60 64 69 97 99 98 94 94 68 36 57 44 63 61 70 86 82 86 51 31 28 26 25 24 25
17 15 14 15 16 18 15 14 13 11 8 10 24 28 48 48 44 46 59 63 74 64 62 60 58 62 60 68 83 95 96 99 93 46 67 61 78 70 78 88 89 94 58 31 30 26 26 30 31
18 18 19 18 17 16 16 15 11 12 13 11 10 30 44 47 46 46 56 63 81 78 65 61 60 58 56 58 67 72 80 99 99 69 91 89 86 87 90 90 90 97 60 32 31 29 29 33 37
15 15 15 14 13 14 14 13 13 10 11 14 14 10 31 44 46 50 56 65 71 75 74 67 61 60 59 57 58 58 55 59 67 82 83 98 100 95 91 92 93 100 41 38 33 32 31 36 43
19 18 18 18 19 19 19 16 18 16 12 11 10 16 11 26 44 51 64 67 70 77 74 77 66 57 55 54 53 54 49 48 50 62 76 72 94 100 100 97 94 100 80 38 37 36 34 43 46
26 25 26 26 24 23 22 14 15 18 24 15 10 9 18 13 28 49 63 72 72 68 65 69 67 53 45 42 42 43 51 51 50 53 52 54 68 93 99 100 99 99 87 45 46 44 34 45 48
32 30 29 25 27 35 56 24 31 33 57 52 51 35 10 17 18 45 62 72 74 75 63 61 56 52 46 47 53 41 36 53 50 58 52 44 83 72 88 99 100 99 71 53 47 43 40 45 48
35 38 35 34 48 59 70 63 35 48 56 60 55 46 23 10 20 39 60 70 75 77 69 64 52 51 49 46 76 64 47 58 56 62 65 50 80 80 90 86 100 98 94 53 49 50 41 48 51
51 61 51 57 57 73 86 72 41 49 75 71 54 44 25 18 12 28 54 76 81 76 69 60 50 40 39 37 44 60 70 71 78 78 90 88 63 86 94 90 100 100 93 50 54 52 43 49 54
62 72 79 66 84 100 72 74 48 52 62 65 45 83 62 28 18 23 49 71 84 74 67 56 46 33 46 56 56 60 70 84 88 93 92 90 93 92 87 93 95 99 89 50 49 50 49 51 53
83 94 70 82 91 99 98 77 58 60 67 51 69 79 71 80 46 31 38 63 73 63 58 57 41 38 58 67 60 58 75 87 88 99 93 98 96 100 90 91 86 63 90 55 51 51 52 50 53
90 100 83 98 95 82 94 83 75 66 67 68 85 85 78 73 51 44 32 44 51 53 47 41 53 68 68 63 61 67 76 88 98 100 98 98 98 99 100 92 48 60 100 60 50 47 51 52 53
100 89 99 96 99 96 95 90 80 75 76 83 86 83 80 66 68 53 40 33 34 44 60 62 64 69 61 58 68 76 84 86 97 100 100 97 96 97 99 98 76 70 95 60 49 54 56 59 55
99 96 99 99 99 96 98 100 85 75 78 75 79 89 86 86 85 81 72 68 68 65 69 82 72 81 75 74 84 84 85 74 75 98 100 100 100 100 100 100 96 96 95 78 66 63 62 64 64
99 99 100 100 98 99 93 95 77 84 78 74 79 66 71 78 82 85 89 96 82 87 96 87 97 100 98 92 78 100 93 99 98 99 100 100 99 99 100 99 96 87 83 83 95 94 92 84 85
98 100 96 98 98 92 93 93 86 92 99 100 100 98 85 93 90 81 98 87 81 98 94 97 99 99 99 100 99 99 100 100 100 100 100 100 100 100 100 100 100 98 95 97 99 91 81 88 96
99 100 98 97 97 96 95 98 90 94 100 99 97 99 99 98 99 100 93 99 99 100 100 100 100 100 100 100 99 99 96 98 99 100 100 99 100 100 100 100 100 100 100 99 100 98 100 100 100
100 99 99 98 99 95 96 98 97 96 99 99 96 98 99 99 99 100 99 99 99 100 100 99 100 100 98 97 100 100 100 99 99 98 100 100 100 100 100 100 99 100 100 100 98 99 100 100 99
99 98 98 98 97 96 93 98 99 98 98 96 98 98 98 98 99 99 99 99 99 99 99 99 100 99 99 98 96 96 95 86 95 100 100 99 100 100 100 100 100 98 100 100 98 99 99 99 96
81 84 90 96 96 97 90 94 99 98 98 98 98 98 98 98 98 99 99 99 98 97 82 76 63 62 60 54 54 63 61 49 52 68 90 92 90 92 96 96 98 98 99 100 100 100 99 97 99
69 77 74 75 67 74 76 92 100 100 99 99 99 98 99 99 99 99 99 97 70 65 61 58 55 53 52 48 46 47 46 45 44 44 41 40 42 52 70 83 90 90 89 94 99 99 100 98 95

GFSSGP_700_rhum_096.txt.gz
RH
9 7 6 6 15 9 8 9 8 22 22 20 17 26 34 41 45 43 60 56 53 54 54 63 60 56 52 53 74 54 42 41 45 36 31 25 14 11 16 23 31 47 72 72 41 30 21 11 11
9 7 7 13 17 18 12 10 11 36 34 35 36 40 37 45 47 45 48 56 59 60 67 72 64 62 59 58 72 70 69 62 64 60 59 30 18 16 21 24 37 50 59 74 45 29 26 12 11
8 7 9 10 18 13 13 13 15 19 48 60 44 47 52 51 46 49 48 54 68 64 61 56 62 75 70 64 60 60 71 69 58 70 65 54 36 22 23 32 43 48 54 61 44 28 25 13 12
8 9 10 16 12 10 9 10 13 13 18 41 52 51 45 57 55 53 53 54 75 74 70 58 58 61 65 70 67 62 57 57 56 57 66 73 54 59 45 37 45 49 58 58 45 28 24 14 13
8 9 10 9 9 10 11 11 11 23 26 29 30 48 49 48 58 54 70 76 69 75 80 77 69 63 63 67 68 69 67 61 57 44 27 38 51 54 73 55 45 62 64 58 45 27 24 15 14
9 9 10 10 9 9 9 9 10 16 18 24 40 39 50 49 49 57 57 69 68 67 68 75 78 74 73 72 72 71 72 69 66 47 29 21 50 53 58 68 56 63 60 58 43 28 23 16 16
10 9 9 9 9 9 9 9 8 8 8 21 28 39 46 49 49 50 51 59 70 71 68 73 68 67 66 66 70 74 74 71 67 63 41 50 59 67 68 64 63 64 56 55 40 28 24 18 17
11 11 10 9 9 10 10 10 9 9 8 8 18 32 38 47 48 48 51 48 68 74 77 81 75 72 68 73 75 74 79 80 75 74 56 60 60 73 82 70 74 61 62 65 43 30 25 21 17
12 12 11 11 9 10 10 10 11 10 9 9 10 18 34 45 48 49 53 54 59 71 69 81 85 83 88 87 92 97 97 90 92 86 65 44 48 46 93 79 72 68 68 66 42 31 26 23 18
15 14 13 12 12 12 12 11 12 11 10 9 9 11 14 42 47 48 49 55 50 57 61 66 66 73 84 82 84 92 99 97 95 99 67 42 46 38 93 91 74 83 75 77 39 30 28 26 20
18 17 16 16 15 14 14 14 14 13 11 11 9 9 16 20 42 46 46 49 57 54 58 63 63 61 62 77 65 66 76 86 98 100 90 52 62 57 85 94 71 92 83 82 54 33 30 28 22
21 20 18 16 16 16 16 13 10 10 9 10 11 10 8 13 30 45 47 46 60 64 68 77 70 74 82 59 57 58 58 68 75 96 88 65 97 75 90 90 80 93 93 93 57 32 32 29 24
20 18 16 15 15 15 14 13 12 10 11 12 10 9 9 8 12 43 48 45 53 64 76 75 78 70 75 73 60 57 54 54 55 57 65 64 77 91 89 89 85 87 96 100 56 33 35 34 28
18 17 18 18 18 19 16 15 16 14 14 13 12 10 9 9 9 18 48 47 48 68 71 76 75 72 63 58 57 56 55 55 53 49 47 47 49 70 95 88 98 95 99 98 74 38 38 39 37
22 22 22 21 18 17 14 12 15 20 20 15 14 11 10 10 9 10 27 49 48 68 73 70 65 68 66 58 53 52 47 43 40 41 44 44 49 48 64 89 93 100 100 99 100 48 47 46 45
26 21 17 19 19 24 27 14 17 18 20 25 32 28 25 21 13 8 12 40 60 73 73 71 69 67 64 59 52 46 39 44 50 54 43 44 58 58 58 62 71 72 99 93 100 91 70 52 46
23 22 23 26 48 58 60 28 27 38 41 40 44 42 38 36 30 21 8 21 60 79 76 71 66 62 58 56 50 46 39 38 56 70 63 63 65 69 68 54 51 57 72 91 100 100 95 61 50
33 40 47 52 67 80 79 50 50 53 57 48 46 43 42 31 34 14 14 12 58 75 76 74 67 61 53 51 47 40 25 26 41 64 61 69 75 75 70 60 73 84 87 84 86 99 88 80 61
52 58 62 61 80 89 66 51 38 51 53 50 50 52 39 52 62 26 18 12 54 79 76 74 72 64 55 44 45 26 18 23 43 53 62 72 78 81 79 76 76 89 87 83 90 96 95 70 62
57 67 64 67 81 98 77 52 54 64 62 64 62 68 70 83 81 57 31 14 52 78 83 82 72 63 53 47 49 32 32 47 44 53 66 71 75 85 100 90 85 88 98 93 91 100 97 77 76
71 80 78 100 94 88 82 55 60 67 75 74 83 89 86 79 80 66 48 36 45 69 89 76 65 57 50 43 31 36 50 55 50 58 76 82 79 97 96 100 89 78 100 98 100 98 90 72 64
97 96 99 99 100 98 94 90 70 76 75 86 91 93 97 87 78 84 84 66 50 64 70 69 55 50 37 48 59 59 61 54 53 59 73 74 83 97 98 99 99 100 100 100 96 100 97 83 78
81 99 96 98 99 99 95 99 76 84 77 79 71 74 86 96 89 85 78 75 60 56 51 40 32 40 54 57 64 67 64 68 57 70 76 74 73 81 98 97 98 98 100 99 97 99 98 97 90
98 99 91 97 100 98 85 98 73 88 88 86 70 67 84 78 86 87 86 79 75 74 72 51 74 71 72 62 67 71 81 80 88 96 93 97 72 86 99 100 100 100 100 100 100 100 97 95 74
99 99 92 94 99 92 99 99 74 94 99 100 100 98 98 91 86 92 96 81 78 81 84 74 83 88 92 100 100 100 100 97 96 99 100 100 98 98 100 100 100 100 100 100 100 100 98 96 94
99 99 99 96 97 93 99 98 92 97 98 99 100 99 100 100 98 99 100 99 98 98 100 99 100 100 100 100 93 88 95 100 89 93 100 98 99 100 100 100 100 100 100 100 100 99 98 99 99
99 98 99 99 99 98 92 94 96 98 100 100 100 100 100 98 99 99 99 99 99 100 99 100 100 99 100 100 100 100 100 99 98 98 100 99 99 100 100 100 100 100 100 99 98 98 98 100 100
92 96 98 98 97 96 95 96 98 98 98 98 98 99 98 98 98 98 99 98 99 99 99 99 99 99 99 95 96 99 95 95 89 87 91 99 100 100 100 99 99 100 100 100 100 100 99 100 100
79 85 89 96 97 97 95 96 99 98 97 98 98 98 98 99 99 99 99 99 98 96 94 87 89 86 79 63 58 57 59 54 48 48 50 58 71 79 89 93 96 98 100 100 100 100 100 100 100
70 80 82 88 71 80 82 89 100 99 98 100 99 99 98 98 98 98 97 94 82 78 76 73 70 66 64 60 56 55 55 53 52 49 47 46 46 46 46 47 58 77 78 79 95 99 98 98 98

GFSSGP_700_rhum_099.txt.gz
RH
11 9 8 8 12 8 7 8 8 12 14 16 17 38 41 40 43 40 67 59 57 58 54 53 62 69 59 63 68 62 47 43 42 43 37 35 23 14 13 18 26 29 44 74 55 32 23 18 10
10 9 8 11 12 11 11 10 11 14 19 27 23 24 31 39 43 40 52 55 53 58 70 74 67 64 63 66 69 68 64 63 61 59 56 60 29 17 17 21 25 33 47 80 68 36 24 18 11
10 9 10 10 11 13 13 14 14 20 34 36 33 30 40 41 44 45 46 50 49 58 58 66 62 74 74 69 63 63 63 65 66 59 62 60 58 31 21 23 27 47 60 56 58 39 27 22 13
9 10 13 15 11 10 12 12 14 18 26 31 44 43 41 42 38 37 47 52 58 64 59 61 60 66 72 71 69 65 65 61 58 57 54 68 77 56 51 34 45 39 57 60 57 39 26 22 15
10 11 14 13 13 12 13 12 12 14 18 18 23 43 44 42 40 41 45 45 58 67 76 68 65 62 65 64 66 69 68 67 66 64 53 42 50 62 57 63 51 44 50 63 58 42 26 22 16
10 11 11 11 10 10 10 10 10 11 14 18 20 19 34 43 47 46 44 51 50 65 69 80 76 71 70 72 73 71 71 72 74 74 70 46 27 54 65 64 70 54 57 66 60 44 26 24 18
10 10 10 9 9 10 9 9 9 9 9 11 13 16 24 30 45 48 52 58 50 57 74 72 78 81 76 73 74 74 72 70 72 74 72 61 50 50 69 71 71 67 62 63 56 45 27 24 21
10 11 10 9 9 10 10 9 10 10 10 10 8 9 12 23 36 47 47 47 58 60 69 78 70 73 68 67 75 80 79 82 87 85 76 72 53 58 68 81 76 79 70 64 61 50 28 25 23
13 12 11 10 10 10 9 8 9 9 10 10 11 10 9 14 28 42 48 47 46 50 56 65 78 83 83 83 91 99 100 100 100 100 92 80 54 63 66 74 91 80 78 65 67 50 30 27 25
16 14 13 12 12 11 10 10 10 10 11 10 10 10 10 9 13 34 47 49 49 54 57 54 64 73 84 93 97 98 94 95 99 100 99 98 66 55 65 58 84 93 81 69 73 52 30 29 28
18 18 16 15 14 14 13 12 12 10 9 11 11 10 10 9 10 11 38 48 50 53 57 61 60 62 62 70 81 85 76 68 68 75 100 96 71 59 62 44 77 86 85 83 79 70 41 31 30
21 21 19 18 18 16 15 13 11 11 11 10 9 8 9 10 9 10 11 34 47 49 54 54 53 54 57 61 61 72 65 58 55 58 67 80 84 89 99 86 88 91 90 85 88 81 41 34 33
26 22 20 18 16 15 15 14 14 12 13 13 12 10 9 8 8 9 9 15 33 46 49 56 60 58 60 60 70 62 58 54 53 52 52 52 72 73 70 77 96 94 94 82 92 92 60 37 37
22 20 17 16 17 18 17 16 15 14 12 11 10 10 10 9 9 8 9 10 22 37 48 59 64 72 66 65 68 69 60 56 53 53 51 50 52 52 58 56 64 84 93 91 97 95 97 41 41
20 18 19 20 18 16 14 13 14 13 16 15 14 12 11 10 10 9 8 9 15 38 45 59 68 77 71 65 60 58 55 53 52 49 45 39 36 39 50 47 49 56 79 89 97 100 100 90 48
24 22 18 18 15 22 22 18 25 35 34 28 26 24 19 19 15 12 13 8 10 33 47 52 78 82 76 69 65 62 60 55 50 44 40 36 34 39 43 46 50 51 59 77 80 87 96 99 88
20 19 19 32 40 50 47 34 45 36 27 24 30 30 30 29 28 30 27 18 12 14 49 51 74 81 76 74 71 65 58 53 50 46 41 38 49 46 55 50 57 60 57 58 68 77 82 91 95
20 31 41 45 58 60 55 43 41 32 26 25 30 40 38 40 37 31 24 21 16 12 44 56 85 85 79 73 67 62 56 50 44 38 28 28 46 62 64 63 57 58 63 64 60 74 79 95 96
41 47 50 53 68 61 49 42 38 38 37 41 42 44 50 42 40 38 40 32 13 13 38 82 87 82 74 68 62 58 52 46 42 31 28 21 45 58 69 71 67 70 74 67 72 63 72 89 97
47 51 54 54 76 75 65 56 44 55 54 48 51 52 56 60 71 67 66 32 20 17 56 86 82 77 72 66 61 52 44 44 46 39 23 26 44 53 68 70 73 74 85 86 89 80 91 93 94
57 57 67 77 89 91 88 69 54 68 67 51 71 57 81 84 72 74 59 34 23 24 66 79 81 74 74 70 64 56 47 40 32 27 32 48 45 50 66 75 76 84 87 94 94 88 95 92 96
56 63 78 98 97 97 93 89 75 69 74 70 73 84 79 90 76 81 86 48 40 45 72 77 80 85 78 67 54 45 35 40 55 52 52 49 50 56 58 72 91 87 91 97 100 93 98 99 98
74 94 92 90 99 100 100 99 69 68 71 78 69 72 69 71 87 89 94 86 77 69 78 80 80 79 65 54 44 33 50 53 58 58 59 49 50 53 69 69 85 91 93 100 100 99 100 99 100
92 80 95 89 100 97 87 92 75 68 73 81 95 97 67 69 95 93 84 89 82 69 72 69 66 54 44 39 51 58 64 67 75 85 90 72 83 80 95 75 78 86 92 98 100 98 97 98 100
87 98 94 91 90 89 95 99 71 86 96 95 99 97 100 98 95 100 100 99 87 82 76 70 63 64 74 83 88 96 96 92 99 99 100 100 98 97 99 93 94 93 99 100 98 100 100 100 100
99 99 94 99 95 90 99 93 93 98 97 98 99 100 99 100 99 100 100 100 100 100 95 95 100 91 60 98 96 97 100 100 100 98 96 100 98 100 100 100 100 100 99 99 99 100 99 100 99
98 99 99 99 98 98 85 95 97 98 98 96 98 100 100 99 99 99 99 99 98 99 100 99 99 99 100 99 100 100 100 100 100 98 97 100 100 99 100 100 99 100 100 99 100 100 100 100 100
84 89 99 99 98 92 87 96 98 98 98 97 97 97 98 98 98 98 99 99 99 99 99 99 99 98 98 96 96 98 99 98 94 84 84 71 86 97 100 100 100 100 100 100 100 100 100 99 99
87 82 84 95 98 94 92 91 98 99 98 99 98 98 98 98 98 98 98 99 99 98 96 96 95 95 89 79 86 63 62 68 64 58 50 49 48 49 49 67 84 96 98 99 100 100 100 100 99
66 74 83 90 77 83 84 80 95 99 98 100 100 100 98 98 98 97 96 94 89 81 76 75 73 70 68 60 57 54 51 48 45 44 43 44 45 46 48 48 48 48 47 45 48 75 98 98 99

GFSSGP_700_rhum_102.txt.gz
RH
14 13 10 8 19 10 20 14 7 10 12 11 9 19 35 31 52 54 56 54 52 40 46 48 50 64 69 59 61 55 53 50 48 49 46 43 34 19 14 17 24 33 38 64 56 30 24 24 13
14 13 10 11 34 18 17 10 10 11 11 14 14 16 30 70 34 32 62 58 55 58 61 63 64 58 69 68 69 66 61 59 60 60 65 60 58 24 17 18 23 28 44 73 70 34 24 22 15
12 12 12 13 26 18 23 14 15 12 13 17 22 20 23 21 20 30 42 57 53 55 64 73 72 69 68 69 67 64 63 60 60 60 57 60 70 50 28 22 24 28 62 67 64 43 26 22 17
11 11 14 20 26 27 18 16 16 17 21 25 30 35 27 26 19 24 30 36 45 51 59 67 64 70 70 74 73 70 65 63 62 60 59 54 71 74 52 50 50 52 58 66 63 44 25 22 19
11 12 18 17 26 12 12 14 15 17 18 24 36 44 33 32 28 30 32 36 41 47 47 61 58 62 70 72 73 68 64 67 67 68 68 65 48 46 63 63 63 59 47 50 66 52 28 23 21
12 14 16 25 16 13 13 13 13 13 15 19 21 25 38 36 34 32 35 41 46 47 60 53 65 68 72 70 70 66 68 73 72 73 77 78 66 41 49 66 67 72 55 57 68 64 34 24 23
11 11 13 10 9 10 10 10 10 11 13 16 16 18 20 22 25 29 38 42 47 51 53 62 73 74 78 84 82 80 80 82 82 83 84 82 74 64 56 66 72 74 76 69 70 67 45 26 25
10 9 9 8 9 10 9 10 10 10 10 10 10 12 17 13 18 26 33 44 51 60 55 67 69 73 77 77 78 85 85 91 90 90 90 87 76 60 58 70 76 82 83 73 69 64 53 29 27
12 11 11 9 9 9 9 9 8 8 9 9 10 10 11 11 15 21 28 35 41 46 53 57 69 72 73 74 69 73 83 97 83 95 96 96 83 67 61 68 72 84 83 85 78 64 60 32 29
14 13 12 10 10 10 10 10 9 8 8 8 9 9 8 9 10 10 21 32 38 39 40 43 50 59 72 75 77 85 90 91 96 88 91 95 95 92 61 70 74 70 90 85 80 74 66 41 31
16 15 15 14 13 13 13 13 12 10 9 9 10 10 10 9 9 9 9 19 31 43 46 44 43 46 60 68 81 91 96 99 92 78 73 94 98 89 75 62 61 56 77 90 85 76 72 59 34
18 18 18 18 17 16 15 13 12 11 10 10 10 10 9 8 8 9 9 9 21 34 50 55 53 53 54 62 60 65 76 81 87 66 57 62 76 93 77 75 78 61 72 86 100 87 81 77 52
23 22 22 21 19 17 15 14 13 11 12 11 11 11 10 10 9 8 8 8 9 15 43 48 54 58 58 56 56 55 56 62 70 77 69 51 52 57 58 81 75 80 88 89 83 98 86 88 73
24 23 20 18 17 15 15 15 15 13 12 12 10 10 10 9 9 8 8 8 8 9 14 43 49 54 58 58 56 57 58 60 56 57 54 50 49 50 49 49 74 61 57 68 81 91 92 92 100
25 22 19 17 17 17 16 14 16 16 16 16 16 14 12 12 11 10 9 9 8 9 9 12 41 49 55 62 64 61 58 68 66 58 53 52 49 45 41 37 40 48 55 69 71 78 87 91 92
22 20 21 17 16 17 19 27 27 33 25 21 16 16 16 16 18 18 18 13 10 10 9 10 19 42 57 68 71 68 65 62 58 56 57 50 44 41 38 39 32 31 42 49 68 66 73 76 86
23 21 18 19 25 28 29 27 37 31 21 17 17 16 16 16 22 28 26 24 21 19 11 9 14 31 57 79 81 74 68 64 62 61 56 49 47 45 42 38 33 30 44 48 49 67 68 61 82
20 18 22 32 41 35 41 31 39 41 26 32 32 24 25 30 33 33 34 33 31 28 22 17 15 36 47 78 96 89 76 70 67 61 55 51 45 41 36 30 38 52 50 55 58 58 74 75 68
20 31 38 40 48 43 45 36 42 47 37 45 39 32 34 39 38 34 32 37 41 40 24 19 18 49 63 77 92 87 78 74 66 58 51 48 43 38 34 26 36 55 60 63 68 69 71 61 66
38 43 45 46 60 63 52 40 44 44 54 52 43 35 40 39 52 62 56 59 58 51 28 19 20 59 99 98 91 82 76 68 62 53 45 48 45 40 27 22 31 54 61 67 62 66 73 79 79
45 48 48 60 67 80 63 66 50 53 61 61 57 48 59 68 62 65 63 70 50 39 30 23 26 94 93 89 84 77 70 61 56 49 48 45 38 37 31 31 40 48 55 64 73 83 84 90 94
48 55 63 77 97 91 89 78 77 66 66 70 71 72 60 70 73 68 67 75 62 33 31 31 63 82 84 82 84 75 66 61 55 51 42 35 51 53 56 56 49 50 56 63 77 86 90 94 98
74 69 84 89 100 99 94 100 73 66 68 77 83 82 85 75 60 69 82 83 72 70 71 79 85 88 93 83 72 72 66 57 50 34 45 51 58 63 57 48 47 56 60 63 80 91 80 88 100
74 79 79 98 100 95 83 95 69 78 84 86 94 99 100 98 67 72 94 98 77 64 73 82 90 88 94 86 82 72 60 46 33 54 76 85 97 93 74 73 66 86 84 91 84 89 96 98 98
84 89 86 86 93 79 88 98 79 78 98 91 96 99 98 99 100 99 99 99 98 80 59 55 67 79 75 66 58 53 76 65 88 93 95 100 94 100 99 90 88 97 90 89 97 89 97 99 99
100 95 96 88 74 71 96 91 95 91 90 91 91 98 99 100 99 100 98 99 98 98 92 79 75 72 63 59 94 98 97 98 99 100 100 96 98 100 100 100 100 100 100 100 99 100 100 100 100
94 98 99 98 91 95 77 96 88 89 88 89 90 92 95 99 95 100 98 98 99 98 99 99 99 100 100 100 100 100 99 100 100 99 100 95 91 99 100 100 100 100 100 100 100 99 100 100 100
92 98 99 98 90 74 64 87 92 90 91 92 91 92 95 94 97 99 99 98 98 98 98 99 98 98 98 99 99 99 98 99 99 87 79 76 69 79 81 96 99 100 99 100 100 100 100 100 100
95 99 88 95 100 75 65 66 81 88 94 95 92 91 90 92 99 99 98 98 99 98 96 96 95 95 93 87 85 71 60 63 61 59 54 52 54 54 54 53 51 67 89 99 100 100 100 100 100
79 82 76 84 79 81 76 65 82 80 81 82 82 87 92 99 99 99 97 95 93 87 84 83 78 69 63 56 50 44 40 36 34 32 31 30 30 29 30 32 34 38 42 45 48 46 50 61 87

GFSSGP_700_rhum_105.txt.gz
RH
16 14 11 9 37 29 23 21 33 39 28 40 15 22 41 40 42 68 52 31 34 34 39 47 50 57 63 63 58 60 50 52 54 56 55 49 51 30 17 14 21 29 37 62 64 36 26 23 16
16 15 12 36 48 23 18 28 39 52 38 11 12 13 30 66 34 42 29 40 44 46 36 50 54 60 60 65 63 72 68 62 61 62 62 64 58 56 19 15 18 24 41 64 66 49 27 23 19
15 13 18 50 26 21 26 38 55 27 12 19 41 23 53 87 20 26 32 51 54 57 51 60 64 59 61 64 67 69 68 67 61 63 62 56 57 72 43 25 20 25 46 73 72 54 31 23 21
14 12 21 37 25 32 40 50 41 20 16 20 25 48 21 19 16 18 24 40 55 53 58 61 73 69 69 69 74 74 69 65 64 63 63 62 60 70 63 52 58 35 54 74 66 57 36 24 22
11 23 45 32 29 39 40 36 14 39 46 42 30 50 34 25 20 21 23 25 36 44 49 51 60 63 65 71 77 76 74 68 65 67 69 70 68 52 48 62 64 60 61 61 59 64 50 29 23
11 30 37 30 29 42 26 13 13 17 36 33 28 29 49 21 23 25 26 27 29 37 44 48 48 56 51 58 62 73 74 69 72 74 74 78 78 68 61 56 67 69 67 53 54 65 62 41 27
50 21 26 26 27 34 29 13 15 29 30 36 14 21 44 17 18 21 24 28 32 40 48 57 61 50 65 59 67 69 75 79 81 80 78 81 79 78 70 70 66 74 76 73 64 70 70 50 34
16 21 28 26 26 33 10 10 10 10 32 11 11 23 28 28 13 12 15 23 34 42 54 55 59 66 78 73 76 80 80 81 82 82 83 81 81 77 66 59 63 70 81 89 76 72 70 59 40
11 19 26 34 27 30 9 10 9 8 8 8 8 8 10 10 10 11 11 16 25 42 56 65 68 74 73 77 79 80 75 75 80 77 77 78 83 83 75 59 62 68 84 88 91 80 73 65 52
12 20 29 21 14 12 9 9 8 8 8 8 8 8 8 8 8 8 9 10 15 24 39 50 61 62 69 76 77 79 74 70 70 72 73 72 84 81 85 79 61 70 67 77 91 85 82 72 62
14 36 17 12 12 12 11 11 10 11 9 10 8 8 8 7 7 8 8 8 8 12 20 32 40 44 50 62 71 75 75 76 75 78 82 87 85 85 89 89 80 66 60 60 71 95 91 79 76
16 16 16 15 14 14 14 13 12 11 10 10 8 8 8 8 8 8 8 7 8 8 9 20 34 41 42 47 58 68 75 84 88 94 90 72 61 75 99 89 79 71 64 52 48 80 86 92 84
20 18 18 18 17 16 15 13 12 9 9 9 9 10 9 9 9 9 9 9 8 7 8 8 17 39 53 50 59 56 64 72 83 83 83 79 68 75 65 70 80 87 84 80 80 74 74 82 86
22 21 20 19 17 16 14 12 11 11 10 11 11 10 10 10 9 9 9 9 8 8 8 8 8 14 40 59 67 66 63 60 65 61 60 62 72 70 66 59 61 52 73 83 69 67 83 82 81
24 22 20 18 16 14 13 12 14 14 14 13 13 13 13 12 11 10 10 10 10 9 8 9 8 8 16 41 58 70 65 61 65 65 63 59 56 53 51 50 48 44 38 47 64 69 71 77 86
22 21 30 24 16 15 16 20 41 18 19 20 18 14 12 12 12 12 11 11 11 11 11 10 9 8 9 23 48 61 70 66 71 67 65 62 58 53 50 46 41 37 38 37 31 32 48 83 82
24 55 32 44 22 20 19 25 45 34 25 22 20 22 25 22 16 16 18 19 19 18 19 18 13 10 10 10 37 52 66 74 79 74 73 68 58 56 52 46 45 46 43 40 36 34 36 41 65
53 36 19 34 48 23 24 20 24 36 31 36 35 33 32 20 21 23 26 27 27 27 28 28 26 20 13 11 25 51 74 82 82 74 68 63 64 60 52 50 48 44 40 36 32 41 51 51 50
21 18 21 33 32 30 32 26 27 38 46 40 47 43 31 21 28 31 32 37 46 49 48 39 28 26 25 18 28 48 97 100 94 82 77 71 66 58 55 49 46 44 38 34 30 51 57 61 61
22 31 54 46 38 43 38 33 41 53 49 50 51 45 35 28 40 50 52 53 56 55 57 52 50 51 30 24 28 60 99 98 98 92 78 72 64 57 52 48 45 43 39 31 23 43 59 61 64
42 63 71 60 61 67 85 62 63 48 50 49 53 49 54 53 46 43 53 57 64 63 44 24 26 53 57 38 47 88 98 92 92 83 76 67 60 53 47 47 46 41 42 38 26 38 53 67 71
78 47 51 65 92 82 86 71 70 77 66 65 89 55 64 62 64 56 53 67 74 78 59 56 94 47 33 39 60 82 92 98 90 92 74 63 56 53 51 43 34 36 36 32 32 47 56 60 71
93 60 81 100 98 99 86 97 66 69 75 91 93 79 79 78 61 53 50 51 73 79 78 88 92 68 67 85 82 92 99 99 91 83 67 61 58 51 33 48 56 54 48 46 52 60 65 67 76
68 88 84 98 99 88 77 78 61 76 83 73 84 98 89 82 66 50 51 71 87 84 75 81 93 97 98 99 98 97 92 93 81 75 68 62 50 42 72 79 75 81 73 55 61 69 80 89 88
84 88 88 87 91 75 74 78 68 83 80 83 84 85 80 66 75 70 94 96 99 98 89 73 69 81 87 86 97 97 93 91 80 64 52 46 83 80 96 100 99 95 84 84 86 89 92 95 88
97 96 94 80 73 69 84 87 80 81 81 82 82 81 78 82 87 84 83 99 94 97 98 88 81 62 62 68 60 67 63 60 45 83 100 99 100 100 99 100 100 100 97 100 100 100 99 100 100
96 98 95 88 83 91 74 87 85 76 85 85 82 80 80 79 82 88 93 94 95 98 100 99 96 88 88 97 100 78 82 65 85 97 99 98 99 95 93 92 99 100 100 100 100 100 100 100 100
87 92 92 98 90 75 68 71 85 71 72 79 81 79 76 76 81 97 100 99 100 99 98 99 99 98 98 99 99 99 99 100 99 99 95 84 86 92 81 69 75 92 99 99 100 100 100 99 100
94 98 95 92 89 80 58 63 57 62 64 64 71 71 68 69 84 99 98 98 98 97 96 91 91 91 86 80 76 77 58 58 61 57 50 42 40 41 44 43 41 43 52 52 80 96 100 100 100
94 86 75 71 68 70 66 60 56 60 64 60 64 68 76 87 93 89 77 71 67 67 72 71 65 54 46 39 34 30 28 26 24 24 23 22 21 20 19 19 19 20 20 22 24 31 40 44 46

GFSSGP_700_rhum_108.txt.gz
RH
14 13 11 8 22 25 33 23 28 22 24 33 27 30 37 44 45 58 67 43 43 27 42 50 52 57 64 65 63 60 54 52 60 63 60 60 58 57 24 14 12 19 34 60 60 54 33 28 21
15 13 11 17 40 36 22 30 28 36 29 16 13 22 40 48 49 39 42 39 38 27 22 36 50 57 61 69 65 70 60 64 64 62 64 63 59 62 37 18 15 17 52 78 73 66 42 27 24
15 14 14 38 27 33 36 35 44 33 28 18 24 18 38 52 40 27 26 42 42 47 40 31 47 54 61 62 66 72 77 73 67 63 61 63 61 67 64 40 20 21 42 61 75 65 55 32 25
14 13 21 37 31 33 41 50 44 38 16 16 35 28 31 37 22 19 27 34 52 54 57 58 58 57 60 59 66 67 74 73 71 67 63 64 64 62 54 56 54 30 30 62 73 57 50 44 29
13 14 33 27 32 37 46 36 26 48 45 39 33 49 31 25 19 20 18 18 32 55 53 57 65 70 68 65 70 70 76 74 70 67 68 68 68 67 60 52 64 63 51 71 73 60 59 50 39
12 29 43 39 31 36 34 29 19 37 38 30 30 31 31 22 24 25 24 22 23 30 41 47 48 50 62 67 71 72 74 76 73 69 67 70 70 75 69 58 54 68 68 65 61 50 57 59 47
16 31 35 30 32 32 32 19 16 28 33 21 16 22 28 25 16 18 21 25 27 33 36 34 34 32 47 57 54 69 74 77 75 68 68 70 70 75 73 72 67 65 73 78 75 56 59 66 56
28 27 29 26 27 34 27 15 12 14 21 14 14 18 31 17 12 13 12 14 15 22 36 49 50 49 54 42 57 61 69 74 74 70 70 71 68 71 71 69 66 62 65 78 85 78 69 65 63
20 22 28 30 28 32 23 10 10 10 10 9 8 8 11 12 7 7 8 9 11 13 18 38 55 60 55 66 76 75 75 76 75 74 73 70 68 69 70 71 67 58 61 72 83 93 90 75 66
13 23 35 35 33 27 12 10 8 8 8 8 9 8 8 6 7 7 7 7 7 8 11 18 40 67 68 69 67 74 80 84 80 79 75 70 67 62 63 67 72 68 61 63 67 83 87 87 82
12 35 34 30 14 11 10 10 10 10 9 10 9 8 8 8 7 7 7 7 6 6 7 8 11 25 51 69 66 65 77 80 80 75 71 67 67 67 78 73 68 80 76 66 63 61 68 88 89
15 14 20 15 14 14 13 12 11 9 9 9 8 7 7 7 7 8 7 8 8 7 7 7 8 8 12 24 41 48 62 69 71 79 80 80 81 83 78 73 77 87 80 77 64 51 49 64 76
16 15 16 14 14 14 12 12 10 8 8 8 8 8 9 9 9 9 9 9 8 8 8 8 8 7 8 9 16 34 47 62 71 76 87 93 94 81 73 78 56 65 73 82 83 84 85 77 76
17 17 17 16 14 12 10 10 9 8 8 10 10 11 11 11 10 10 10 9 9 9 8 8 8 8 8 8 11 23 40 58 70 68 73 97 97 89 78 65 77 76 61 64 63 76 85 87 83
22 21 20 17 14 13 12 9 14 12 14 13 13 13 12 11 10 9 9 8 8 8 8 8 8 8 8 8 8 16 42 59 70 70 71 64 72 70 59 61 64 59 56 51 48 48 55 78 86
22 21 21 18 19 14 13 11 24 15 16 14 15 15 13 13 14 14 12 11 10 10 10 10 10 10 9 9 9 8 23 53 69 72 75 74 71 67 61 57 55 55 52 45 37 36 37 36 33
22 24 26 29 20 17 15 14 24 24 23 19 21 22 27 26 24 22 19 16 16 16 16 16 15 14 13 11 10 9 9 33 61 68 72 79 76 69 64 60 58 55 47 43 42 45 43 40 40
38 29 24 23 29 19 16 14 15 19 28 34 27 30 28 31 32 28 21 18 19 24 26 26 21 20 20 18 17 15 10 11 39 62 74 81 78 74 71 64 61 60 52 48 49 47 43 39 34
42 27 22 26 29 20 20 20 15 25 39 69 40 44 40 39 36 28 22 23 29 32 35 37 39 39 38 38 25 25 21 12 24 59 85 76 83 80 74 65 67 62 54 53 50 46 40 35 33
22 21 46 51 37 30 33 25 30 30 55 50 46 46 43 44 42 42 44 36 36 40 41 44 48 42 43 48 48 38 28 20 28 52 85 88 87 82 78 74 68 61 57 53 49 45 44 40 36
30 55 68 52 40 51 68 53 56 50 47 48 52 47 46 52 49 44 45 48 39 45 48 47 46 53 33 32 40 64 40 45 48 64 79 98 94 90 86 80 67 61 56 52 50 43 33 30 37
78 60 45 55 67 83 69 76 60 69 65 60 61 56 58 62 58 51 46 39 40 40 51 59 56 80 50 52 49 81 65 62 72 97 88 99 97 89 88 72 68 59 55 51 47 36 36 45 42
95 58 68 96 98 94 85 89 65 67 68 78 59 68 69 61 53 40 38 38 35 46 54 69 61 82 97 85 75 72 78 92 94 99 96 97 94 82 81 71 63 60 54 34 38 49 51 52 56
72 71 89 96 96 89 79 79 64 70 69 62 71 70 61 60 46 36 36 38 45 61 74 79 61 76 76 84 94 100 100 93 94 88 93 99 98 88 78 69 64 54 46 66 63 74 73 65 60
74 97 85 94 88 90 73 72 63 68 55 65 72 72 64 66 68 71 59 58 55 69 75 89 90 78 70 89 100 99 92 96 98 90 93 77 70 68 68 63 57 69 76 98 100 91 83 90 82
96 98 87 81 84 84 74 77 55 61 66 73 74 70 68 72 76 75 79 73 73 72 74 97 99 99 98 93 75 64 69 76 76 72 69 62 52 51 70 84 96 99 100 100 100 100 100 100 100
90 93 93 84 76 86 70 68 72 69 66 62 66 66 66 69 70 72 76 76 81 89 98 99 100 100 100 95 98 99 76 72 54 62 63 66 84 99 99 99 99 97 86 81 97 100 100 100 99
97 93 92 89 95 90 68 73 65 53 60 57 63 62 64 66 69 71 77 81 93 95 97 98 98 98 95 98 98 99 98 98 98 99 100 99 97 93 80 74 71 62 60 45 62 96 100 100 100
98 90 90 84 81 80 84 68 58 38 54 56 56 56 61 63 67 81 90 92 91 72 70 72 64 52 48 43 38 37 42 35 32 36 42 41 41 38 31 29 27 24 22 20 20 22 37 45 76
83 87 83 70 83 77 69 65 56 39 36 50 60 61 64 61 58 64 60 61 61 62 63 61 54 42 33 28 25 22 20 18 17 16 16 15 15 14 13 12 12 12 11 11 10 11 11 11 11

GFSSGP_700_rhum_111.txt.gz
RH
13 12 11 8 9 11 15 28 25 25 25 20 22 27 28 34 33 44 40 57 51 50 37 47 55 58 67 66 58 56 57 53 58 60 60 58 57 54 47 16 12 14 22 38 48 57 52 32 27
13 12 11 10 25 22 29 36 27 22 21 21 24 34 34 34 34 40 50 51 36 34 30 48 52 54 64 68 68 60 61 60 65 64 62 62 62 56 52 26 14 14 72 83 85 69 60 42 31
14 12 11 15 31 39 41 41 30 25 24 21 17 24 33 26 35 45 37 31 31 25 25 28 45 59 65 71 72 68 75 69 68 67 64 61 60 58 63 51 32 16 39 49 84 75 53 48 37
15 12 18 24 29 38 44 49 45 37 36 22 15 20 25 22 47 43 38 37 50 46 41 44 42 56 57 70 71 67 73 79 76 71 64 63 63 61 60 52 53 45 22 46 77 72 54 47 42
14 14 24 25 44 45 45 42 39 37 27 21 21 20 23 31 29 24 19 25 32 50 54 56 56 65 68 63 65 72 70 80 78 75 68 68 66 64 65 60 54 59 55 40 72 75 59 53 47
14 18 26 26 39 42 38 38 37 31 28 27 30 24 26 26 25 22 22 20 22 26 44 55 55 60 70 72 69 70 73 82 83 80 73 71 67 65 64 66 59 54 63 62 60 66 53 42 49
14 22 30 34 41 40 34 34 29 28 21 19 25 32 20 16 17 17 17 21 21 25 28 30 41 44 49 50 62 63 72 76 78 78 75 71 70 69 66 67 69 66 61 66 68 70 60 51 54
16 26 33 29 39 36 32 30 18 16 18 18 22 20 16 14 11 13 12 13 13 14 20 28 29 30 36 48 53 66 64 59 70 73 73 70 67 71 69 68 72 70 67 64 70 78 78 67 62
18 25 28 27 31 30 28 17 11 13 12 11 12 14 13 6 5 6 6 6 7 8 10 13 20 27 33 44 56 58 66 79 75 78 78 76 75 74 72 67 67 68 67 60 61 67 79 84 78
25 27 31 30 26 24 20 11 10 9 8 8 8 8 8 8 8 7 6 6 6 6 6 7 10 15 23 33 44 54 74 83 84 84 84 80 77 76 77 72 69 74 76 70 61 59 66 73 82
18 27 35 34 27 16 11 9 10 10 10 9 8 7 7 7 6 6 6 6 6 6 6 6 6 7 10 18 25 32 50 55 70 82 87 83 79 74 70 71 74 83 83 82 80 68 64 63 71
13 16 27 29 25 12 12 11 10 8 10 8 8 8 8 8 8 7 8 8 8 8 7 7 7 7 6 7 12 21 29 37 44 61 79 78 78 77 76 75 80 78 77 86 88 83 72 57 53
14 13 13 14 14 13 11 10 9 8 8 8 9 8 9 9 10 10 10 10 10 9 9 9 8 8 8 8 7 8 12 21 31 33 50 64 77 81 84 93 82 76 79 52 62 79 77 79 86
14 15 14 14 12 12 10 10 8 8 8 10 10 12 12 11 11 11 10 10 9 8 8 8 8 9 8 8 8 8 8 10 16 28 37 59 72 75 82 91 75 79 67 55 66 73 71 65 67
18 16 15 12 12 11 9 8 9 10 10 12 14 12 12 11 10 9 8 8 9 10 9 9 8 9 8 8 8 9 8 8 12 22 36 46 66 72 89 96 93 86 59 68 75 69 64 76 71
20 18 15 12 11 12 11 9 9 12 13 14 14 12 12 12 13 13 16 16 18 18 18 16 14 13 12 10 9 9 9 9 9 20 45 50 50 66 77 79 82 68 64 63 60 57 52 45 38
22 19 15 14 17 14 14 12 13 14 14 15 15 13 13 14 16 18 19 21 26 25 22 18 16 15 15 15 14 12 10 9 9 11 32 57 60 75 69 75 70 64 61 63 61 58 50 44 51
22 21 30 27 20 16 16 13 17 18 19 22 21 17 16 21 25 23 28 30 30 26 20 19 24 26 23 21 20 19 18 12 12 12 14 38 60 79 80 76 71 74 68 64 60 56 50 47 49
47 38 28 28 19 20 20 17 15 21 24 29 23 25 33 30 34 36 36 34 31 25 24 29 35 35 34 33 31 31 32 32 22 22 26 33 52 81 90 89 81 80 78 68 63 63 59 52 52
30 27 33 38 36 27 24 16 16 17 27 35 40 37 34 38 44 46 45 43 38 35 28 31 32 39 42 39 41 39 34 45 44 30 34 43 68 75 94 94 91 84 80 70 70 64 58 58 55
28 38 43 46 28 29 22 23 25 33 38 44 48 40 43 50 53 51 46 38 35 30 28 31 39 44 43 52 38 20 26 42 59 47 67 53 68 80 98 100 100 96 90 82 73 66 63 60 58
42 51 47 43 36 44 41 54 32 37 49 55 46 53 57 60 60 54 48 32 27 26 28 36 52 54 42 68 58 37 53 79 79 58 72 74 75 86 97 90 99 98 94 83 76 68 65 60 52
49 54 46 50 62 66 64 80 46 59 64 62 59 60 66 70 59 49 37 26 21 25 30 51 66 61 40 78 74 64 71 78 79 87 98 100 95 100 100 94 91 91 87 78 73 68 64 55 48
45 48 60 79 89 95 73 81 53 64 62 65 65 68 71 71 61 53 45 48 39 36 49 60 70 75 52 46 59 67 84 92 96 96 99 97 98 99 97 99 98 90 85 78 71 62 54 51 46
52 53 86 90 97 88 75 85 51 53 55 60 64 68 66 62 60 60 60 62 58 55 57 61 69 79 80 69 59 63 90 79 90 97 99 87 84 87 81 78 72 72 76 79 67 68 85 96 98
96 94 87 92 98 89 80 72 46 54 53 58 59 57 58 54 53 55 58 58 59 59 57 59 72 85 99 100 99 90 89 79 71 83 78 72 65 70 70 68 65 77 68 66 95 93 82 81 95
90 88 91 93 80 90 65 60 57 53 49 54 53 53 51 53 57 57 57 61 66 73 76 82 95 88 94 100 100 100 100 100 99 95 89 92 99 98 99 99 100 99 99 97 97 89 76 50 78
92 95 93 90 96 80 71 71 62 47 36 46 51 49 48 48 52 54 55 66 83 79 79 74 70 46 43 42 48 59 68 45 43 62 76 91 92 93 97 96 78 41 39 34 34 32 28 21 18
90 89 86 79 76 83 91 62 61 52 32 26 36 49 48 44 37 33 38 50 53 51 44 41 41 37 32 28 24 22 21 20 20 20 20 21 22 20 19 18 16 14 13 12 12 12 12 12 12
87 72 76 76 86 79 79 63 46 50 42 36 27 28 30 30 32 34 38 38 39 38 41 42 43 39 30 24 22 21 21 20 19 17 15 13 12 12 12 12 13 14 14 14 13 13 12 11 10

GFSSGP_700_rhum_114.txt.gz
RH
12 12 10 8 7 9 15 26 28 25 26 24 23 22 20 25 29 37 28 25 33 44 45 39 50 54 64 66 65 61 60 58 53 60 63 62 59 55 54 25 13 12 17 32 60 62 56 45 40
13 12 11 8 12 13 28 30 27 27 26 23 21 22 21 23 29 37 36 45 41 40 43 43 48 55 57 72 69 67 64 60 58 65 63 62 60 56 61 41 23 12 36 84 83 70 56 47 43
14 12 11 10 23 30 29 34 30 25 24 24 23 18 18 25 31 40 40 34 28 29 31 29 48 56 55 66 74 72 68 67 64 68 67 64 60 57 58 59 44 24 20 59 80 84 59 46 41
15 12 14 17 33 39 39 39 37 31 28 28 23 22 19 28 35 41 43 45 33 37 38 43 39 40 59 68 68 72 72 75 79 77 71 65 63 61 60 59 53 51 32 29 55 85 70 52 45
14 13 18 28 39 48 48 45 42 36 35 30 19 16 20 25 26 33 34 22 38 38 46 52 53 57 63 63 65 74 72 72 75 83 78 72 69 66 64 64 61 57 59 46 36 82 76 60 51
14 16 20 37 44 51 50 49 43 38 31 23 19 20 22 23 24 24 21 20 21 22 24 42 53 59 70 80 79 74 70 76 77 83 80 75 71 68 68 67 68 62 55 63 58 60 72 65 46
14 18 20 32 41 47 49 46 41 33 29 28 25 21 20 20 20 18 18 17 21 23 22 21 29 52 55 59 64 77 82 80 79 83 83 80 74 69 66 69 71 74 70 62 65 66 67 68 51
16 19 27 40 40 39 37 37 32 23 21 24 23 19 18 16 16 17 14 12 13 14 17 18 18 20 23 37 44 46 52 69 75 77 81 83 82 74 71 69 68 72 74 71 70 67 74 77 68
16 24 30 39 44 37 34 31 26 20 19 18 19 14 12 8 6 6 6 6 6 6 8 10 12 12 13 18 23 29 36 52 55 64 76 76 77 79 79 79 78 73 76 75 68 65 66 70 79
21 27 31 31 33 31 29 18 11 12 12 11 8 7 7 7 7 6 6 6 6 6 5 5 6 7 9 11 13 19 29 40 42 62 80 83 83 80 78 80 81 80 77 75 78 73 66 66 74
23 26 30 30 28 26 17 11 9 9 8 8 9 9 8 7 6 6 6 6 6 6 6 6 5 5 5 6 7 9 14 25 39 56 64 70 79 88 87 86 84 74 76 75 80 84 80 69 70
24 27 28 28 26 14 10 10 9 8 7 6 6 6 6 6 6 7 8 7 8 8 8 8 8 8 7 6 6 6 6 9 16 30 49 56 65 83 86 81 78 76 77 79 79 77 82 80 75
16 21 29 29 26 14 12 10 8 6 6 6 5 6 6 7 8 8 9 10 10 10 10 10 9 9 9 9 8 8 7 6 8 12 20 31 47 64 75 76 78 83 89 81 74 70 73 87 82
13 13 14 14 13 12 11 9 6 6 6 6 8 8 10 10 11 11 11 10 9 8 8 9 8 8 7 8 8 9 9 8 8 8 10 19 28 44 52 62 75 81 92 83 82 67 64 84 84
14 15 14 13 12 11 8 7 6 6 8 9 10 12 12 12 12 11 10 10 12 14 15 15 17 18 17 15 12 10 9 8 9 9 8 10 23 40 52 60 72 84 78 72 77 74 63 81 85
19 15 14 13 11 10 9 8 8 8 11 14 14 14 13 12 12 12 14 15 16 18 19 22 22 21 20 19 17 16 14 13 11 9 9 9 13 37 49 64 72 94 96 90 88 72 61 70 71
23 17 16 15 11 11 12 11 12 13 14 14 15 14 12 12 14 19 22 21 20 23 27 27 23 18 17 18 19 18 16 14 15 14 12 11 10 17 50 62 70 83 94 97 91 71 62 60 60
18 16 18 18 17 15 14 12 14 14 15 14 14 12 13 17 24 26 27 28 28 29 29 28 20 18 20 23 24 25 26 24 22 22 21 16 14 17 67 75 72 80 80 83 87 82 74 64 66
21 18 24 19 18 15 15 12 16 18 16 14 13 17 24 28 32 35 37 39 37 36 29 29 22 23 27 30 31 29 28 33 36 35 31 31 22 15 29 77 96 90 98 89 83 81 76 71 64
42 38 25 19 21 22 20 14 15 13 12 19 28 29 34 37 40 46 48 45 40 36 21 25 23 27 34 44 40 38 38 32 34 37 43 48 32 34 32 48 74 93 99 94 92 88 85 77 70
25 24 27 29 28 22 20 18 17 17 24 30 31 42 45 50 54 51 49 42 36 23 20 23 23 34 52 54 41 48 44 40 34 39 39 55 37 34 50 91 82 85 100 100 100 99 99 89 79
24 30 32 30 27 26 25 32 14 19 31 32 39 48 52 57 59 56 54 43 33 24 20 20 29 46 53 51 38 54 54 59 61 77 70 55 54 75 67 72 98 100 100 100 99 98 99 96 83
36 43 39 37 40 35 40 59 29 34 35 40 47 54 59 62 63 61 52 48 38 40 32 32 42 46 50 52 40 56 57 78 78 91 86 95 90 98 81 76 82 82 92 99 98 98 99 87 79
41 42 56 60 59 68 71 68 37 37 42 48 53 57 63 67 64 53 50 52 48 46 46 46 49 53 54 54 47 46 48 69 87 100 99 99 99 94 94 94 93 89 90 92 86 93 92 84 76
48 48 64 74 87 78 78 80 38 43 49 53 55 57 60 59 56 54 52 47 48 50 52 50 51 55 59 67 81 83 84 83 68 71 88 100 100 98 83 93 87 81 78 77 70 68 67 69 77
54 57 75 81 97 89 84 81 41 52 47 51 52 51 48 45 46 47 47 50 52 53 51 56 56 59 60 69 79 89 98 100 99 99 92 90 98 98 98 96 80 86 76 95 98 99 98 88 90
80 83 82 85 90 97 68 55 49 53 28 38 48 47 45 46 46 46 46 51 53 27 36 46 54 58 35 32 37 77 66 48 42 69 81 96 98 100 99 100 100 100 100 99 98 93 84 77 83
85 85 84 87 91 92 70 66 50 53 30 22 24 33 42 42 39 35 30 28 24 29 36 37 35 28 21 18 18 19 21 20 20 19 20 20 21 21 22 22 22 20 19 17 18 15 14 12 12
82 85 80 82 80 92 90 46 50 55 46 28 22 22 23 24 26 26 23 19 22 27 29 27 23 22 20 19 18 18 18 17 17 16 16 15 14 14 14 13 13 14 14 14 14 14 14 14 13
82 83 72 73 74 78 83 45 30 45 45 25 20 18 19 20 20 20 20 20 20 21 23 24 25 24 22 21 22 21 20 19 17 15 14 14 15 15 16 16 16 16 16 15 14 14 12 11 10

GFSSGP_700_rhum_117.txt.gz
RH
11 10 9 8 7 8 16 22 26 26 25 27 26 27 26 28 31 35 34 26 33 41 43 38 47 52 63 72 67 65 62 62 61 56 62 66 65 64 59 45 20 13 16 27 74 80 69 44 38
12 12 10 7 10 11 20 25 28 27 25 25 24 21 20 25 31 35 37 28 35 33 39 43 41 44 52 62 72 68 67 63 61 58 63 63 61 60 59 59 43 21 15 64 82 76 60 49 41
12 12 10 9 11 11 16 27 31 30 28 26 24 21 21 20 26 32 36 32 29 24 26 32 45 52 54 57 65 72 72 72 69 65 67 66 63 61 59 63 59 42 22 47 84 88 78 53 43
12 12 12 14 18 20 24 29 30 29 29 26 23 24 20 19 25 31 35 38 38 33 31 32 39 59 55 65 71 73 77 76 75 74 74 75 69 64 61 61 62 54 50 28 50 69 86 64 50
13 12 15 20 24 28 31 34 34 32 32 30 28 23 18 20 21 26 32 34 25 30 30 36 43 53 55 49 68 76 79 79 77 80 82 80 75 69 66 65 64 63 59 58 43 51 83 81 62
14 14 17 27 29 38 41 40 37 35 35 34 29 21 18 18 22 24 25 24 19 18 21 23 30 44 58 57 71 72 71 78 81 78 80 86 83 77 74 71 68 67 67 60 61 60 62 80 75
14 16 18 28 33 46 46 46 44 40 36 30 25 22 21 21 23 24 23 20 20 19 18 18 18 21 35 48 60 68 76 82 82 83 86 90 89 86 81 80 76 76 74 71 69 65 71 71 70
16 18 21 37 42 48 42 38 41 36 32 29 26 20 19 20 19 18 18 16 15 15 16 15 14 15 17 20 31 46 51 53 56 66 69 76 79 82 84 81 80 80 78 76 75 74 73 73 78
16 18 27 33 42 41 40 40 35 30 25 20 18 18 18 15 11 10 8 7 6 6 6 7 9 11 12 12 14 17 22 26 31 37 46 53 54 58 70 77 78 80 81 79 77 76 70 70 76
16 21 27 31 37 36 36 35 28 25 22 19 13 10 7 6 6 6 5 5 5 5 5 5 5 5 5 5 6 10 14 18 25 32 46 50 55 72 78 81 85 85 86 86 82 77 75 71 67
17 25 29 31 34 34 34 27 11 11 11 9 7 7 7 6 5 4 4 4 5 6 6 6 7 6 6 6 6 6 6 8 12 21 34 40 51 73 75 75 83 86 87 83 79 76 75 77 78
23 26 29 30 30 28 19 12 9 8 8 8 8 6 5 4 4 5 6 7 8 9 9 9 9 9 9 8 8 7 7 6 6 8 12 22 36 54 59 64 78 87 85 81 76 76 79 81 77
24 23 27 30 26 19 13 9 9 8 6 6 5 5 5 6 7 8 9 10 10 11 10 10 10 9 9 9 9 9 9 9 8 8 7 8 12 24 48 56 64 80 81 82 82 86 79 74 76
21 26 27 28 26 19 10 9 8 7 5 5 5 5 6 8 9 10 11 11 11 10 9 9 10 11 11 12 11 10 8 8 8 9 9 9 8 9 14 33 50 57 71 75 78 84 84 85 83
15 20 20 16 14 11 10 8 6 5 5 5 7 7 8 10 11 12 12 10 10 9 10 12 14 16 16 17 18 17 17 16 15 11 8 9 10 9 9 13 30 46 55 62 67 80 84 84 87
16 16 14 13 12 10 9 6 5 6 7 8 8 9 11 12 13 12 11 11 10 11 14 17 20 23 24 21 17 15 15 15 15 15 15 14 11 10 10 10 16 45 64 65 62 79 78 75 93
19 17 14 13 12 10 9 7 7 8 10 11 11 11 13 13 12 15 17 18 20 22 26 28 30 28 26 18 16 17 21 22 21 21 22 18 16 15 12 10 11 53 58 82 80 76 80 81 95
21 18 18 16 14 10 10 9 10 11 10 12 14 14 12 12 19 26 29 31 32 33 31 32 30 19 20 15 22 29 32 28 28 28 25 28 26 22 21 16 15 33 91 80 97 96 94 94 89
19 19 14 14 14 14 12 10 13 13 12 14 14 13 14 22 30 34 35 40 41 38 34 31 16 13 16 25 37 46 36 32 32 33 33 35 38 40 37 27 17 29 95 85 99 99 99 95 90
16 14 15 16 17 16 15 12 14 15 14 14 13 17 28 32 37 39 46 48 46 38 34 23 17 18 23 34 44 47 34 36 35 33 29 23 28 40 48 38 28 20 43 82 98 84 94 99 100
33 29 22 21 24 22 18 16 17 17 16 16 20 25 33 40 45 47 51 53 46 38 31 23 20 21 33 46 46 44 42 43 44 42 49 67 60 58 52 35 35 58 62 59 76 100 100 100 100
24 24 24 23 23 23 24 26 18 16 15 17 28 38 44 49 54 57 55 49 46 38 33 33 32 37 40 44 43 37 37 44 50 54 56 76 82 60 56 68 53 47 95 99 99 87 100 100 100
30 35 34 30 28 28 29 34 18 18 25 32 40 46 50 54 54 54 48 47 45 43 38 41 40 42 44 44 43 38 36 40 43 47 66 92 93 100 99 94 97 82 98 98 99 91 92 84 82
38 36 34 37 42 61 55 58 27 33 34 42 44 46 46 46 47 48 49 47 44 45 46 44 44 45 47 47 51 57 58 50 46 47 54 77 97 91 79 96 97 100 100 100 99 93 89 85 92
35 35 49 58 81 67 79 83 30 36 41 41 43 43 42 41 42 44 45 44 43 45 48 49 48 43 28 39 46 55 63 62 61 68 76 70 68 78 90 77 80 90 96 90 85 93 81 75 74
46 45 48 43 94 90 77 75 33 38 40 36 43 42 40 39 41 41 40 42 42 47 52 53 40 24 24 18 18 19 32 38 47 29 23 33 52 89 96 100 100 100 99 97 89 91 100 100 100
62 56 64 73 92 97 60 45 32 36 42 23 25 32 36 38 36 33 30 28 39 42 27 19 19 18 15 12 12 13 13 13 14 14 15 15 16 16 16 17 18 32 50 45 45 37 19 26 20
78 74 72 69 90 93 69 60 36 47 38 22 18 16 16 16 17 18 19 20 21 20 16 16 16 14 12 12 12 14 14 13 13 13 12 11 11 12 13 14 14 15 15 15 15 15 15 15 14
73 78 73 75 80 91 88 36 34 42 50 39 23 15 14 14 14 15 16 18 19 19 18 18 16 14 14 14 15 16 16 14 13 13 14 14 15 15 16 17 19 20 20 19 18 17 16 16 15
72 81 71 72 70 81 85 41 17 41 48 31 17 16 14 14 15 16 18 20 21 21 20 17 15 16 16 16 17 17 16 16 15 16 16 16 17 21 28 29 27 28 28 29 28 28 27 26 23

GFSSGP_700_rhum_120.txt.gz
RH
10 9 8 6 6 7 12 18 16 24 27 30 30 30 33 32 36 39 34 29 27 45 42 39 64 51 61 69 72 66 64 67 63 61 60 61 63 63 61 58 46 26 14 20 77 88 84 48 41
11 10 8 7 8 9 17 21 20 21 24 26 28 29 29 31 35 35 36 32 26 33 32 35 49 67 47 55 66 70 67 68 65 62 60 64 66 64 60 57 58 51 27 26 73 81 81 59 49
12 11 8 7 10 8 14 21 24 25 24 26 25 24 23 23 25 32 33 33 31 27 20 21 40 58 56 50 60 66 75 73 73 72 66 68 71 69 63 57 55 57 49 28 54 82 88 77 56
12 11 11 11 10 11 14 22 26 27 27 27 26 25 22 22 20 24 29 31 33 33 31 23 26 65 67 61 64 62 69 80 80 79 79 74 76 74 70 66 62 60 58 55 36 48 66 84 75
12 11 13 14 14 14 18 24 28 28 28 28 26 24 22 22 19 21 23 25 29 28 26 25 25 31 43 50 50 56 66 73 78 81 79 82 86 84 77 72 71 67 66 62 58 51 52 61 88
12 13 14 16 17 20 25 28 29 29 30 31 30 28 24 22 20 22 24 24 23 21 17 18 20 20 28 48 50 54 63 68 70 72 77 78 80 86 86 82 78 74 74 73 67 61 65 59 70
12 14 15 17 21 28 28 33 34 35 38 36 32 27 22 19 20 21 23 23 21 19 18 17 17 18 17 17 33 45 50 61 69 72 73 72 74 84 88 86 83 80 76 75 75 72 72 71 76
14 16 17 22 25 32 33 34 40 42 39 34 30 27 26 25 22 21 19 17 16 16 15 15 15 15 15 15 17 20 33 46 50 54 58 65 66 63 69 73 75 80 79 75 76 75 75 75 75
15 18 20 23 31 27 31 34 44 40 33 30 26 20 19 19 19 17 15 13 8 6 6 6 6 5 5 6 9 11 13 16 20 28 34 39 42 46 52 56 54 64 77 79 80 81 78 77 72
17 18 20 25 28 31 31 33 36 34 31 27 20 17 15 12 9 7 6 6 5 5 5 4 4 5 5 4 4 4 5 6 9 14 18 23 32 41 52 52 56 63 78 82 85 85 84 80 74
18 20 20 24 30 35 37 35 32 29 24 21 15 10 7 6 6 5 5 4 5 5 6 6 6 6 6 6 6 6 6 6 6 6 7 10 17 27 41 57 72 83 82 81 86 88 86 78 74
21 22 22 24 30 33 36 34 29 14 11 9 7 6 6 5 4 4 4 5 6 7 7 8 9 9 9 9 9 9 9 9 8 8 8 7 7 9 16 31 49 69 77 81 87 89 88 80 79
22 24 26 30 33 33 30 23 12 8 8 7 6 5 4 4 5 6 7 8 9 10 10 10 10 10 10 9 9 9 8 8 9 9 9 9 9 8 8 9 20 40 60 59 77 88 89 84 80
26 26 28 30 30 28 22 12 9 8 7 6 5 5 4 6 7 9 9 10 11 11 11 10 10 9 8 9 10 11 11 10 10 10 10 8 8 8 9 9 9 10 26 51 56 70 84 83 88
24 28 31 30 27 22 14 10 9 7 6 5 4 4 6 8 9 10 11 12 12 11 10 9 10 12 13 15 18 20 20 19 18 17 17 16 16 14 12 9 8 9 9 15 39 50 62 71 76
28 32 30 28 24 17 12 9 8 6 4 4 5 6 8 10 11 12 13 12 10 9 10 13 16 20 24 25 24 22 16 14 14 16 16 16 15 15 16 16 14 12 11 11 29 45 47 51 59
27 20 19 15 13 12 10 8 5 4 4 5 7 9 10 12 13 12 11 10 12 14 17 20 22 24 25 17 14 15 29 33 36 31 25 23 24 24 21 22 20 17 15 12 25 48 74 74 73
19 15 14 14 14 12 9 8 6 6 7 9 9 10 12 14 13 12 15 20 23 26 26 27 27 26 16 14 22 30 34 32 32 29 29 27 25 26 29 29 31 30 24 18 16 97 75 99 89
18 16 14 13 13 12 10 7 8 10 9 10 12 14 15 14 13 18 25 29 34 35 34 32 29 21 18 22 28 32 38 33 28 30 29 29 28 26 22 23 38 42 38 25 29 36 99 76 90
22 21 17 15 14 11 11 8 10 11 11 12 15 16 14 14 22 30 36 40 44 45 42 37 28 22 23 26 30 35 40 32 29 32 35 35 37 33 40 35 40 51 43 34 26 36 71 94 82
19 19 18 18 17 17 14 11 11 13 16 17 17 15 16 22 34 41 46 49 51 46 44 38 30 28 27 33 38 41 36 32 31 35 38 40 42 48 60 54 52 50 39 66 98 76 62 70 97
30 26 22 19 19 19 22 25 17 17 18 18 16 17 26 36 42 48 49 50 49 46 44 38 36 33 32 39 43 41 41 41 36 32 33 37 44 50 64 74 76 79 70 71 80 98 100 82 89
26 24 22 24 25 25 24 31 18 18 16 17 24 31 39 41 44 46 47 46 42 42 41 40 40 39 39 41 40 42 46 51 50 45 39 35 36 35 61 74 85 92 98 100 100 91 94 78 71
29 31 29 28 32 49 36 41 21 18 21 28 36 40 40 40 41 42 42 42 41 42 43 42 42 42 41 28 20 31 48 51 54 54 57 60 52 51 56 58 57 62 70 89 98 98 86 81 80
32 31 34 49 66 64 66 69 21 26 29 35 39 40 38 38 39 38 36 34 38 40 41 42 45 45 36 19 10 8 14 14 14 21 11 13 13 10 10 12 26 42 70 92 99 98 95 82 79
35 37 41 32 75 85 72 70 27 29 31 38 36 39 38 38 36 31 28 26 23 28 28 30 39 37 17 8 7 7 8 8 9 10 10 9 9 9 9 9 10 11 12 13 14 14 14 14 15
53 45 52 60 89 94 48 37 25 28 34 37 25 19 15 14 15 13 14 13 14 13 16 18 14 10 8 8 8 8 8 9 10 10 10 10 11 13 14 15 15 16 17 18 18 17 17 16 16
63 65 61 61 77 84 60 49 27 36 33 35 21 17 12 11 12 13 13 12 11 12 13 12 10 9 9 9 10 11 11 11 11 12 13 15 16 16 16 21 26 28 27 28 28 28 28 27 26
66 75 69 73 76 88 84 30 20 37 46 42 36 19 13 11 11 12 13 13 13 13 14 13 12 14 14 14 12 12 12 12 12 13 15 18 18 17 23 34 34 28 28 29 30 31 33 35 37
65 77 73 68 68 81 85 38 16 22 42 43 16 13 16 17 17 16 15 15 17 18 18 17 17 17 13 12 12 12 13 13 13 14 17 18 18 20 35 38 28 27 28 28 29 32 35 37 39